<?xml version="1.0" encoding="UTF-8" standalone="no" ?>
<gpx xmlns="http://www.topografix.com/GPX/1/1" xmlns:xsi="http://www.w3.org/2001/XMLSchema-instance" xsi:schemaLocation="http://www.topografix.com/GPX/1/1 http://www.topografix.com/GPX/1/1/gpx.xsd" version="1.1" creator="VisuGPX - https://www.visugpx.com">
  <metadata>
    <name>Mt ST Cyr Iffernet Arcambal</name>
  </metadata>
  <trk>
    <name><![CDATA[Mt ST Cyr Iffernet Arcambal]]></name>
    <trkseg>
      <trkpt lat="44.43282" lon="1.47359">
        <ele>289.20001220703</ele>
        <time>2021-03-27T13:21:14Z</time>
      </trkpt>
      <trkpt lat="44.43265" lon="1.4737">
        <ele>289.20001220703</ele>
        <time>2021-03-27T13:21:19Z</time>
      </trkpt>
      <trkpt lat="44.43239" lon="1.47398">
        <ele>289.20001220703</ele>
        <time>2021-03-27T13:21:27Z</time>
      </trkpt>
      <trkpt lat="44.43221" lon="1.4743">
        <ele>288.79998779297</ele>
        <time>2021-03-27T13:21:34Z</time>
      </trkpt>
      <trkpt lat="44.43203" lon="1.47471">
        <ele>288.60000610352</ele>
        <time>2021-03-27T13:21:41Z</time>
      </trkpt>
      <trkpt lat="44.43194" lon="1.47487">
        <ele>288.60000610352</ele>
        <time>2021-03-27T13:21:44Z</time>
      </trkpt>
      <trkpt lat="44.43192" lon="1.47492">
        <ele>288.39999389648</ele>
        <time>2021-03-27T13:21:45Z</time>
      </trkpt>
      <trkpt lat="44.43191" lon="1.47496">
        <ele>288.20001220703</ele>
        <time>2021-03-27T13:21:46Z</time>
      </trkpt>
      <trkpt lat="44.4319" lon="1.47499">
        <ele>288.20001220703</ele>
        <time>2021-03-27T13:21:47Z</time>
      </trkpt>
      <trkpt lat="44.43186" lon="1.47504">
        <ele>288</ele>
        <time>2021-03-27T13:22:19Z</time>
      </trkpt>
      <trkpt lat="44.43184" lon="1.47505">
        <ele>288</ele>
        <time>2021-03-27T13:22:20Z</time>
      </trkpt>
      <trkpt lat="44.43172" lon="1.4752">
        <ele>288</ele>
        <time>2021-03-27T13:22:27Z</time>
      </trkpt>
      <trkpt lat="44.4316" lon="1.47535">
        <ele>288.20001220703</ele>
        <time>2021-03-27T13:22:33Z</time>
      </trkpt>
      <trkpt lat="44.43144" lon="1.47552">
        <ele>289.60000610352</ele>
        <time>2021-03-27T13:22:40Z</time>
      </trkpt>
      <trkpt lat="44.43136" lon="1.47561">
        <ele>290.20001220703</ele>
        <time>2021-03-27T13:22:43Z</time>
      </trkpt>
      <trkpt lat="44.43127" lon="1.47569">
        <ele>291</ele>
        <time>2021-03-27T13:22:46Z</time>
      </trkpt>
      <trkpt lat="44.43121" lon="1.47575">
        <ele>291.60000610352</ele>
        <time>2021-03-27T13:22:48Z</time>
      </trkpt>
      <trkpt lat="44.43107" lon="1.47587">
        <ele>292.20001220703</ele>
        <time>2021-03-27T13:22:52Z</time>
      </trkpt>
      <trkpt lat="44.43103" lon="1.47589">
        <ele>292.20001220703</ele>
        <time>2021-03-27T13:22:53Z</time>
      </trkpt>
      <trkpt lat="44.43087" lon="1.47594">
        <ele>292.39999389648</ele>
        <time>2021-03-27T13:22:57Z</time>
      </trkpt>
      <trkpt lat="44.43074" lon="1.47598">
        <ele>292.39999389648</ele>
        <time>2021-03-27T13:23:00Z</time>
      </trkpt>
      <trkpt lat="44.43046" lon="1.4761">
        <ele>292.60000610352</ele>
        <time>2021-03-27T13:23:07Z</time>
      </trkpt>
      <trkpt lat="44.43041" lon="1.47618">
        <ele>292.60000610352</ele>
        <time>2021-03-27T13:23:09Z</time>
      </trkpt>
      <trkpt lat="44.43041" lon="1.47622">
        <ele>292.60000610352</ele>
        <time>2021-03-27T13:23:10Z</time>
      </trkpt>
      <trkpt lat="44.43037" lon="1.47623">
        <ele>293.60000610352</ele>
        <time>2021-03-27T13:23:30Z</time>
      </trkpt>
      <trkpt lat="44.43028" lon="1.47624">
        <ele>293.60000610352</ele>
        <time>2021-03-27T13:23:33Z</time>
      </trkpt>
      <trkpt lat="44.43024" lon="1.47628">
        <ele>293.60000610352</ele>
        <time>2021-03-27T13:23:35Z</time>
      </trkpt>
      <trkpt lat="44.43025" lon="1.47632">
        <ele>293.39999389648</ele>
        <time>2021-03-27T13:23:36Z</time>
      </trkpt>
      <trkpt lat="44.43037" lon="1.47644">
        <ele>293.39999389648</ele>
        <time>2021-03-27T13:23:41Z</time>
      </trkpt>
      <trkpt lat="44.43057" lon="1.47656">
        <ele>293.39999389648</ele>
        <time>2021-03-27T13:23:48Z</time>
      </trkpt>
      <trkpt lat="44.4307" lon="1.47672">
        <ele>293.79998779297</ele>
        <time>2021-03-27T13:23:54Z</time>
      </trkpt>
      <trkpt lat="44.43079" lon="1.4769">
        <ele>294</ele>
        <time>2021-03-27T13:23:59Z</time>
      </trkpt>
      <trkpt lat="44.43094" lon="1.47694">
        <ele>294</ele>
        <time>2021-03-27T13:24:04Z</time>
      </trkpt>
      <trkpt lat="44.43109" lon="1.47693">
        <ele>294</ele>
        <time>2021-03-27T13:24:08Z</time>
      </trkpt>
      <trkpt lat="44.43123" lon="1.47691">
        <ele>293.79998779297</ele>
        <time>2021-03-27T13:24:11Z</time>
      </trkpt>
      <trkpt lat="44.4313" lon="1.47697">
        <ele>293.60000610352</ele>
        <time>2021-03-27T13:24:13Z</time>
      </trkpt>
      <trkpt lat="44.43132" lon="1.47716">
        <ele>293.39999389648</ele>
        <time>2021-03-27T13:24:16Z</time>
      </trkpt>
      <trkpt lat="44.43138" lon="1.47725">
        <ele>292.79998779297</ele>
        <time>2021-03-27T13:24:19Z</time>
      </trkpt>
      <trkpt lat="44.43139" lon="1.47727">
        <ele>292.60000610352</ele>
        <time>2021-03-27T13:24:20Z</time>
      </trkpt>
      <trkpt lat="44.4314" lon="1.47727">
        <ele>292.39999389648</ele>
        <time>2021-03-27T13:24:22Z</time>
      </trkpt>
      <trkpt lat="44.43143" lon="1.47731">
        <ele>291.60000610352</ele>
        <time>2021-03-27T13:24:24Z</time>
      </trkpt>
      <trkpt lat="44.43145" lon="1.47734">
        <ele>291.39999389648</ele>
        <time>2021-03-27T13:24:25Z</time>
      </trkpt>
      <trkpt lat="44.43151" lon="1.47741">
        <ele>290.79998779297</ele>
        <time>2021-03-27T13:24:27Z</time>
      </trkpt>
      <trkpt lat="44.43164" lon="1.47746">
        <ele>290.39999389648</ele>
        <time>2021-03-27T13:24:30Z</time>
      </trkpt>
      <trkpt lat="44.43177" lon="1.47748">
        <ele>290</ele>
        <time>2021-03-27T13:24:33Z</time>
      </trkpt>
      <trkpt lat="44.43186" lon="1.47753">
        <ele>290</ele>
        <time>2021-03-27T13:24:35Z</time>
      </trkpt>
      <trkpt lat="44.43204" lon="1.4777">
        <ele>290</ele>
        <time>2021-03-27T13:24:39Z</time>
      </trkpt>
      <trkpt lat="44.43215" lon="1.4779">
        <ele>289.60000610352</ele>
        <time>2021-03-27T13:24:43Z</time>
      </trkpt>
      <trkpt lat="44.43218" lon="1.47795">
        <ele>289.79998779297</ele>
        <time>2021-03-27T13:24:44Z</time>
      </trkpt>
      <trkpt lat="44.4323" lon="1.47806">
        <ele>289.79998779297</ele>
        <time>2021-03-27T13:24:47Z</time>
      </trkpt>
      <trkpt lat="44.43243" lon="1.47819">
        <ele>289.60000610352</ele>
        <time>2021-03-27T13:24:50Z</time>
      </trkpt>
      <trkpt lat="44.43255" lon="1.4783">
        <ele>289.39999389648</ele>
        <time>2021-03-27T13:24:53Z</time>
      </trkpt>
      <trkpt lat="44.43259" lon="1.47833">
        <ele>289.20001220703</ele>
        <time>2021-03-27T13:24:54Z</time>
      </trkpt>
      <trkpt lat="44.43271" lon="1.47841">
        <ele>288.79998779297</ele>
        <time>2021-03-27T13:24:57Z</time>
      </trkpt>
      <trkpt lat="44.43276" lon="1.47845">
        <ele>288.39999389648</ele>
        <time>2021-03-27T13:24:59Z</time>
      </trkpt>
      <trkpt lat="44.43283" lon="1.47856">
        <ele>288</ele>
        <time>2021-03-27T13:27:22Z</time>
      </trkpt>
      <trkpt lat="44.43285" lon="1.47858">
        <ele>288.20001220703</ele>
        <time>2021-03-27T13:27:23Z</time>
      </trkpt>
      <trkpt lat="44.43294" lon="1.47861">
        <ele>288.20001220703</ele>
        <time>2021-03-27T13:27:26Z</time>
      </trkpt>
      <trkpt lat="44.43308" lon="1.47869">
        <ele>287</ele>
        <time>2021-03-27T13:27:31Z</time>
      </trkpt>
      <trkpt lat="44.43318" lon="1.47876">
        <ele>286.20001220703</ele>
        <time>2021-03-27T13:27:34Z</time>
      </trkpt>
      <trkpt lat="44.43321" lon="1.47877">
        <ele>286.20001220703</ele>
        <time>2021-03-27T13:27:35Z</time>
      </trkpt>
      <trkpt lat="44.43324" lon="1.4788">
        <ele>286</ele>
        <time>2021-03-27T13:27:36Z</time>
      </trkpt>
      <trkpt lat="44.43326" lon="1.47884">
        <ele>286</ele>
        <time>2021-03-27T13:27:37Z</time>
      </trkpt>
      <trkpt lat="44.43329" lon="1.47888">
        <ele>285.79998779297</ele>
        <time>2021-03-27T13:27:38Z</time>
      </trkpt>
      <trkpt lat="44.43334" lon="1.47894">
        <ele>285.20001220703</ele>
        <time>2021-03-27T13:27:40Z</time>
      </trkpt>
      <trkpt lat="44.43336" lon="1.47898">
        <ele>285</ele>
        <time>2021-03-27T13:27:41Z</time>
      </trkpt>
      <trkpt lat="44.43337" lon="1.47901">
        <ele>284.39999389648</ele>
        <time>2021-03-27T13:27:42Z</time>
      </trkpt>
      <trkpt lat="44.43341" lon="1.47907">
        <ele>283.79998779297</ele>
        <time>2021-03-27T13:27:44Z</time>
      </trkpt>
      <trkpt lat="44.43346" lon="1.47915">
        <ele>282.60000610352</ele>
        <time>2021-03-27T13:27:46Z</time>
      </trkpt>
      <trkpt lat="44.43351" lon="1.4792">
        <ele>282.20001220703</ele>
        <time>2021-03-27T13:27:47Z</time>
      </trkpt>
      <trkpt lat="44.43354" lon="1.47924">
        <ele>281.79998779297</ele>
        <time>2021-03-27T13:27:48Z</time>
      </trkpt>
      <trkpt lat="44.43356" lon="1.47928">
        <ele>281.39999389648</ele>
        <time>2021-03-27T13:27:49Z</time>
      </trkpt>
      <trkpt lat="44.43359" lon="1.47932">
        <ele>281</ele>
        <time>2021-03-27T13:27:50Z</time>
      </trkpt>
      <trkpt lat="44.43363" lon="1.47941">
        <ele>280.39999389648</ele>
        <time>2021-03-27T13:27:52Z</time>
      </trkpt>
      <trkpt lat="44.43365" lon="1.47946">
        <ele>279.60000610352</ele>
        <time>2021-03-27T13:27:53Z</time>
      </trkpt>
      <trkpt lat="44.43366" lon="1.47951">
        <ele>279.20001220703</ele>
        <time>2021-03-27T13:27:54Z</time>
      </trkpt>
      <trkpt lat="44.43367" lon="1.47956">
        <ele>278.39999389648</ele>
        <time>2021-03-27T13:27:55Z</time>
      </trkpt>
      <trkpt lat="44.4337" lon="1.4797">
        <ele>276.20001220703</ele>
        <time>2021-03-27T13:27:57Z</time>
      </trkpt>
      <trkpt lat="44.43377" lon="1.4798">
        <ele>274.79998779297</ele>
        <time>2021-03-27T13:27:59Z</time>
      </trkpt>
      <trkpt lat="44.43382" lon="1.47982">
        <ele>274.20001220703</ele>
        <time>2021-03-27T13:28:00Z</time>
      </trkpt>
      <trkpt lat="44.43387" lon="1.47981">
        <ele>273.60000610352</ele>
        <time>2021-03-27T13:28:01Z</time>
      </trkpt>
      <trkpt lat="44.43399" lon="1.47976">
        <ele>272.20001220703</ele>
        <time>2021-03-27T13:28:03Z</time>
      </trkpt>
      <trkpt lat="44.43405" lon="1.47974">
        <ele>271.20001220703</ele>
        <time>2021-03-27T13:28:04Z</time>
      </trkpt>
      <trkpt lat="44.43411" lon="1.47974">
        <ele>270</ele>
        <time>2021-03-27T13:28:05Z</time>
      </trkpt>
      <trkpt lat="44.43417" lon="1.47972">
        <ele>269</ele>
        <time>2021-03-27T13:28:06Z</time>
      </trkpt>
      <trkpt lat="44.43422" lon="1.4797">
        <ele>267.79998779297</ele>
        <time>2021-03-27T13:28:07Z</time>
      </trkpt>
      <trkpt lat="44.4343" lon="1.47963">
        <ele>266</ele>
        <time>2021-03-27T13:28:09Z</time>
      </trkpt>
      <trkpt lat="44.43434" lon="1.4796">
        <ele>265.60000610352</ele>
        <time>2021-03-27T13:28:10Z</time>
      </trkpt>
      <trkpt lat="44.43438" lon="1.47958">
        <ele>265</ele>
        <time>2021-03-27T13:28:11Z</time>
      </trkpt>
      <trkpt lat="44.43442" lon="1.47955">
        <ele>264.39999389648</ele>
        <time>2021-03-27T13:28:12Z</time>
      </trkpt>
      <trkpt lat="44.43446" lon="1.47952">
        <ele>263</ele>
        <time>2021-03-27T13:28:13Z</time>
      </trkpt>
      <trkpt lat="44.43449" lon="1.4795">
        <ele>261.79998779297</ele>
        <time>2021-03-27T13:28:14Z</time>
      </trkpt>
      <trkpt lat="44.43454" lon="1.47956">
        <ele>260.39999389648</ele>
        <time>2021-03-27T13:28:16Z</time>
      </trkpt>
      <trkpt lat="44.43456" lon="1.47963">
        <ele>260</ele>
        <time>2021-03-27T13:28:17Z</time>
      </trkpt>
      <trkpt lat="44.43459" lon="1.47976">
        <ele>258.79998779297</ele>
        <time>2021-03-27T13:28:19Z</time>
      </trkpt>
      <trkpt lat="44.43465" lon="1.47985">
        <ele>257.79998779297</ele>
        <time>2021-03-27T13:28:21Z</time>
      </trkpt>
      <trkpt lat="44.43467" lon="1.47987">
        <ele>257.39999389648</ele>
        <time>2021-03-27T13:28:22Z</time>
      </trkpt>
      <trkpt lat="44.4347" lon="1.4799">
        <ele>256.79998779297</ele>
        <time>2021-03-27T13:28:23Z</time>
      </trkpt>
      <trkpt lat="44.43473" lon="1.47993">
        <ele>256.20001220703</ele>
        <time>2021-03-27T13:28:24Z</time>
      </trkpt>
      <trkpt lat="44.43477" lon="1.47996">
        <ele>254.19999694824</ele>
        <time>2021-03-27T13:28:25Z</time>
      </trkpt>
      <trkpt lat="44.4348" lon="1.47999">
        <ele>253</ele>
        <time>2021-03-27T13:28:26Z</time>
      </trkpt>
      <trkpt lat="44.43484" lon="1.48003">
        <ele>252.39999389648</ele>
        <time>2021-03-27T13:28:27Z</time>
      </trkpt>
      <trkpt lat="44.43486" lon="1.48008">
        <ele>251.80000305176</ele>
        <time>2021-03-27T13:28:28Z</time>
      </trkpt>
      <trkpt lat="44.43488" lon="1.48013">
        <ele>251</ele>
        <time>2021-03-27T13:28:29Z</time>
      </trkpt>
      <trkpt lat="44.43489" lon="1.48019">
        <ele>250</ele>
        <time>2021-03-27T13:28:30Z</time>
      </trkpt>
      <trkpt lat="44.43489" lon="1.48025">
        <ele>249</ele>
        <time>2021-03-27T13:28:31Z</time>
      </trkpt>
      <trkpt lat="44.43488" lon="1.4803">
        <ele>247.60000610352</ele>
        <time>2021-03-27T13:28:32Z</time>
      </trkpt>
      <trkpt lat="44.43488" lon="1.48036">
        <ele>246.39999389648</ele>
        <time>2021-03-27T13:28:33Z</time>
      </trkpt>
      <trkpt lat="44.43488" lon="1.48041">
        <ele>245.39999389648</ele>
        <time>2021-03-27T13:28:34Z</time>
      </trkpt>
      <trkpt lat="44.43492" lon="1.48045">
        <ele>244.19999694824</ele>
        <time>2021-03-27T13:28:35Z</time>
      </trkpt>
      <trkpt lat="44.43494" lon="1.48048">
        <ele>242.80000305176</ele>
        <time>2021-03-27T13:28:36Z</time>
      </trkpt>
      <trkpt lat="44.43498" lon="1.48054">
        <ele>241</ele>
        <time>2021-03-27T13:28:38Z</time>
      </trkpt>
      <trkpt lat="44.43502" lon="1.48063">
        <ele>239.60000610352</ele>
        <time>2021-03-27T13:28:40Z</time>
      </trkpt>
      <trkpt lat="44.43504" lon="1.48066">
        <ele>239.39999389648</ele>
        <time>2021-03-27T13:28:41Z</time>
      </trkpt>
      <trkpt lat="44.43506" lon="1.48069">
        <ele>239</ele>
        <time>2021-03-27T13:28:42Z</time>
      </trkpt>
      <trkpt lat="44.43509" lon="1.48071">
        <ele>238.39999389648</ele>
        <time>2021-03-27T13:28:43Z</time>
      </trkpt>
      <trkpt lat="44.43515" lon="1.48071">
        <ele>237.60000610352</ele>
        <time>2021-03-27T13:28:45Z</time>
      </trkpt>
      <trkpt lat="44.43519" lon="1.48069">
        <ele>237</ele>
        <time>2021-03-27T13:28:46Z</time>
      </trkpt>
      <trkpt lat="44.43522" lon="1.48067">
        <ele>236.60000610352</ele>
        <time>2021-03-27T13:28:47Z</time>
      </trkpt>
      <trkpt lat="44.43525" lon="1.48065">
        <ele>235.60000610352</ele>
        <time>2021-03-27T13:28:48Z</time>
      </trkpt>
      <trkpt lat="44.43532" lon="1.48062">
        <ele>233.80000305176</ele>
        <time>2021-03-27T13:28:50Z</time>
      </trkpt>
      <trkpt lat="44.43534" lon="1.48062">
        <ele>233</ele>
        <time>2021-03-27T13:28:51Z</time>
      </trkpt>
      <trkpt lat="44.43536" lon="1.48064">
        <ele>232.19999694824</ele>
        <time>2021-03-27T13:28:52Z</time>
      </trkpt>
      <trkpt lat="44.43537" lon="1.48068">
        <ele>231.19999694824</ele>
        <time>2021-03-27T13:28:53Z</time>
      </trkpt>
      <trkpt lat="44.43539" lon="1.48072">
        <ele>230.80000305176</ele>
        <time>2021-03-27T13:28:54Z</time>
      </trkpt>
      <trkpt lat="44.43544" lon="1.48078">
        <ele>230.39999389648</ele>
        <time>2021-03-27T13:28:56Z</time>
      </trkpt>
      <trkpt lat="44.4355" lon="1.48079">
        <ele>230</ele>
        <time>2021-03-27T13:28:58Z</time>
      </trkpt>
      <trkpt lat="44.43557" lon="1.48075">
        <ele>228.39999389648</ele>
        <time>2021-03-27T13:29:00Z</time>
      </trkpt>
      <trkpt lat="44.43565" lon="1.48071">
        <ele>227.19999694824</ele>
        <time>2021-03-27T13:29:02Z</time>
      </trkpt>
      <trkpt lat="44.43569" lon="1.48071">
        <ele>226</ele>
        <time>2021-03-27T13:29:04Z</time>
      </trkpt>
      <trkpt lat="44.4357" lon="1.48073">
        <ele>225</ele>
        <time>2021-03-27T13:29:05Z</time>
      </trkpt>
      <trkpt lat="44.43571" lon="1.48077">
        <ele>224</ele>
        <time>2021-03-27T13:29:06Z</time>
      </trkpt>
      <trkpt lat="44.43572" lon="1.48082">
        <ele>223</ele>
        <time>2021-03-27T13:29:07Z</time>
      </trkpt>
      <trkpt lat="44.43576" lon="1.48087">
        <ele>221.60000610352</ele>
        <time>2021-03-27T13:29:09Z</time>
      </trkpt>
      <trkpt lat="44.43582" lon="1.48088">
        <ele>221.19999694824</ele>
        <time>2021-03-27T13:29:11Z</time>
      </trkpt>
      <trkpt lat="44.43586" lon="1.48089">
        <ele>221</ele>
        <time>2021-03-27T13:29:12Z</time>
      </trkpt>
      <trkpt lat="44.43589" lon="1.48091">
        <ele>220.60000610352</ele>
        <time>2021-03-27T13:29:13Z</time>
      </trkpt>
      <trkpt lat="44.43594" lon="1.48096">
        <ele>219.39999389648</ele>
        <time>2021-03-27T13:29:15Z</time>
      </trkpt>
      <trkpt lat="44.43595" lon="1.48103">
        <ele>218.19999694824</ele>
        <time>2021-03-27T13:29:17Z</time>
      </trkpt>
      <trkpt lat="44.43597" lon="1.48111">
        <ele>216.80000305176</ele>
        <time>2021-03-27T13:29:19Z</time>
      </trkpt>
      <trkpt lat="44.43603" lon="1.48117">
        <ele>214.19999694824</ele>
        <time>2021-03-27T13:29:21Z</time>
      </trkpt>
      <trkpt lat="44.43607" lon="1.4812">
        <ele>213</ele>
        <time>2021-03-27T13:29:22Z</time>
      </trkpt>
      <trkpt lat="44.43616" lon="1.48125">
        <ele>210.80000305176</ele>
        <time>2021-03-27T13:29:24Z</time>
      </trkpt>
      <trkpt lat="44.4362" lon="1.48126">
        <ele>209.80000305176</ele>
        <time>2021-03-27T13:29:25Z</time>
      </trkpt>
      <trkpt lat="44.43626" lon="1.48127">
        <ele>208.80000305176</ele>
        <time>2021-03-27T13:29:26Z</time>
      </trkpt>
      <trkpt lat="44.4363" lon="1.48129">
        <ele>207.60000610352</ele>
        <time>2021-03-27T13:29:27Z</time>
      </trkpt>
      <trkpt lat="44.43634" lon="1.4813">
        <ele>205.80000305176</ele>
        <time>2021-03-27T13:29:28Z</time>
      </trkpt>
      <trkpt lat="44.43637" lon="1.4813">
        <ele>204</ele>
        <time>2021-03-27T13:29:29Z</time>
      </trkpt>
      <trkpt lat="44.43639" lon="1.48129">
        <ele>203</ele>
        <time>2021-03-27T13:29:30Z</time>
      </trkpt>
      <trkpt lat="44.4367" lon="1.48125">
        <ele>202.19999694824</ele>
        <time>2021-03-27T13:36:22Z</time>
      </trkpt>
      <trkpt lat="44.43674" lon="1.48119">
        <ele>202</ele>
        <time>2021-03-27T13:36:25Z</time>
      </trkpt>
      <trkpt lat="44.43687" lon="1.48106">
        <ele>201</ele>
        <time>2021-03-27T13:36:31Z</time>
      </trkpt>
      <trkpt lat="44.43705" lon="1.48091">
        <ele>200.39999389648</ele>
        <time>2021-03-27T13:36:36Z</time>
      </trkpt>
      <trkpt lat="44.43711" lon="1.4809">
        <ele>200.19999694824</ele>
        <time>2021-03-27T13:36:37Z</time>
      </trkpt>
      <trkpt lat="44.43716" lon="1.48088">
        <ele>200</ele>
        <time>2021-03-27T13:36:38Z</time>
      </trkpt>
      <trkpt lat="44.43732" lon="1.48082">
        <ele>199</ele>
        <time>2021-03-27T13:36:41Z</time>
      </trkpt>
      <trkpt lat="44.43738" lon="1.4808">
        <ele>198.80000305176</ele>
        <time>2021-03-27T13:36:42Z</time>
      </trkpt>
      <trkpt lat="44.43765" lon="1.48079">
        <ele>197.39999389648</ele>
        <time>2021-03-27T13:36:46Z</time>
      </trkpt>
      <trkpt lat="44.43771" lon="1.48078">
        <ele>196.80000305176</ele>
        <time>2021-03-27T13:36:47Z</time>
      </trkpt>
      <trkpt lat="44.43783" lon="1.48077">
        <ele>196</ele>
        <time>2021-03-27T13:36:49Z</time>
      </trkpt>
      <trkpt lat="44.43813" lon="1.48075">
        <ele>194.80000305176</ele>
        <time>2021-03-27T13:36:53Z</time>
      </trkpt>
      <trkpt lat="44.4382" lon="1.48075">
        <ele>194.60000610352</ele>
        <time>2021-03-27T13:36:54Z</time>
      </trkpt>
      <trkpt lat="44.43833" lon="1.48079">
        <ele>194.39999389648</ele>
        <time>2021-03-27T13:36:56Z</time>
      </trkpt>
      <trkpt lat="44.43837" lon="1.48082">
        <ele>194.39999389648</ele>
        <time>2021-03-27T13:36:57Z</time>
      </trkpt>
      <trkpt lat="44.43839" lon="1.48096">
        <ele>194</ele>
        <time>2021-03-27T13:37:00Z</time>
      </trkpt>
      <trkpt lat="44.43833" lon="1.48113">
        <ele>193.80000305176</ele>
        <time>2021-03-27T13:37:04Z</time>
      </trkpt>
      <trkpt lat="44.43831" lon="1.48116">
        <ele>193.80000305176</ele>
        <time>2021-03-27T13:37:05Z</time>
      </trkpt>
      <trkpt lat="44.43823" lon="1.48138">
        <ele>194.80000305176</ele>
        <time>2021-03-27T13:37:12Z</time>
      </trkpt>
      <trkpt lat="44.43819" lon="1.48151">
        <ele>196.19999694824</ele>
        <time>2021-03-27T13:37:16Z</time>
      </trkpt>
      <trkpt lat="44.43817" lon="1.4816">
        <ele>197.19999694824</ele>
        <time>2021-03-27T13:37:19Z</time>
      </trkpt>
      <trkpt lat="44.43814" lon="1.4817">
        <ele>198.39999389648</ele>
        <time>2021-03-27T13:37:22Z</time>
      </trkpt>
      <trkpt lat="44.4381" lon="1.48184">
        <ele>199.60000610352</ele>
        <time>2021-03-27T13:37:26Z</time>
      </trkpt>
      <trkpt lat="44.43807" lon="1.48197">
        <ele>200.80000305176</ele>
        <time>2021-03-27T13:37:30Z</time>
      </trkpt>
      <trkpt lat="44.43805" lon="1.48206">
        <ele>201.60000610352</ele>
        <time>2021-03-27T13:37:33Z</time>
      </trkpt>
      <trkpt lat="44.43803" lon="1.48212">
        <ele>202</ele>
        <time>2021-03-27T13:37:35Z</time>
      </trkpt>
      <trkpt lat="44.438" lon="1.48228">
        <ele>203</ele>
        <time>2021-03-27T13:37:40Z</time>
      </trkpt>
      <trkpt lat="44.43799" lon="1.48232">
        <ele>203.39999389648</ele>
        <time>2021-03-27T13:37:41Z</time>
      </trkpt>
      <trkpt lat="44.43795" lon="1.48247">
        <ele>204.19999694824</ele>
        <time>2021-03-27T13:37:45Z</time>
      </trkpt>
      <trkpt lat="44.43792" lon="1.48263">
        <ele>205.19999694824</ele>
        <time>2021-03-27T13:37:49Z</time>
      </trkpt>
      <trkpt lat="44.43789" lon="1.48283">
        <ele>206.39999389648</ele>
        <time>2021-03-27T13:37:54Z</time>
      </trkpt>
      <trkpt lat="44.43788" lon="1.48287">
        <ele>206.60000610352</ele>
        <time>2021-03-27T13:37:55Z</time>
      </trkpt>
      <trkpt lat="44.43785" lon="1.483">
        <ele>207.39999389648</ele>
        <time>2021-03-27T13:37:59Z</time>
      </trkpt>
      <trkpt lat="44.43784" lon="1.48307">
        <ele>207.80000305176</ele>
        <time>2021-03-27T13:38:01Z</time>
      </trkpt>
      <trkpt lat="44.43779" lon="1.48321">
        <ele>208.39999389648</ele>
        <time>2021-03-27T13:38:05Z</time>
      </trkpt>
      <trkpt lat="44.43776" lon="1.48329">
        <ele>208.80000305176</ele>
        <time>2021-03-27T13:38:07Z</time>
      </trkpt>
      <trkpt lat="44.43772" lon="1.48345">
        <ele>209.60000610352</ele>
        <time>2021-03-27T13:38:11Z</time>
      </trkpt>
      <trkpt lat="44.43772" lon="1.48353">
        <ele>209.80000305176</ele>
        <time>2021-03-27T13:38:13Z</time>
      </trkpt>
      <trkpt lat="44.43769" lon="1.48367">
        <ele>210.60000610352</ele>
        <time>2021-03-27T13:38:17Z</time>
      </trkpt>
      <trkpt lat="44.43769" lon="1.48371">
        <ele>211</ele>
        <time>2021-03-27T13:38:18Z</time>
      </trkpt>
      <trkpt lat="44.43767" lon="1.48382">
        <ele>212</ele>
        <time>2021-03-27T13:38:21Z</time>
      </trkpt>
      <trkpt lat="44.43763" lon="1.48397">
        <ele>213.19999694824</ele>
        <time>2021-03-27T13:38:25Z</time>
      </trkpt>
      <trkpt lat="44.43761" lon="1.484">
        <ele>213.39999389648</ele>
        <time>2021-03-27T13:38:26Z</time>
      </trkpt>
      <trkpt lat="44.43758" lon="1.48412">
        <ele>214.19999694824</ele>
        <time>2021-03-27T13:38:30Z</time>
      </trkpt>
      <trkpt lat="44.43756" lon="1.48419">
        <ele>214.60000610352</ele>
        <time>2021-03-27T13:38:32Z</time>
      </trkpt>
      <trkpt lat="44.43755" lon="1.48426">
        <ele>215.19999694824</ele>
        <time>2021-03-27T13:38:34Z</time>
      </trkpt>
      <trkpt lat="44.43751" lon="1.48433">
        <ele>216</ele>
        <time>2021-03-27T13:38:37Z</time>
      </trkpt>
      <trkpt lat="44.43749" lon="1.48439">
        <ele>216.39999389648</ele>
        <time>2021-03-27T13:38:39Z</time>
      </trkpt>
      <trkpt lat="44.43745" lon="1.48455">
        <ele>217.39999389648</ele>
        <time>2021-03-27T13:38:44Z</time>
      </trkpt>
      <trkpt lat="44.43743" lon="1.48472">
        <ele>218.60000610352</ele>
        <time>2021-03-27T13:38:50Z</time>
      </trkpt>
      <trkpt lat="44.43742" lon="1.48474">
        <ele>218.80000305176</ele>
        <time>2021-03-27T13:38:51Z</time>
      </trkpt>
      <trkpt lat="44.4374" lon="1.48482">
        <ele>219.60000610352</ele>
        <time>2021-03-27T13:38:55Z</time>
      </trkpt>
      <trkpt lat="44.43739" lon="1.48488">
        <ele>220.19999694824</ele>
        <time>2021-03-27T13:38:57Z</time>
      </trkpt>
      <trkpt lat="44.43739" lon="1.48493">
        <ele>220.60000610352</ele>
        <time>2021-03-27T13:38:59Z</time>
      </trkpt>
      <trkpt lat="44.4374" lon="1.48509">
        <ele>221.80000305176</ele>
        <time>2021-03-27T13:39:04Z</time>
      </trkpt>
      <trkpt lat="44.4374" lon="1.48521">
        <ele>222.80000305176</ele>
        <time>2021-03-27T13:39:08Z</time>
      </trkpt>
      <trkpt lat="44.4374" lon="1.48529">
        <ele>223.39999389648</ele>
        <time>2021-03-27T13:39:10Z</time>
      </trkpt>
      <trkpt lat="44.43741" lon="1.48535">
        <ele>224.39999389648</ele>
        <time>2021-03-27T13:39:12Z</time>
      </trkpt>
      <trkpt lat="44.43744" lon="1.4855">
        <ele>225.39999389648</ele>
        <time>2021-03-27T13:39:16Z</time>
      </trkpt>
      <trkpt lat="44.43746" lon="1.48566">
        <ele>226.80000305176</ele>
        <time>2021-03-27T13:39:20Z</time>
      </trkpt>
      <trkpt lat="44.43746" lon="1.48573">
        <ele>227.80000305176</ele>
        <time>2021-03-27T13:39:22Z</time>
      </trkpt>
      <trkpt lat="44.43746" lon="1.48576">
        <ele>228</ele>
        <time>2021-03-27T13:39:23Z</time>
      </trkpt>
      <trkpt lat="44.43746" lon="1.48586">
        <ele>229.19999694824</ele>
        <time>2021-03-27T13:39:26Z</time>
      </trkpt>
      <trkpt lat="44.43745" lon="1.48597">
        <ele>230.19999694824</ele>
        <time>2021-03-27T13:39:29Z</time>
      </trkpt>
      <trkpt lat="44.43744" lon="1.48604">
        <ele>230.80000305176</ele>
        <time>2021-03-27T13:39:31Z</time>
      </trkpt>
      <trkpt lat="44.43744" lon="1.48608">
        <ele>231.39999389648</ele>
        <time>2021-03-27T13:39:32Z</time>
      </trkpt>
      <trkpt lat="44.43743" lon="1.4862">
        <ele>232.60000610352</ele>
        <time>2021-03-27T13:39:35Z</time>
      </trkpt>
      <trkpt lat="44.43743" lon="1.48623">
        <ele>233</ele>
        <time>2021-03-27T13:39:36Z</time>
      </trkpt>
      <trkpt lat="44.43743" lon="1.48626">
        <ele>233.80000305176</ele>
        <time>2021-03-27T13:39:37Z</time>
      </trkpt>
      <trkpt lat="44.43741" lon="1.48632">
        <ele>234.80000305176</ele>
        <time>2021-03-27T13:39:39Z</time>
      </trkpt>
      <trkpt lat="44.4374" lon="1.48636">
        <ele>236.19999694824</ele>
        <time>2021-03-27T13:39:41Z</time>
      </trkpt>
      <trkpt lat="44.43739" lon="1.48639">
        <ele>236.80000305176</ele>
        <time>2021-03-27T13:39:42Z</time>
      </trkpt>
      <trkpt lat="44.43739" lon="1.48642">
        <ele>237.39999389648</ele>
        <time>2021-03-27T13:39:43Z</time>
      </trkpt>
      <trkpt lat="44.43737" lon="1.48648">
        <ele>238.60000610352</ele>
        <time>2021-03-27T13:39:45Z</time>
      </trkpt>
      <trkpt lat="44.43735" lon="1.48653">
        <ele>239.60000610352</ele>
        <time>2021-03-27T13:39:47Z</time>
      </trkpt>
      <trkpt lat="44.43735" lon="1.48655">
        <ele>240.19999694824</ele>
        <time>2021-03-27T13:39:48Z</time>
      </trkpt>
      <trkpt lat="44.43734" lon="1.48656">
        <ele>240.60000610352</ele>
        <time>2021-03-27T13:39:49Z</time>
      </trkpt>
      <trkpt lat="44.43734" lon="1.48662">
        <ele>241.80000305176</ele>
        <time>2021-03-27T13:39:51Z</time>
      </trkpt>
      <trkpt lat="44.43732" lon="1.48667">
        <ele>242.80000305176</ele>
        <time>2021-03-27T13:39:53Z</time>
      </trkpt>
      <trkpt lat="44.43731" lon="1.4867">
        <ele>243.39999389648</ele>
        <time>2021-03-27T13:39:54Z</time>
      </trkpt>
      <trkpt lat="44.43731" lon="1.48672">
        <ele>244</ele>
        <time>2021-03-27T13:39:55Z</time>
      </trkpt>
      <trkpt lat="44.43728" lon="1.48676">
        <ele>245.19999694824</ele>
        <time>2021-03-27T13:39:57Z</time>
      </trkpt>
      <trkpt lat="44.43726" lon="1.48682">
        <ele>246.39999389648</ele>
        <time>2021-03-27T13:39:59Z</time>
      </trkpt>
      <trkpt lat="44.43726" lon="1.48687">
        <ele>247</ele>
        <time>2021-03-27T13:40:00Z</time>
      </trkpt>
      <trkpt lat="44.43726" lon="1.4869">
        <ele>247.60000610352</ele>
        <time>2021-03-27T13:40:01Z</time>
      </trkpt>
      <trkpt lat="44.43724" lon="1.48696">
        <ele>248.60000610352</ele>
        <time>2021-03-27T13:40:03Z</time>
      </trkpt>
      <trkpt lat="44.43723" lon="1.48701">
        <ele>249.80000305176</ele>
        <time>2021-03-27T13:40:05Z</time>
      </trkpt>
      <trkpt lat="44.43722" lon="1.48706">
        <ele>251</ele>
        <time>2021-03-27T13:40:07Z</time>
      </trkpt>
      <trkpt lat="44.43721" lon="1.48709">
        <ele>251.60000610352</ele>
        <time>2021-03-27T13:40:08Z</time>
      </trkpt>
      <trkpt lat="44.4372" lon="1.48711">
        <ele>252.60000610352</ele>
        <time>2021-03-27T13:40:09Z</time>
      </trkpt>
      <trkpt lat="44.43719" lon="1.48717">
        <ele>254</ele>
        <time>2021-03-27T13:40:11Z</time>
      </trkpt>
      <trkpt lat="44.43717" lon="1.48724">
        <ele>255.19999694824</ele>
        <time>2021-03-27T13:40:13Z</time>
      </trkpt>
      <trkpt lat="44.43715" lon="1.48732">
        <ele>256.39999389648</ele>
        <time>2021-03-27T13:40:15Z</time>
      </trkpt>
      <trkpt lat="44.43713" lon="1.48739">
        <ele>257.39999389648</ele>
        <time>2021-03-27T13:40:17Z</time>
      </trkpt>
      <trkpt lat="44.43713" lon="1.48751">
        <ele>258.79998779297</ele>
        <time>2021-03-27T13:40:20Z</time>
      </trkpt>
      <trkpt lat="44.43712" lon="1.4876">
        <ele>260</ele>
        <time>2021-03-27T13:40:22Z</time>
      </trkpt>
      <trkpt lat="44.4371" lon="1.48769">
        <ele>261.39999389648</ele>
        <time>2021-03-27T13:40:24Z</time>
      </trkpt>
      <trkpt lat="44.43707" lon="1.48778">
        <ele>262.60000610352</ele>
        <time>2021-03-27T13:40:26Z</time>
      </trkpt>
      <trkpt lat="44.43706" lon="1.48787">
        <ele>264</ele>
        <time>2021-03-27T13:40:28Z</time>
      </trkpt>
      <trkpt lat="44.43703" lon="1.48796">
        <ele>265.39999389648</ele>
        <time>2021-03-27T13:40:30Z</time>
      </trkpt>
      <trkpt lat="44.43701" lon="1.48805">
        <ele>266.60000610352</ele>
        <time>2021-03-27T13:40:32Z</time>
      </trkpt>
      <trkpt lat="44.43696" lon="1.48818">
        <ele>268</ele>
        <time>2021-03-27T13:40:35Z</time>
      </trkpt>
      <trkpt lat="44.43695" lon="1.48823">
        <ele>268.60000610352</ele>
        <time>2021-03-27T13:40:36Z</time>
      </trkpt>
      <trkpt lat="44.43693" lon="1.48827">
        <ele>270</ele>
        <time>2021-03-27T13:40:37Z</time>
      </trkpt>
      <trkpt lat="44.43692" lon="1.48836">
        <ele>271</ele>
        <time>2021-03-27T13:40:39Z</time>
      </trkpt>
      <trkpt lat="44.4369" lon="1.48844">
        <ele>272.20001220703</ele>
        <time>2021-03-27T13:40:41Z</time>
      </trkpt>
      <trkpt lat="44.43689" lon="1.48852">
        <ele>273.39999389648</ele>
        <time>2021-03-27T13:40:43Z</time>
      </trkpt>
      <trkpt lat="44.43688" lon="1.4886">
        <ele>274.79998779297</ele>
        <time>2021-03-27T13:40:46Z</time>
      </trkpt>
      <trkpt lat="44.43687" lon="1.48862">
        <ele>275.20001220703</ele>
        <time>2021-03-27T13:40:47Z</time>
      </trkpt>
      <trkpt lat="44.43687" lon="1.48862">
        <ele>275.39999389648</ele>
        <time>2021-03-27T13:40:48Z</time>
      </trkpt>
      <trkpt lat="44.43688" lon="1.48859">
        <ele>275.79998779297</ele>
        <time>2021-03-27T13:40:50Z</time>
      </trkpt>
      <trkpt lat="44.43695" lon="1.48843">
        <ele>276</ele>
        <time>2021-03-27T13:40:56Z</time>
      </trkpt>
      <trkpt lat="44.43697" lon="1.48834">
        <ele>276</ele>
        <time>2021-03-27T13:41:00Z</time>
      </trkpt>
      <trkpt lat="44.43697" lon="1.48829">
        <ele>274.39999389648</ele>
        <time>2021-03-27T13:41:22Z</time>
      </trkpt>
      <trkpt lat="44.43703" lon="1.48809">
        <ele>274.20001220703</ele>
        <time>2021-03-27T13:41:28Z</time>
      </trkpt>
      <trkpt lat="44.43703" lon="1.48799">
        <ele>273.39999389648</ele>
        <time>2021-03-27T13:41:32Z</time>
      </trkpt>
      <trkpt lat="44.43703" lon="1.48797">
        <ele>272.39999389648</ele>
        <time>2021-03-27T13:41:33Z</time>
      </trkpt>
      <trkpt lat="44.43702" lon="1.48795">
        <ele>272.20001220703</ele>
        <time>2021-03-27T13:41:34Z</time>
      </trkpt>
      <trkpt lat="44.43696" lon="1.48794">
        <ele>270.79998779297</ele>
        <time>2021-03-27T13:41:37Z</time>
      </trkpt>
      <trkpt lat="44.43692" lon="1.48798">
        <ele>269.60000610352</ele>
        <time>2021-03-27T13:41:40Z</time>
      </trkpt>
      <trkpt lat="44.4369" lon="1.48803">
        <ele>269</ele>
        <time>2021-03-27T13:41:43Z</time>
      </trkpt>
      <trkpt lat="44.43685" lon="1.48822">
        <ele>269.20001220703</ele>
        <time>2021-03-27T13:41:52Z</time>
      </trkpt>
      <trkpt lat="44.43684" lon="1.48831">
        <ele>270.60000610352</ele>
        <time>2021-03-27T13:41:56Z</time>
      </trkpt>
      <trkpt lat="44.43685" lon="1.48833">
        <ele>271</ele>
        <time>2021-03-27T13:41:57Z</time>
      </trkpt>
      <trkpt lat="44.43686" lon="1.48835">
        <ele>271.20001220703</ele>
        <time>2021-03-27T13:41:58Z</time>
      </trkpt>
      <trkpt lat="44.43688" lon="1.48836">
        <ele>272.39999389648</ele>
        <time>2021-03-27T13:42:00Z</time>
      </trkpt>
      <trkpt lat="44.43689" lon="1.48836">
        <ele>272.60000610352</ele>
        <time>2021-03-27T13:42:01Z</time>
      </trkpt>
      <trkpt lat="44.43693" lon="1.48841">
        <ele>274.79998779297</ele>
        <time>2021-03-27T13:43:49Z</time>
      </trkpt>
      <trkpt lat="44.43692" lon="1.48843">
        <ele>274.79998779297</ele>
        <time>2021-03-27T13:43:50Z</time>
      </trkpt>
      <trkpt lat="44.43687" lon="1.48852">
        <ele>275.20001220703</ele>
        <time>2021-03-27T13:43:57Z</time>
      </trkpt>
      <trkpt lat="44.43686" lon="1.48853">
        <ele>275.20001220703</ele>
        <time>2021-03-27T13:43:58Z</time>
      </trkpt>
      <trkpt lat="44.43685" lon="1.48854">
        <ele>275.39999389648</ele>
        <time>2021-03-27T13:43:59Z</time>
      </trkpt>
      <trkpt lat="44.43684" lon="1.48856">
        <ele>276.79998779297</ele>
        <time>2021-03-27T13:45:32Z</time>
      </trkpt>
      <trkpt lat="44.43684" lon="1.48858">
        <ele>276.79998779297</ele>
        <time>2021-03-27T13:45:33Z</time>
      </trkpt>
      <trkpt lat="44.43687" lon="1.48862">
        <ele>276.79998779297</ele>
        <time>2021-03-27T13:45:36Z</time>
      </trkpt>
      <trkpt lat="44.43696" lon="1.4886">
        <ele>277</ele>
        <time>2021-03-27T13:45:42Z</time>
      </trkpt>
      <trkpt lat="44.4371" lon="1.48856">
        <ele>277.39999389648</ele>
        <time>2021-03-27T13:45:48Z</time>
      </trkpt>
      <trkpt lat="44.43726" lon="1.48853">
        <ele>277.79998779297</ele>
        <time>2021-03-27T13:45:55Z</time>
      </trkpt>
      <trkpt lat="44.43733" lon="1.48852">
        <ele>278</ele>
        <time>2021-03-27T13:45:58Z</time>
      </trkpt>
      <trkpt lat="44.43743" lon="1.48849">
        <ele>278.39999389648</ele>
        <time>2021-03-27T13:46:03Z</time>
      </trkpt>
      <trkpt lat="44.4376" lon="1.48846">
        <ele>279.20001220703</ele>
        <time>2021-03-27T13:46:10Z</time>
      </trkpt>
      <trkpt lat="44.43764" lon="1.48844">
        <ele>279.60000610352</ele>
        <time>2021-03-27T13:46:12Z</time>
      </trkpt>
      <trkpt lat="44.43771" lon="1.48838">
        <ele>280.60000610352</ele>
        <time>2021-03-27T13:46:16Z</time>
      </trkpt>
      <trkpt lat="44.43776" lon="1.48835">
        <ele>281.20001220703</ele>
        <time>2021-03-27T13:46:19Z</time>
      </trkpt>
      <trkpt lat="44.43778" lon="1.48834">
        <ele>281.60000610352</ele>
        <time>2021-03-27T13:46:20Z</time>
      </trkpt>
      <trkpt lat="44.43789" lon="1.48829">
        <ele>282.79998779297</ele>
        <time>2021-03-27T13:46:25Z</time>
      </trkpt>
      <trkpt lat="44.43801" lon="1.48817">
        <ele>284</ele>
        <time>2021-03-27T13:46:31Z</time>
      </trkpt>
      <trkpt lat="44.43803" lon="1.48815">
        <ele>284.20001220703</ele>
        <time>2021-03-27T13:46:32Z</time>
      </trkpt>
      <trkpt lat="44.4381" lon="1.48808">
        <ele>285</ele>
        <time>2021-03-27T13:46:36Z</time>
      </trkpt>
      <trkpt lat="44.43814" lon="1.48804">
        <ele>285.20001220703</ele>
        <time>2021-03-27T13:46:38Z</time>
      </trkpt>
      <trkpt lat="44.43828" lon="1.48794">
        <ele>286.20001220703</ele>
        <time>2021-03-27T13:46:44Z</time>
      </trkpt>
      <trkpt lat="44.43832" lon="1.4879">
        <ele>286.60000610352</ele>
        <time>2021-03-27T13:46:46Z</time>
      </trkpt>
      <trkpt lat="44.43843" lon="1.48786">
        <ele>287.39999389648</ele>
        <time>2021-03-27T13:46:50Z</time>
      </trkpt>
      <trkpt lat="44.43848" lon="1.48787">
        <ele>287.60000610352</ele>
        <time>2021-03-27T13:46:52Z</time>
      </trkpt>
      <trkpt lat="44.4386" lon="1.48795">
        <ele>288.20001220703</ele>
        <time>2021-03-27T13:46:58Z</time>
      </trkpt>
      <trkpt lat="44.43864" lon="1.488">
        <ele>288.60000610352</ele>
        <time>2021-03-27T13:47:00Z</time>
      </trkpt>
      <trkpt lat="44.43873" lon="1.4881">
        <ele>289</ele>
        <time>2021-03-27T13:47:04Z</time>
      </trkpt>
      <trkpt lat="44.43888" lon="1.48831">
        <ele>289.20001220703</ele>
        <time>2021-03-27T13:47:10Z</time>
      </trkpt>
      <trkpt lat="44.43906" lon="1.48847">
        <ele>288.79998779297</ele>
        <time>2021-03-27T13:47:16Z</time>
      </trkpt>
      <trkpt lat="44.43917" lon="1.48849">
        <ele>288.39999389648</ele>
        <time>2021-03-27T13:47:20Z</time>
      </trkpt>
      <trkpt lat="44.43931" lon="1.48857">
        <ele>287.60000610352</ele>
        <time>2021-03-27T13:47:25Z</time>
      </trkpt>
      <trkpt lat="44.43935" lon="1.48858">
        <ele>287.39999389648</ele>
        <time>2021-03-27T13:47:26Z</time>
      </trkpt>
      <trkpt lat="44.43947" lon="1.48865">
        <ele>286.79998779297</ele>
        <time>2021-03-27T13:47:29Z</time>
      </trkpt>
      <trkpt lat="44.43956" lon="1.48869">
        <ele>286.39999389648</ele>
        <time>2021-03-27T13:47:31Z</time>
      </trkpt>
      <trkpt lat="44.43964" lon="1.48872">
        <ele>286.20001220703</ele>
        <time>2021-03-27T13:47:33Z</time>
      </trkpt>
      <trkpt lat="44.43973" lon="1.48878">
        <ele>285.79998779297</ele>
        <time>2021-03-27T13:47:35Z</time>
      </trkpt>
      <trkpt lat="44.43982" lon="1.48883">
        <ele>285</ele>
        <time>2021-03-27T13:47:37Z</time>
      </trkpt>
      <trkpt lat="44.4399" lon="1.48889">
        <ele>285</ele>
        <time>2021-03-27T13:47:39Z</time>
      </trkpt>
      <trkpt lat="44.43993" lon="1.48893">
        <ele>284.79998779297</ele>
        <time>2021-03-27T13:47:40Z</time>
      </trkpt>
      <trkpt lat="44.44" lon="1.48913">
        <ele>284.79998779297</ele>
        <time>2021-03-27T13:47:44Z</time>
      </trkpt>
      <trkpt lat="44.44006" lon="1.48933">
        <ele>285</ele>
        <time>2021-03-27T13:47:48Z</time>
      </trkpt>
      <trkpt lat="44.44007" lon="1.48938">
        <ele>285.20001220703</ele>
        <time>2021-03-27T13:47:49Z</time>
      </trkpt>
      <trkpt lat="44.44017" lon="1.4896">
        <ele>285.60000610352</ele>
        <time>2021-03-27T13:47:54Z</time>
      </trkpt>
      <trkpt lat="44.44022" lon="1.48967">
        <ele>286</ele>
        <time>2021-03-27T13:47:56Z</time>
      </trkpt>
      <trkpt lat="44.44026" lon="1.48967">
        <ele>286.20001220703</ele>
        <time>2021-03-27T13:47:58Z</time>
      </trkpt>
      <trkpt lat="44.44029" lon="1.48973">
        <ele>286.39999389648</ele>
        <time>2021-03-27T13:48:00Z</time>
      </trkpt>
      <trkpt lat="44.44029" lon="1.48977">
        <ele>286.60000610352</ele>
        <time>2021-03-27T13:48:01Z</time>
      </trkpt>
      <trkpt lat="44.44028" lon="1.48986">
        <ele>287</ele>
        <time>2021-03-27T13:48:03Z</time>
      </trkpt>
      <trkpt lat="44.44026" lon="1.49">
        <ele>287.60000610352</ele>
        <time>2021-03-27T13:48:06Z</time>
      </trkpt>
      <trkpt lat="44.44032" lon="1.49021">
        <ele>287.79998779297</ele>
        <time>2021-03-27T13:48:11Z</time>
      </trkpt>
      <trkpt lat="44.44042" lon="1.49044">
        <ele>288</ele>
        <time>2021-03-27T13:48:18Z</time>
      </trkpt>
      <trkpt lat="44.44047" lon="1.49058">
        <ele>288.60000610352</ele>
        <time>2021-03-27T13:48:22Z</time>
      </trkpt>
      <trkpt lat="44.44054" lon="1.49073">
        <ele>289.20001220703</ele>
        <time>2021-03-27T13:48:26Z</time>
      </trkpt>
      <trkpt lat="44.44056" lon="1.4908">
        <ele>289.60000610352</ele>
        <time>2021-03-27T13:48:28Z</time>
      </trkpt>
      <trkpt lat="44.44068" lon="1.49104">
        <ele>290</ele>
        <time>2021-03-27T13:48:34Z</time>
      </trkpt>
      <trkpt lat="44.44083" lon="1.49135">
        <ele>290.79998779297</ele>
        <time>2021-03-27T13:48:42Z</time>
      </trkpt>
      <trkpt lat="44.44084" lon="1.49139">
        <ele>290.79998779297</ele>
        <time>2021-03-27T13:48:43Z</time>
      </trkpt>
      <trkpt lat="44.44095" lon="1.49162">
        <ele>291.20001220703</ele>
        <time>2021-03-27T13:48:49Z</time>
      </trkpt>
      <trkpt lat="44.44106" lon="1.49189">
        <ele>291.79998779297</ele>
        <time>2021-03-27T13:48:56Z</time>
      </trkpt>
      <trkpt lat="44.44108" lon="1.49193">
        <ele>291.79998779297</ele>
        <time>2021-03-27T13:48:57Z</time>
      </trkpt>
      <trkpt lat="44.44116" lon="1.49214">
        <ele>292.39999389648</ele>
        <time>2021-03-27T13:49:03Z</time>
      </trkpt>
      <trkpt lat="44.44118" lon="1.49221">
        <ele>293</ele>
        <time>2021-03-27T13:49:05Z</time>
      </trkpt>
      <trkpt lat="44.44126" lon="1.49241">
        <ele>294</ele>
        <time>2021-03-27T13:49:11Z</time>
      </trkpt>
      <trkpt lat="44.44128" lon="1.49244">
        <ele>294.20001220703</ele>
        <time>2021-03-27T13:49:12Z</time>
      </trkpt>
      <trkpt lat="44.4414" lon="1.49265">
        <ele>294.60000610352</ele>
        <time>2021-03-27T13:49:18Z</time>
      </trkpt>
      <trkpt lat="44.44149" lon="1.49284">
        <ele>295</ele>
        <time>2021-03-27T13:49:24Z</time>
      </trkpt>
      <trkpt lat="44.4415" lon="1.49286">
        <ele>295</ele>
        <time>2021-03-27T13:49:25Z</time>
      </trkpt>
      <trkpt lat="44.44148" lon="1.49303">
        <ele>295.20001220703</ele>
        <time>2021-03-27T13:49:31Z</time>
      </trkpt>
      <trkpt lat="44.44147" lon="1.49323">
        <ele>295.20001220703</ele>
        <time>2021-03-27T13:49:36Z</time>
      </trkpt>
      <trkpt lat="44.44146" lon="1.49338">
        <ele>295.20001220703</ele>
        <time>2021-03-27T13:49:40Z</time>
      </trkpt>
      <trkpt lat="44.44144" lon="1.49347">
        <ele>295.39999389648</ele>
        <time>2021-03-27T13:49:42Z</time>
      </trkpt>
      <trkpt lat="44.44139" lon="1.49386">
        <ele>295.39999389648</ele>
        <time>2021-03-27T13:49:49Z</time>
      </trkpt>
      <trkpt lat="44.44137" lon="1.494">
        <ele>295.39999389648</ele>
        <time>2021-03-27T13:49:51Z</time>
      </trkpt>
      <trkpt lat="44.44136" lon="1.49425">
        <ele>295.39999389648</ele>
        <time>2021-03-27T13:49:54Z</time>
      </trkpt>
      <trkpt lat="44.44135" lon="1.4945">
        <ele>295.39999389648</ele>
        <time>2021-03-27T13:49:57Z</time>
      </trkpt>
      <trkpt lat="44.44135" lon="1.49469">
        <ele>295.20001220703</ele>
        <time>2021-03-27T13:49:59Z</time>
      </trkpt>
      <trkpt lat="44.44137" lon="1.49489">
        <ele>294.79998779297</ele>
        <time>2021-03-27T13:50:01Z</time>
      </trkpt>
      <trkpt lat="44.44137" lon="1.49498">
        <ele>294.39999389648</ele>
        <time>2021-03-27T13:50:02Z</time>
      </trkpt>
      <trkpt lat="44.44138" lon="1.49507">
        <ele>293.79998779297</ele>
        <time>2021-03-27T13:50:03Z</time>
      </trkpt>
      <trkpt lat="44.44138" lon="1.49516">
        <ele>293.20001220703</ele>
        <time>2021-03-27T13:50:04Z</time>
      </trkpt>
      <trkpt lat="44.44137" lon="1.49536">
        <ele>291.79998779297</ele>
        <time>2021-03-27T13:50:06Z</time>
      </trkpt>
      <trkpt lat="44.44137" lon="1.49548">
        <ele>291.39999389648</ele>
        <time>2021-03-27T13:50:07Z</time>
      </trkpt>
      <trkpt lat="44.44137" lon="1.49558">
        <ele>290.39999389648</ele>
        <time>2021-03-27T13:50:08Z</time>
      </trkpt>
      <trkpt lat="44.44136" lon="1.49568">
        <ele>289.39999389648</ele>
        <time>2021-03-27T13:50:09Z</time>
      </trkpt>
      <trkpt lat="44.44137" lon="1.49588">
        <ele>287.79998779297</ele>
        <time>2021-03-27T13:50:11Z</time>
      </trkpt>
      <trkpt lat="44.44139" lon="1.4961">
        <ele>285.79998779297</ele>
        <time>2021-03-27T13:50:13Z</time>
      </trkpt>
      <trkpt lat="44.4414" lon="1.49621">
        <ele>284.39999389648</ele>
        <time>2021-03-27T13:50:14Z</time>
      </trkpt>
      <trkpt lat="44.44141" lon="1.49633">
        <ele>283.39999389648</ele>
        <time>2021-03-27T13:50:15Z</time>
      </trkpt>
      <trkpt lat="44.44142" lon="1.49644">
        <ele>282.20001220703</ele>
        <time>2021-03-27T13:50:16Z</time>
      </trkpt>
      <trkpt lat="44.44145" lon="1.49664">
        <ele>280.79998779297</ele>
        <time>2021-03-27T13:50:18Z</time>
      </trkpt>
      <trkpt lat="44.44146" lon="1.49675">
        <ele>279.39999389648</ele>
        <time>2021-03-27T13:50:19Z</time>
      </trkpt>
      <trkpt lat="44.44148" lon="1.49684">
        <ele>277.79998779297</ele>
        <time>2021-03-27T13:50:20Z</time>
      </trkpt>
      <trkpt lat="44.4415" lon="1.49694">
        <ele>276.39999389648</ele>
        <time>2021-03-27T13:50:21Z</time>
      </trkpt>
      <trkpt lat="44.44152" lon="1.49705">
        <ele>275</ele>
        <time>2021-03-27T13:50:22Z</time>
      </trkpt>
      <trkpt lat="44.44154" lon="1.49715">
        <ele>273.79998779297</ele>
        <time>2021-03-27T13:50:23Z</time>
      </trkpt>
      <trkpt lat="44.44156" lon="1.49726">
        <ele>272.79998779297</ele>
        <time>2021-03-27T13:50:24Z</time>
      </trkpt>
      <trkpt lat="44.44157" lon="1.49737">
        <ele>270.60000610352</ele>
        <time>2021-03-27T13:50:25Z</time>
      </trkpt>
      <trkpt lat="44.4416" lon="1.49757">
        <ele>268.79998779297</ele>
        <time>2021-03-27T13:50:27Z</time>
      </trkpt>
      <trkpt lat="44.44161" lon="1.49766">
        <ele>267.39999389648</ele>
        <time>2021-03-27T13:50:28Z</time>
      </trkpt>
      <trkpt lat="44.44162" lon="1.49773">
        <ele>266.60000610352</ele>
        <time>2021-03-27T13:50:29Z</time>
      </trkpt>
      <trkpt lat="44.44161" lon="1.49779">
        <ele>265.60000610352</ele>
        <time>2021-03-27T13:50:30Z</time>
      </trkpt>
      <trkpt lat="44.44161" lon="1.49785">
        <ele>264.79998779297</ele>
        <time>2021-03-27T13:50:31Z</time>
      </trkpt>
      <trkpt lat="44.44162" lon="1.4979">
        <ele>263.60000610352</ele>
        <time>2021-03-27T13:50:32Z</time>
      </trkpt>
      <trkpt lat="44.44162" lon="1.49797">
        <ele>262.79998779297</ele>
        <time>2021-03-27T13:50:33Z</time>
      </trkpt>
      <trkpt lat="44.44163" lon="1.49803">
        <ele>262.20001220703</ele>
        <time>2021-03-27T13:50:34Z</time>
      </trkpt>
      <trkpt lat="44.44166" lon="1.49816">
        <ele>260.39999389648</ele>
        <time>2021-03-27T13:50:36Z</time>
      </trkpt>
      <trkpt lat="44.44168" lon="1.49829">
        <ele>259</ele>
        <time>2021-03-27T13:50:38Z</time>
      </trkpt>
      <trkpt lat="44.44167" lon="1.49845">
        <ele>258.39999389648</ele>
        <time>2021-03-27T13:50:40Z</time>
      </trkpt>
      <trkpt lat="44.44167" lon="1.49852">
        <ele>257.79998779297</ele>
        <time>2021-03-27T13:50:41Z</time>
      </trkpt>
      <trkpt lat="44.44166" lon="1.49857">
        <ele>257.20001220703</ele>
        <time>2021-03-27T13:50:42Z</time>
      </trkpt>
      <trkpt lat="44.44167" lon="1.49861">
        <ele>256.60000610352</ele>
        <time>2021-03-27T13:50:43Z</time>
      </trkpt>
      <trkpt lat="44.44169" lon="1.49869">
        <ele>254.80000305176</ele>
        <time>2021-03-27T13:50:45Z</time>
      </trkpt>
      <trkpt lat="44.4417" lon="1.49873">
        <ele>253.80000305176</ele>
        <time>2021-03-27T13:50:46Z</time>
      </trkpt>
      <trkpt lat="44.44172" lon="1.4988">
        <ele>251.60000610352</ele>
        <time>2021-03-27T13:50:48Z</time>
      </trkpt>
      <trkpt lat="44.44172" lon="1.49883">
        <ele>250.60000610352</ele>
        <time>2021-03-27T13:50:49Z</time>
      </trkpt>
      <trkpt lat="44.44173" lon="1.4989">
        <ele>249.19999694824</ele>
        <time>2021-03-27T13:50:51Z</time>
      </trkpt>
      <trkpt lat="44.44174" lon="1.49894">
        <ele>248</ele>
        <time>2021-03-27T13:50:52Z</time>
      </trkpt>
      <trkpt lat="44.44176" lon="1.49904">
        <ele>246.80000305176</ele>
        <time>2021-03-27T13:50:54Z</time>
      </trkpt>
      <trkpt lat="44.44176" lon="1.4991">
        <ele>246</ele>
        <time>2021-03-27T13:50:55Z</time>
      </trkpt>
      <trkpt lat="44.44177" lon="1.49916">
        <ele>245.39999389648</ele>
        <time>2021-03-27T13:50:56Z</time>
      </trkpt>
      <trkpt lat="44.44179" lon="1.49927">
        <ele>244.39999389648</ele>
        <time>2021-03-27T13:50:58Z</time>
      </trkpt>
      <trkpt lat="44.44179" lon="1.49933">
        <ele>244</ele>
        <time>2021-03-27T13:50:59Z</time>
      </trkpt>
      <trkpt lat="44.44178" lon="1.49938">
        <ele>243</ele>
        <time>2021-03-27T13:51:00Z</time>
      </trkpt>
      <trkpt lat="44.44178" lon="1.49943">
        <ele>242.19999694824</ele>
        <time>2021-03-27T13:51:01Z</time>
      </trkpt>
      <trkpt lat="44.44177" lon="1.49948">
        <ele>241</ele>
        <time>2021-03-27T13:51:02Z</time>
      </trkpt>
      <trkpt lat="44.44176" lon="1.49953">
        <ele>239.80000305176</ele>
        <time>2021-03-27T13:51:03Z</time>
      </trkpt>
      <trkpt lat="44.44175" lon="1.49958">
        <ele>238.60000610352</ele>
        <time>2021-03-27T13:51:04Z</time>
      </trkpt>
      <trkpt lat="44.44176" lon="1.49963">
        <ele>237.19999694824</ele>
        <time>2021-03-27T13:51:05Z</time>
      </trkpt>
      <trkpt lat="44.44177" lon="1.49969">
        <ele>236.19999694824</ele>
        <time>2021-03-27T13:51:06Z</time>
      </trkpt>
      <trkpt lat="44.44179" lon="1.49976">
        <ele>235</ele>
        <time>2021-03-27T13:51:07Z</time>
      </trkpt>
      <trkpt lat="44.4418" lon="1.49983">
        <ele>234</ele>
        <time>2021-03-27T13:51:08Z</time>
      </trkpt>
      <trkpt lat="44.44182" lon="1.49997">
        <ele>232</ele>
        <time>2021-03-27T13:51:10Z</time>
      </trkpt>
      <trkpt lat="44.44185" lon="1.50012">
        <ele>230.19999694824</ele>
        <time>2021-03-27T13:51:12Z</time>
      </trkpt>
      <trkpt lat="44.44185" lon="1.50019">
        <ele>229.39999389648</ele>
        <time>2021-03-27T13:51:13Z</time>
      </trkpt>
      <trkpt lat="44.44185" lon="1.50024">
        <ele>228.39999389648</ele>
        <time>2021-03-27T13:51:14Z</time>
      </trkpt>
      <trkpt lat="44.44184" lon="1.50032">
        <ele>226.60000610352</ele>
        <time>2021-03-27T13:51:16Z</time>
      </trkpt>
      <trkpt lat="44.44184" lon="1.50037">
        <ele>225.39999389648</ele>
        <time>2021-03-27T13:51:17Z</time>
      </trkpt>
      <trkpt lat="44.44184" lon="1.50042">
        <ele>223.80000305176</ele>
        <time>2021-03-27T13:51:18Z</time>
      </trkpt>
      <trkpt lat="44.44184" lon="1.50046">
        <ele>221.19999694824</ele>
        <time>2021-03-27T13:51:19Z</time>
      </trkpt>
      <trkpt lat="44.44184" lon="1.50049">
        <ele>220</ele>
        <time>2021-03-27T13:51:20Z</time>
      </trkpt>
      <trkpt lat="44.44184" lon="1.50051">
        <ele>219.19999694824</ele>
        <time>2021-03-27T13:51:21Z</time>
      </trkpt>
      <trkpt lat="44.44186" lon="1.50055">
        <ele>213.60000610352</ele>
        <time>2021-03-27T13:51:31Z</time>
      </trkpt>
      <trkpt lat="44.44189" lon="1.50066">
        <ele>213.60000610352</ele>
        <time>2021-03-27T13:51:34Z</time>
      </trkpt>
      <trkpt lat="44.44187" lon="1.50086">
        <ele>213.39999389648</ele>
        <time>2021-03-27T13:51:38Z</time>
      </trkpt>
      <trkpt lat="44.44186" lon="1.50091">
        <ele>213.39999389648</ele>
        <time>2021-03-27T13:51:39Z</time>
      </trkpt>
      <trkpt lat="44.44182" lon="1.50101">
        <ele>212.80000305176</ele>
        <time>2021-03-27T13:51:41Z</time>
      </trkpt>
      <trkpt lat="44.44182" lon="1.50106">
        <ele>212.19999694824</ele>
        <time>2021-03-27T13:51:42Z</time>
      </trkpt>
      <trkpt lat="44.44183" lon="1.50116">
        <ele>210.60000610352</ele>
        <time>2021-03-27T13:51:44Z</time>
      </trkpt>
      <trkpt lat="44.44185" lon="1.5012">
        <ele>209.80000305176</ele>
        <time>2021-03-27T13:51:45Z</time>
      </trkpt>
      <trkpt lat="44.44186" lon="1.50126">
        <ele>209.19999694824</ele>
        <time>2021-03-27T13:51:46Z</time>
      </trkpt>
      <trkpt lat="44.44185" lon="1.50131">
        <ele>207.80000305176</ele>
        <time>2021-03-27T13:51:47Z</time>
      </trkpt>
      <trkpt lat="44.44185" lon="1.50141">
        <ele>206.39999389648</ele>
        <time>2021-03-27T13:51:49Z</time>
      </trkpt>
      <trkpt lat="44.44186" lon="1.50151">
        <ele>205</ele>
        <time>2021-03-27T13:51:51Z</time>
      </trkpt>
      <trkpt lat="44.44187" lon="1.50159">
        <ele>203.39999389648</ele>
        <time>2021-03-27T13:51:53Z</time>
      </trkpt>
      <trkpt lat="44.44188" lon="1.50164">
        <ele>202.60000610352</ele>
        <time>2021-03-27T13:51:54Z</time>
      </trkpt>
      <trkpt lat="44.4419" lon="1.50169">
        <ele>201.60000610352</ele>
        <time>2021-03-27T13:51:55Z</time>
      </trkpt>
      <trkpt lat="44.4419" lon="1.50173">
        <ele>200.80000305176</ele>
        <time>2021-03-27T13:51:56Z</time>
      </trkpt>
      <trkpt lat="44.4419" lon="1.50179">
        <ele>200</ele>
        <time>2021-03-27T13:51:57Z</time>
      </trkpt>
      <trkpt lat="44.44188" lon="1.50191">
        <ele>198.60000610352</ele>
        <time>2021-03-27T13:51:59Z</time>
      </trkpt>
      <trkpt lat="44.44188" lon="1.50198">
        <ele>197.80000305176</ele>
        <time>2021-03-27T13:52:00Z</time>
      </trkpt>
      <trkpt lat="44.44186" lon="1.50204">
        <ele>197.19999694824</ele>
        <time>2021-03-27T13:52:01Z</time>
      </trkpt>
      <trkpt lat="44.44183" lon="1.50215">
        <ele>195.39999389648</ele>
        <time>2021-03-27T13:52:03Z</time>
      </trkpt>
      <trkpt lat="44.44181" lon="1.5022">
        <ele>194.19999694824</ele>
        <time>2021-03-27T13:52:04Z</time>
      </trkpt>
      <trkpt lat="44.44178" lon="1.50227">
        <ele>192.80000305176</ele>
        <time>2021-03-27T13:52:06Z</time>
      </trkpt>
      <trkpt lat="44.44175" lon="1.50234">
        <ele>190.80000305176</ele>
        <time>2021-03-27T13:52:08Z</time>
      </trkpt>
      <trkpt lat="44.44172" lon="1.50242">
        <ele>189.19999694824</ele>
        <time>2021-03-27T13:52:10Z</time>
      </trkpt>
      <trkpt lat="44.44171" lon="1.50246">
        <ele>188.60000610352</ele>
        <time>2021-03-27T13:52:11Z</time>
      </trkpt>
      <trkpt lat="44.44172" lon="1.50252">
        <ele>188.19999694824</ele>
        <time>2021-03-27T13:52:12Z</time>
      </trkpt>
      <trkpt lat="44.44173" lon="1.50257">
        <ele>187.60000610352</ele>
        <time>2021-03-27T13:52:13Z</time>
      </trkpt>
      <trkpt lat="44.44175" lon="1.50268">
        <ele>185.80000305176</ele>
        <time>2021-03-27T13:52:15Z</time>
      </trkpt>
      <trkpt lat="44.44176" lon="1.50275">
        <ele>185.19999694824</ele>
        <time>2021-03-27T13:52:16Z</time>
      </trkpt>
      <trkpt lat="44.44176" lon="1.50281">
        <ele>184.60000610352</ele>
        <time>2021-03-27T13:52:17Z</time>
      </trkpt>
      <trkpt lat="44.44176" lon="1.50294">
        <ele>183.39999389648</ele>
        <time>2021-03-27T13:52:19Z</time>
      </trkpt>
      <trkpt lat="44.44177" lon="1.50304">
        <ele>182.60000610352</ele>
        <time>2021-03-27T13:52:21Z</time>
      </trkpt>
      <trkpt lat="44.44177" lon="1.50315">
        <ele>182.19999694824</ele>
        <time>2021-03-27T13:52:23Z</time>
      </trkpt>
      <trkpt lat="44.44178" lon="1.50325">
        <ele>180.80000305176</ele>
        <time>2021-03-27T13:52:25Z</time>
      </trkpt>
      <trkpt lat="44.44178" lon="1.50328">
        <ele>180.39999389648</ele>
        <time>2021-03-27T13:52:26Z</time>
      </trkpt>
      <trkpt lat="44.44175" lon="1.50334">
        <ele>179.80000305176</ele>
        <time>2021-03-27T13:52:28Z</time>
      </trkpt>
      <trkpt lat="44.44174" lon="1.50342">
        <ele>178.60000610352</ele>
        <time>2021-03-27T13:52:30Z</time>
      </trkpt>
      <trkpt lat="44.44174" lon="1.50353">
        <ele>177.60000610352</ele>
        <time>2021-03-27T13:52:32Z</time>
      </trkpt>
      <trkpt lat="44.44174" lon="1.50365">
        <ele>176.60000610352</ele>
        <time>2021-03-27T13:52:34Z</time>
      </trkpt>
      <trkpt lat="44.44174" lon="1.50371">
        <ele>176</ele>
        <time>2021-03-27T13:52:35Z</time>
      </trkpt>
      <trkpt lat="44.44174" lon="1.50378">
        <ele>175.39999389648</ele>
        <time>2021-03-27T13:52:36Z</time>
      </trkpt>
      <trkpt lat="44.44177" lon="1.5039">
        <ele>174.39999389648</ele>
        <time>2021-03-27T13:52:38Z</time>
      </trkpt>
      <trkpt lat="44.44178" lon="1.50394">
        <ele>174</ele>
        <time>2021-03-27T13:52:39Z</time>
      </trkpt>
      <trkpt lat="44.44182" lon="1.504">
        <ele>173.19999694824</ele>
        <time>2021-03-27T13:52:41Z</time>
      </trkpt>
      <trkpt lat="44.44183" lon="1.50404">
        <ele>172.80000305176</ele>
        <time>2021-03-27T13:52:42Z</time>
      </trkpt>
      <trkpt lat="44.44183" lon="1.50408">
        <ele>171.80000305176</ele>
        <time>2021-03-27T13:52:43Z</time>
      </trkpt>
      <trkpt lat="44.44189" lon="1.50418">
        <ele>171</ele>
        <time>2021-03-27T13:52:46Z</time>
      </trkpt>
      <trkpt lat="44.44195" lon="1.50418">
        <ele>170.80000305176</ele>
        <time>2021-03-27T13:52:48Z</time>
      </trkpt>
      <trkpt lat="44.44197" lon="1.50418">
        <ele>170.60000610352</ele>
        <time>2021-03-27T13:52:49Z</time>
      </trkpt>
      <trkpt lat="44.442" lon="1.50418">
        <ele>170.19999694824</ele>
        <time>2021-03-27T13:52:50Z</time>
      </trkpt>
      <trkpt lat="44.44202" lon="1.50419">
        <ele>170</ele>
        <time>2021-03-27T13:52:51Z</time>
      </trkpt>
      <trkpt lat="44.44207" lon="1.50421">
        <ele>169.60000610352</ele>
        <time>2021-03-27T13:52:53Z</time>
      </trkpt>
      <trkpt lat="44.44211" lon="1.50424">
        <ele>168.39999389648</ele>
        <time>2021-03-27T13:52:55Z</time>
      </trkpt>
      <trkpt lat="44.44216" lon="1.50427">
        <ele>167.19999694824</ele>
        <time>2021-03-27T13:52:58Z</time>
      </trkpt>
      <trkpt lat="44.44221" lon="1.50427">
        <ele>166</ele>
        <time>2021-03-27T13:53:00Z</time>
      </trkpt>
      <trkpt lat="44.44228" lon="1.50427">
        <ele>164.80000305176</ele>
        <time>2021-03-27T13:53:02Z</time>
      </trkpt>
      <trkpt lat="44.44229" lon="1.50429">
        <ele>164.19999694824</ele>
        <time>2021-03-27T13:53:03Z</time>
      </trkpt>
      <trkpt lat="44.44231" lon="1.50432">
        <ele>163.39999389648</ele>
        <time>2021-03-27T13:53:04Z</time>
      </trkpt>
      <trkpt lat="44.44233" lon="1.5044">
        <ele>162.39999389648</ele>
        <time>2021-03-27T13:53:06Z</time>
      </trkpt>
      <trkpt lat="44.44235" lon="1.50444">
        <ele>161.60000610352</ele>
        <time>2021-03-27T13:53:07Z</time>
      </trkpt>
      <trkpt lat="44.44235" lon="1.50449">
        <ele>160.80000305176</ele>
        <time>2021-03-27T13:53:08Z</time>
      </trkpt>
      <trkpt lat="44.44236" lon="1.50454">
        <ele>159.39999389648</ele>
        <time>2021-03-27T13:53:09Z</time>
      </trkpt>
      <trkpt lat="44.44236" lon="1.50459">
        <ele>157.60000610352</ele>
        <time>2021-03-27T13:53:10Z</time>
      </trkpt>
      <trkpt lat="44.44236" lon="1.50468">
        <ele>156.39999389648</ele>
        <time>2021-03-27T13:53:12Z</time>
      </trkpt>
      <trkpt lat="44.44246" lon="1.50471">
        <ele>155.39999389648</ele>
        <time>2021-03-27T13:55:41Z</time>
      </trkpt>
      <trkpt lat="44.44247" lon="1.50472">
        <ele>155.39999389648</ele>
        <time>2021-03-27T13:55:42Z</time>
      </trkpt>
      <trkpt lat="44.44252" lon="1.50474">
        <ele>155.39999389648</ele>
        <time>2021-03-27T13:55:44Z</time>
      </trkpt>
      <trkpt lat="44.44258" lon="1.50478">
        <ele>155.39999389648</ele>
        <time>2021-03-27T13:55:47Z</time>
      </trkpt>
      <trkpt lat="44.44275" lon="1.50483">
        <ele>155.19999694824</ele>
        <time>2021-03-27T13:55:53Z</time>
      </trkpt>
      <trkpt lat="44.44297" lon="1.50489">
        <ele>154.60000610352</ele>
        <time>2021-03-27T13:56:00Z</time>
      </trkpt>
      <trkpt lat="44.44325" lon="1.50497">
        <ele>155</ele>
        <time>2021-03-27T13:56:07Z</time>
      </trkpt>
      <trkpt lat="44.44365" lon="1.50507">
        <ele>154.80000305176</ele>
        <time>2021-03-27T13:56:16Z</time>
      </trkpt>
      <trkpt lat="44.44374" lon="1.50509">
        <ele>154.39999389648</ele>
        <time>2021-03-27T13:56:18Z</time>
      </trkpt>
      <trkpt lat="44.44402" lon="1.50516">
        <ele>154.19999694824</ele>
        <time>2021-03-27T13:56:24Z</time>
      </trkpt>
      <trkpt lat="44.44431" lon="1.50522">
        <ele>154</ele>
        <time>2021-03-27T13:56:31Z</time>
      </trkpt>
      <trkpt lat="44.44436" lon="1.50522">
        <ele>153.60000610352</ele>
        <time>2021-03-27T13:56:34Z</time>
      </trkpt>
      <trkpt lat="44.44437" lon="1.5052">
        <ele>153.60000610352</ele>
        <time>2021-03-27T13:56:35Z</time>
      </trkpt>
      <trkpt lat="44.44437" lon="1.50518">
        <ele>153.39999389648</ele>
        <time>2021-03-27T13:56:36Z</time>
      </trkpt>
      <trkpt lat="44.44434" lon="1.50518">
        <ele>153.19999694824</ele>
        <time>2021-03-27T13:56:38Z</time>
      </trkpt>
      <trkpt lat="44.44425" lon="1.50519">
        <ele>153.19999694824</ele>
        <time>2021-03-27T13:56:43Z</time>
      </trkpt>
      <trkpt lat="44.44424" lon="1.50516">
        <ele>153.19999694824</ele>
        <time>2021-03-27T13:56:46Z</time>
      </trkpt>
      <trkpt lat="44.44424" lon="1.50515">
        <ele>153.19999694824</ele>
        <time>2021-03-27T13:56:47Z</time>
      </trkpt>
      <trkpt lat="44.44434" lon="1.50513">
        <ele>153.19999694824</ele>
        <time>2021-03-27T13:56:51Z</time>
      </trkpt>
      <trkpt lat="44.44453" lon="1.5051">
        <ele>153.39999389648</ele>
        <time>2021-03-27T13:56:55Z</time>
      </trkpt>
      <trkpt lat="44.44464" lon="1.50511">
        <ele>153.39999389648</ele>
        <time>2021-03-27T13:56:57Z</time>
      </trkpt>
      <trkpt lat="44.44476" lon="1.50513">
        <ele>153.39999389648</ele>
        <time>2021-03-27T13:56:59Z</time>
      </trkpt>
      <trkpt lat="44.44495" lon="1.50508">
        <ele>153</ele>
        <time>2021-03-27T13:57:02Z</time>
      </trkpt>
      <trkpt lat="44.44501" lon="1.50506">
        <ele>152.80000305176</ele>
        <time>2021-03-27T13:57:03Z</time>
      </trkpt>
      <trkpt lat="44.44512" lon="1.50501">
        <ele>152</ele>
        <time>2021-03-27T13:57:05Z</time>
      </trkpt>
      <trkpt lat="44.44521" lon="1.50498">
        <ele>150.39999389648</ele>
        <time>2021-03-27T13:57:07Z</time>
      </trkpt>
      <trkpt lat="44.44531" lon="1.505">
        <ele>149.19999694824</ele>
        <time>2021-03-27T13:57:09Z</time>
      </trkpt>
      <trkpt lat="44.44536" lon="1.505">
        <ele>148.80000305176</ele>
        <time>2021-03-27T13:57:10Z</time>
      </trkpt>
      <trkpt lat="44.4454" lon="1.50498">
        <ele>148.60000610352</ele>
        <time>2021-03-27T13:57:11Z</time>
      </trkpt>
      <trkpt lat="44.44548" lon="1.50492">
        <ele>148</ele>
        <time>2021-03-27T13:57:14Z</time>
      </trkpt>
      <trkpt lat="44.44551" lon="1.50491">
        <ele>147.19999694824</ele>
        <time>2021-03-27T13:57:15Z</time>
      </trkpt>
      <trkpt lat="44.44553" lon="1.50492">
        <ele>146.19999694824</ele>
        <time>2021-03-27T13:57:16Z</time>
      </trkpt>
      <trkpt lat="44.44555" lon="1.50494">
        <ele>145.39999389648</ele>
        <time>2021-03-27T13:57:17Z</time>
      </trkpt>
      <trkpt lat="44.44558" lon="1.505">
        <ele>144.39999389648</ele>
        <time>2021-03-27T13:57:19Z</time>
      </trkpt>
      <trkpt lat="44.44558" lon="1.50503">
        <ele>144.19999694824</ele>
        <time>2021-03-27T13:57:20Z</time>
      </trkpt>
      <trkpt lat="44.44555" lon="1.50511">
        <ele>143.80000305176</ele>
        <time>2021-03-27T13:57:23Z</time>
      </trkpt>
      <trkpt lat="44.44551" lon="1.50515">
        <ele>143.60000610352</ele>
        <time>2021-03-27T13:57:25Z</time>
      </trkpt>
      <trkpt lat="44.44548" lon="1.50519">
        <ele>143.19999694824</ele>
        <time>2021-03-27T13:57:27Z</time>
      </trkpt>
      <trkpt lat="44.44542" lon="1.50527">
        <ele>142.80000305176</ele>
        <time>2021-03-27T13:57:30Z</time>
      </trkpt>
      <trkpt lat="44.44508" lon="1.50623">
        <ele>143</ele>
        <time>2021-03-27T13:57:50Z</time>
      </trkpt>
      <trkpt lat="44.44504" lon="1.50623">
        <ele>143</ele>
        <time>2021-03-27T13:57:54Z</time>
      </trkpt>
      <trkpt lat="44.44504" lon="1.50622">
        <ele>143.19999694824</ele>
        <time>2021-03-27T13:57:55Z</time>
      </trkpt>
      <trkpt lat="44.44504" lon="1.5062">
        <ele>143.19999694824</ele>
        <time>2021-03-27T13:57:56Z</time>
      </trkpt>
      <trkpt lat="44.44505" lon="1.50616">
        <ele>143.19999694824</ele>
        <time>2021-03-27T13:57:58Z</time>
      </trkpt>
      <trkpt lat="44.44497" lon="1.50612">
        <ele>143.39999389648</ele>
        <time>2021-03-27T13:58:50Z</time>
      </trkpt>
      <trkpt lat="44.44495" lon="1.50615">
        <ele>143.39999389648</ele>
        <time>2021-03-27T13:58:51Z</time>
      </trkpt>
      <trkpt lat="44.44484" lon="1.50625">
        <ele>143.39999389648</ele>
        <time>2021-03-27T13:58:56Z</time>
      </trkpt>
      <trkpt lat="44.44471" lon="1.50635">
        <ele>143.19999694824</ele>
        <time>2021-03-27T13:59:02Z</time>
      </trkpt>
      <trkpt lat="44.44467" lon="1.50653">
        <ele>143.19999694824</ele>
        <time>2021-03-27T13:59:07Z</time>
      </trkpt>
      <trkpt lat="44.44466" lon="1.50674">
        <ele>143.60000610352</ele>
        <time>2021-03-27T13:59:13Z</time>
      </trkpt>
      <trkpt lat="44.44467" lon="1.50678">
        <ele>143.60000610352</ele>
        <time>2021-03-27T13:59:14Z</time>
      </trkpt>
      <trkpt lat="44.44473" lon="1.50683">
        <ele>144.19999694824</ele>
        <time>2021-03-27T13:59:17Z</time>
      </trkpt>
      <trkpt lat="44.44478" lon="1.50685">
        <ele>144.39999389648</ele>
        <time>2021-03-27T13:59:19Z</time>
      </trkpt>
      <trkpt lat="44.44489" lon="1.50683">
        <ele>145.39999389648</ele>
        <time>2021-03-27T13:59:23Z</time>
      </trkpt>
      <trkpt lat="44.44501" lon="1.5068">
        <ele>145.80000305176</ele>
        <time>2021-03-27T13:59:28Z</time>
      </trkpt>
      <trkpt lat="44.44507" lon="1.50689">
        <ele>146</ele>
        <time>2021-03-27T13:59:32Z</time>
      </trkpt>
      <trkpt lat="44.44503" lon="1.50699">
        <ele>146.19999694824</ele>
        <time>2021-03-27T13:59:36Z</time>
      </trkpt>
      <trkpt lat="44.44499" lon="1.50705">
        <ele>146.60000610352</ele>
        <time>2021-03-27T13:59:39Z</time>
      </trkpt>
      <trkpt lat="44.44498" lon="1.50707">
        <ele>147.19999694824</ele>
        <time>2021-03-27T13:59:40Z</time>
      </trkpt>
      <trkpt lat="44.44496" lon="1.5071">
        <ele>147.80000305176</ele>
        <time>2021-03-27T13:59:41Z</time>
      </trkpt>
      <trkpt lat="44.44493" lon="1.50717">
        <ele>148.60000610352</ele>
        <time>2021-03-27T13:59:44Z</time>
      </trkpt>
      <trkpt lat="44.44492" lon="1.50719">
        <ele>148.80000305176</ele>
        <time>2021-03-27T13:59:45Z</time>
      </trkpt>
      <trkpt lat="44.44489" lon="1.50733">
        <ele>149.80000305176</ele>
        <time>2021-03-27T13:59:50Z</time>
      </trkpt>
      <trkpt lat="44.44488" lon="1.50737">
        <ele>150</ele>
        <time>2021-03-27T13:59:51Z</time>
      </trkpt>
      <trkpt lat="44.44483" lon="1.50754">
        <ele>150.80000305176</ele>
        <time>2021-03-27T13:59:57Z</time>
      </trkpt>
      <trkpt lat="44.44481" lon="1.5076">
        <ele>151</ele>
        <time>2021-03-27T13:59:59Z</time>
      </trkpt>
      <trkpt lat="44.44477" lon="1.50774">
        <ele>151.60000610352</ele>
        <time>2021-03-27T14:00:03Z</time>
      </trkpt>
      <trkpt lat="44.44473" lon="1.50792">
        <ele>152.39999389648</ele>
        <time>2021-03-27T14:00:08Z</time>
      </trkpt>
      <trkpt lat="44.44469" lon="1.50806">
        <ele>153.19999694824</ele>
        <time>2021-03-27T14:00:12Z</time>
      </trkpt>
      <trkpt lat="44.44469" lon="1.5081">
        <ele>153.39999389648</ele>
        <time>2021-03-27T14:00:13Z</time>
      </trkpt>
      <trkpt lat="44.44466" lon="1.5083">
        <ele>154.39999389648</ele>
        <time>2021-03-27T14:00:19Z</time>
      </trkpt>
      <trkpt lat="44.44463" lon="1.50849">
        <ele>155.60000610352</ele>
        <time>2021-03-27T14:00:24Z</time>
      </trkpt>
      <trkpt lat="44.44464" lon="1.50861">
        <ele>156</ele>
        <time>2021-03-27T14:00:27Z</time>
      </trkpt>
      <trkpt lat="44.44465" lon="1.50881">
        <ele>156.60000610352</ele>
        <time>2021-03-27T14:00:32Z</time>
      </trkpt>
      <trkpt lat="44.44469" lon="1.50896">
        <ele>157.80000305176</ele>
        <time>2021-03-27T14:00:36Z</time>
      </trkpt>
      <trkpt lat="44.44472" lon="1.50907">
        <ele>158</ele>
        <time>2021-03-27T14:00:39Z</time>
      </trkpt>
      <trkpt lat="44.44478" lon="1.50924">
        <ele>158.19999694824</ele>
        <time>2021-03-27T14:00:44Z</time>
      </trkpt>
      <trkpt lat="44.44479" lon="1.50933">
        <ele>158.80000305176</ele>
        <time>2021-03-27T14:00:47Z</time>
      </trkpt>
      <trkpt lat="44.4448" lon="1.50943">
        <ele>159.19999694824</ele>
        <time>2021-03-27T14:00:50Z</time>
      </trkpt>
      <trkpt lat="44.44481" lon="1.5095">
        <ele>159.80000305176</ele>
        <time>2021-03-27T14:00:53Z</time>
      </trkpt>
      <trkpt lat="44.44481" lon="1.50957">
        <ele>160.19999694824</ele>
        <time>2021-03-27T14:00:56Z</time>
      </trkpt>
      <trkpt lat="44.44482" lon="1.50962">
        <ele>160.80000305176</ele>
        <time>2021-03-27T14:00:58Z</time>
      </trkpt>
      <trkpt lat="44.44485" lon="1.50974">
        <ele>161.80000305176</ele>
        <time>2021-03-27T14:01:02Z</time>
      </trkpt>
      <trkpt lat="44.44486" lon="1.50977">
        <ele>161.80000305176</ele>
        <time>2021-03-27T14:01:03Z</time>
      </trkpt>
      <trkpt lat="44.44487" lon="1.50983">
        <ele>163</ele>
        <time>2021-03-27T14:01:05Z</time>
      </trkpt>
      <trkpt lat="44.4449" lon="1.5099">
        <ele>164.19999694824</ele>
        <time>2021-03-27T14:01:08Z</time>
      </trkpt>
      <trkpt lat="44.44491" lon="1.50993">
        <ele>164.39999389648</ele>
        <time>2021-03-27T14:01:09Z</time>
      </trkpt>
      <trkpt lat="44.44494" lon="1.51002">
        <ele>165.39999389648</ele>
        <time>2021-03-27T14:01:12Z</time>
      </trkpt>
      <trkpt lat="44.44495" lon="1.51013">
        <ele>166</ele>
        <time>2021-03-27T14:01:15Z</time>
      </trkpt>
      <trkpt lat="44.44495" lon="1.51019">
        <ele>166.60000610352</ele>
        <time>2021-03-27T14:01:17Z</time>
      </trkpt>
      <trkpt lat="44.44496" lon="1.51033">
        <ele>168</ele>
        <time>2021-03-27T14:01:21Z</time>
      </trkpt>
      <trkpt lat="44.44496" lon="1.51039">
        <ele>168.60000610352</ele>
        <time>2021-03-27T14:01:23Z</time>
      </trkpt>
      <trkpt lat="44.44495" lon="1.51043">
        <ele>169</ele>
        <time>2021-03-27T14:01:24Z</time>
      </trkpt>
      <trkpt lat="44.44489" lon="1.51052">
        <ele>170</ele>
        <time>2021-03-27T14:01:28Z</time>
      </trkpt>
      <trkpt lat="44.44482" lon="1.51059">
        <ele>171.80000305176</ele>
        <time>2021-03-27T14:01:32Z</time>
      </trkpt>
      <trkpt lat="44.44479" lon="1.51063">
        <ele>172.19999694824</ele>
        <time>2021-03-27T14:01:34Z</time>
      </trkpt>
      <trkpt lat="44.44477" lon="1.51066">
        <ele>173.19999694824</ele>
        <time>2021-03-27T14:01:36Z</time>
      </trkpt>
      <trkpt lat="44.44472" lon="1.5107">
        <ele>174</ele>
        <time>2021-03-27T14:01:39Z</time>
      </trkpt>
      <trkpt lat="44.44471" lon="1.51071">
        <ele>174.19999694824</ele>
        <time>2021-03-27T14:01:40Z</time>
      </trkpt>
      <trkpt lat="44.44465" lon="1.51078">
        <ele>175.39999389648</ele>
        <time>2021-03-27T14:01:45Z</time>
      </trkpt>
      <trkpt lat="44.44458" lon="1.51087">
        <ele>176.39999389648</ele>
        <time>2021-03-27T14:01:50Z</time>
      </trkpt>
      <trkpt lat="44.44456" lon="1.51088">
        <ele>176.80000305176</ele>
        <time>2021-03-27T14:01:51Z</time>
      </trkpt>
      <trkpt lat="44.44453" lon="1.51094">
        <ele>177.39999389648</ele>
        <time>2021-03-27T14:01:54Z</time>
      </trkpt>
      <trkpt lat="44.44449" lon="1.51102">
        <ele>178.39999389648</ele>
        <time>2021-03-27T14:01:58Z</time>
      </trkpt>
      <trkpt lat="44.44449" lon="1.51104">
        <ele>178.80000305176</ele>
        <time>2021-03-27T14:01:59Z</time>
      </trkpt>
      <trkpt lat="44.44443" lon="1.51111">
        <ele>180</ele>
        <time>2021-03-27T14:02:03Z</time>
      </trkpt>
      <trkpt lat="44.44443" lon="1.51112">
        <ele>180.19999694824</ele>
        <time>2021-03-27T14:02:04Z</time>
      </trkpt>
      <trkpt lat="44.44437" lon="1.51116">
        <ele>181</ele>
        <time>2021-03-27T14:02:07Z</time>
      </trkpt>
      <trkpt lat="44.44433" lon="1.5112">
        <ele>181.80000305176</ele>
        <time>2021-03-27T14:02:10Z</time>
      </trkpt>
      <trkpt lat="44.44432" lon="1.51122">
        <ele>182.19999694824</ele>
        <time>2021-03-27T14:02:11Z</time>
      </trkpt>
      <trkpt lat="44.44427" lon="1.51128">
        <ele>182.80000305176</ele>
        <time>2021-03-27T14:02:15Z</time>
      </trkpt>
      <trkpt lat="44.44426" lon="1.51132">
        <ele>183.39999389648</ele>
        <time>2021-03-27T14:02:17Z</time>
      </trkpt>
      <trkpt lat="44.4442" lon="1.51138">
        <ele>184.39999389648</ele>
        <time>2021-03-27T14:02:21Z</time>
      </trkpt>
      <trkpt lat="44.44419" lon="1.5114">
        <ele>184.80000305176</ele>
        <time>2021-03-27T14:02:22Z</time>
      </trkpt>
      <trkpt lat="44.44416" lon="1.51143">
        <ele>185.39999389648</ele>
        <time>2021-03-27T14:02:25Z</time>
      </trkpt>
      <trkpt lat="44.44414" lon="1.51147">
        <ele>186.19999694824</ele>
        <time>2021-03-27T14:02:27Z</time>
      </trkpt>
      <trkpt lat="44.44413" lon="1.51148">
        <ele>186.60000610352</ele>
        <time>2021-03-27T14:02:28Z</time>
      </trkpt>
      <trkpt lat="44.44412" lon="1.51154">
        <ele>187.60000610352</ele>
        <time>2021-03-27T14:02:31Z</time>
      </trkpt>
      <trkpt lat="44.44411" lon="1.51156">
        <ele>187.80000305176</ele>
        <time>2021-03-27T14:02:32Z</time>
      </trkpt>
      <trkpt lat="44.44409" lon="1.51162">
        <ele>188.60000610352</ele>
        <time>2021-03-27T14:02:35Z</time>
      </trkpt>
      <trkpt lat="44.44408" lon="1.51164">
        <ele>188.80000305176</ele>
        <time>2021-03-27T14:02:36Z</time>
      </trkpt>
      <trkpt lat="44.44404" lon="1.51171">
        <ele>190</ele>
        <time>2021-03-27T14:02:41Z</time>
      </trkpt>
      <trkpt lat="44.44404" lon="1.5117">
        <ele>190.39999389648</ele>
        <time>2021-03-27T14:02:42Z</time>
      </trkpt>
      <trkpt lat="44.44404" lon="1.51169">
        <ele>191</ele>
        <time>2021-03-27T14:02:45Z</time>
      </trkpt>
      <trkpt lat="44.44404" lon="1.51168">
        <ele>191</ele>
        <time>2021-03-27T14:02:46Z</time>
      </trkpt>
      <trkpt lat="44.44405" lon="1.51163">
        <ele>192.19999694824</ele>
        <time>2021-03-27T14:02:50Z</time>
      </trkpt>
      <trkpt lat="44.44404" lon="1.51154">
        <ele>193.39999389648</ele>
        <time>2021-03-27T14:02:55Z</time>
      </trkpt>
      <trkpt lat="44.44404" lon="1.5115">
        <ele>194.39999389648</ele>
        <time>2021-03-27T14:02:57Z</time>
      </trkpt>
      <trkpt lat="44.44404" lon="1.51148">
        <ele>194.60000610352</ele>
        <time>2021-03-27T14:02:58Z</time>
      </trkpt>
      <trkpt lat="44.44405" lon="1.51139">
        <ele>195.80000305176</ele>
        <time>2021-03-27T14:03:02Z</time>
      </trkpt>
      <trkpt lat="44.44406" lon="1.51132">
        <ele>196.39999389648</ele>
        <time>2021-03-27T14:03:05Z</time>
      </trkpt>
      <trkpt lat="44.44407" lon="1.51129">
        <ele>196.80000305176</ele>
        <time>2021-03-27T14:03:06Z</time>
      </trkpt>
      <trkpt lat="44.44407" lon="1.51122">
        <ele>197.60000610352</ele>
        <time>2021-03-27T14:03:09Z</time>
      </trkpt>
      <trkpt lat="44.44407" lon="1.5112">
        <ele>197.80000305176</ele>
        <time>2021-03-27T14:03:10Z</time>
      </trkpt>
      <trkpt lat="44.44406" lon="1.5111">
        <ele>199</ele>
        <time>2021-03-27T14:03:14Z</time>
      </trkpt>
      <trkpt lat="44.44404" lon="1.51104">
        <ele>199.80000305176</ele>
        <time>2021-03-27T14:03:16Z</time>
      </trkpt>
      <trkpt lat="44.44403" lon="1.51098">
        <ele>200.39999389648</ele>
        <time>2021-03-27T14:03:18Z</time>
      </trkpt>
      <trkpt lat="44.44399" lon="1.5109">
        <ele>201.60000610352</ele>
        <time>2021-03-27T14:03:21Z</time>
      </trkpt>
      <trkpt lat="44.44397" lon="1.51085">
        <ele>202.39999389648</ele>
        <time>2021-03-27T14:03:23Z</time>
      </trkpt>
      <trkpt lat="44.44397" lon="1.51082">
        <ele>203.19999694824</ele>
        <time>2021-03-27T14:03:24Z</time>
      </trkpt>
      <trkpt lat="44.44394" lon="1.51074">
        <ele>204.19999694824</ele>
        <time>2021-03-27T14:03:27Z</time>
      </trkpt>
      <trkpt lat="44.44393" lon="1.51072">
        <ele>204.60000610352</ele>
        <time>2021-03-27T14:03:28Z</time>
      </trkpt>
      <trkpt lat="44.44391" lon="1.51065">
        <ele>205.60000610352</ele>
        <time>2021-03-27T14:03:31Z</time>
      </trkpt>
      <trkpt lat="44.44389" lon="1.5106">
        <ele>206.19999694824</ele>
        <time>2021-03-27T14:03:33Z</time>
      </trkpt>
      <trkpt lat="44.44386" lon="1.51056">
        <ele>206.80000305176</ele>
        <time>2021-03-27T14:03:35Z</time>
      </trkpt>
      <trkpt lat="44.44385" lon="1.51056">
        <ele>207</ele>
        <time>2021-03-27T14:03:36Z</time>
      </trkpt>
      <trkpt lat="44.44383" lon="1.51057">
        <ele>207.80000305176</ele>
        <time>2021-03-27T14:03:38Z</time>
      </trkpt>
      <trkpt lat="44.44381" lon="1.5106">
        <ele>208.19999694824</ele>
        <time>2021-03-27T14:03:40Z</time>
      </trkpt>
      <trkpt lat="44.44379" lon="1.51068">
        <ele>209.39999389648</ele>
        <time>2021-03-27T14:03:44Z</time>
      </trkpt>
      <trkpt lat="44.44376" lon="1.51074">
        <ele>210.39999389648</ele>
        <time>2021-03-27T14:03:47Z</time>
      </trkpt>
      <trkpt lat="44.44374" lon="1.51081">
        <ele>211.60000610352</ele>
        <time>2021-03-27T14:03:50Z</time>
      </trkpt>
      <trkpt lat="44.44371" lon="1.51087">
        <ele>212.80000305176</ele>
        <time>2021-03-27T14:03:53Z</time>
      </trkpt>
      <trkpt lat="44.44369" lon="1.51095">
        <ele>214</ele>
        <time>2021-03-27T14:03:56Z</time>
      </trkpt>
      <trkpt lat="44.44368" lon="1.51098">
        <ele>214.39999389648</ele>
        <time>2021-03-27T14:03:57Z</time>
      </trkpt>
      <trkpt lat="44.44366" lon="1.51105">
        <ele>215.19999694824</ele>
        <time>2021-03-27T14:03:59Z</time>
      </trkpt>
      <trkpt lat="44.44362" lon="1.51121">
        <ele>215.80000305176</ele>
        <time>2021-03-27T14:04:03Z</time>
      </trkpt>
      <trkpt lat="44.44353" lon="1.51128">
        <ele>216</ele>
        <time>2021-03-27T14:04:08Z</time>
      </trkpt>
      <trkpt lat="44.44348" lon="1.51133">
        <ele>216.19999694824</ele>
        <time>2021-03-27T14:04:11Z</time>
      </trkpt>
      <trkpt lat="44.44346" lon="1.5114">
        <ele>216.60000610352</ele>
        <time>2021-03-27T14:04:14Z</time>
      </trkpt>
      <trkpt lat="44.44343" lon="1.51146">
        <ele>217.39999389648</ele>
        <time>2021-03-27T14:04:16Z</time>
      </trkpt>
      <trkpt lat="44.44339" lon="1.51162">
        <ele>218.80000305176</ele>
        <time>2021-03-27T14:04:20Z</time>
      </trkpt>
      <trkpt lat="44.44334" lon="1.51179">
        <ele>219.19999694824</ele>
        <time>2021-03-27T14:04:25Z</time>
      </trkpt>
      <trkpt lat="44.44331" lon="1.51184">
        <ele>219.80000305176</ele>
        <time>2021-03-27T14:04:27Z</time>
      </trkpt>
      <trkpt lat="44.44323" lon="1.51194">
        <ele>221</ele>
        <time>2021-03-27T14:04:31Z</time>
      </trkpt>
      <trkpt lat="44.44318" lon="1.51204">
        <ele>222.39999389648</ele>
        <time>2021-03-27T14:04:34Z</time>
      </trkpt>
      <trkpt lat="44.44314" lon="1.51212">
        <ele>223.39999389648</ele>
        <time>2021-03-27T14:04:36Z</time>
      </trkpt>
      <trkpt lat="44.44312" lon="1.51216">
        <ele>223.80000305176</ele>
        <time>2021-03-27T14:04:37Z</time>
      </trkpt>
      <trkpt lat="44.44308" lon="1.51224">
        <ele>224.60000610352</ele>
        <time>2021-03-27T14:04:39Z</time>
      </trkpt>
      <trkpt lat="44.44298" lon="1.51236">
        <ele>225.39999389648</ele>
        <time>2021-03-27T14:04:43Z</time>
      </trkpt>
      <trkpt lat="44.44297" lon="1.5124">
        <ele>225.60000610352</ele>
        <time>2021-03-27T14:04:44Z</time>
      </trkpt>
      <trkpt lat="44.4429" lon="1.5125">
        <ele>227.19999694824</ele>
        <time>2021-03-27T14:04:47Z</time>
      </trkpt>
      <trkpt lat="44.44286" lon="1.51258">
        <ele>228</ele>
        <time>2021-03-27T14:04:49Z</time>
      </trkpt>
      <trkpt lat="44.44283" lon="1.51266">
        <ele>228.39999389648</ele>
        <time>2021-03-27T14:04:51Z</time>
      </trkpt>
      <trkpt lat="44.44276" lon="1.51287">
        <ele>229.80000305176</ele>
        <time>2021-03-27T14:04:55Z</time>
      </trkpt>
      <trkpt lat="44.44274" lon="1.51301">
        <ele>231.19999694824</ele>
        <time>2021-03-27T14:04:58Z</time>
      </trkpt>
      <trkpt lat="44.44273" lon="1.5131">
        <ele>231.80000305176</ele>
        <time>2021-03-27T14:05:00Z</time>
      </trkpt>
      <trkpt lat="44.44272" lon="1.51319">
        <ele>232.39999389648</ele>
        <time>2021-03-27T14:05:02Z</time>
      </trkpt>
      <trkpt lat="44.44271" lon="1.51331">
        <ele>233.80000305176</ele>
        <time>2021-03-27T14:05:05Z</time>
      </trkpt>
      <trkpt lat="44.4427" lon="1.5134">
        <ele>234.80000305176</ele>
        <time>2021-03-27T14:05:07Z</time>
      </trkpt>
      <trkpt lat="44.4427" lon="1.51345">
        <ele>235.39999389648</ele>
        <time>2021-03-27T14:05:08Z</time>
      </trkpt>
      <trkpt lat="44.4427" lon="1.5135">
        <ele>236</ele>
        <time>2021-03-27T14:05:09Z</time>
      </trkpt>
      <trkpt lat="44.44267" lon="1.51362">
        <ele>237.39999389648</ele>
        <time>2021-03-27T14:05:12Z</time>
      </trkpt>
      <trkpt lat="44.44266" lon="1.51371">
        <ele>238.60000610352</ele>
        <time>2021-03-27T14:05:14Z</time>
      </trkpt>
      <trkpt lat="44.44267" lon="1.51375">
        <ele>239.19999694824</ele>
        <time>2021-03-27T14:05:15Z</time>
      </trkpt>
      <trkpt lat="44.44269" lon="1.51378">
        <ele>239.60000610352</ele>
        <time>2021-03-27T14:05:16Z</time>
      </trkpt>
      <trkpt lat="44.44272" lon="1.51381">
        <ele>240.19999694824</ele>
        <time>2021-03-27T14:05:17Z</time>
      </trkpt>
      <trkpt lat="44.44274" lon="1.51386">
        <ele>241.19999694824</ele>
        <time>2021-03-27T14:05:19Z</time>
      </trkpt>
      <trkpt lat="44.44273" lon="1.51388">
        <ele>241.60000610352</ele>
        <time>2021-03-27T14:05:20Z</time>
      </trkpt>
      <trkpt lat="44.44272" lon="1.51391">
        <ele>242.39999389648</ele>
        <time>2021-03-27T14:05:22Z</time>
      </trkpt>
      <trkpt lat="44.44261" lon="1.51396">
        <ele>244.80000305176</ele>
        <time>2021-03-27T14:07:37Z</time>
      </trkpt>
      <trkpt lat="44.44258" lon="1.51399">
        <ele>244.80000305176</ele>
        <time>2021-03-27T14:07:39Z</time>
      </trkpt>
      <trkpt lat="44.44249" lon="1.51409">
        <ele>244.80000305176</ele>
        <time>2021-03-27T14:07:44Z</time>
      </trkpt>
      <trkpt lat="44.44248" lon="1.5141">
        <ele>244.80000305176</ele>
        <time>2021-03-27T14:07:45Z</time>
      </trkpt>
      <trkpt lat="44.44244" lon="1.51412">
        <ele>244.80000305176</ele>
        <time>2021-03-27T14:07:48Z</time>
      </trkpt>
      <trkpt lat="44.44246" lon="1.5141">
        <ele>244.60000610352</ele>
        <time>2021-03-27T14:09:09Z</time>
      </trkpt>
      <trkpt lat="44.44247" lon="1.51409">
        <ele>244.60000610352</ele>
        <time>2021-03-27T14:09:10Z</time>
      </trkpt>
      <trkpt lat="44.44254" lon="1.51399">
        <ele>244.80000305176</ele>
        <time>2021-03-27T14:09:15Z</time>
      </trkpt>
      <trkpt lat="44.44254" lon="1.51396">
        <ele>244.80000305176</ele>
        <time>2021-03-27T14:09:16Z</time>
      </trkpt>
      <trkpt lat="44.44255" lon="1.51394">
        <ele>244.80000305176</ele>
        <time>2021-03-27T14:09:17Z</time>
      </trkpt>
      <trkpt lat="44.44253" lon="1.51398">
        <ele>244.60000610352</ele>
        <time>2021-03-27T14:10:59Z</time>
      </trkpt>
      <trkpt lat="44.44252" lon="1.51399">
        <ele>244.60000610352</ele>
        <time>2021-03-27T14:11:00Z</time>
      </trkpt>
      <trkpt lat="44.44242" lon="1.51406">
        <ele>244.80000305176</ele>
        <time>2021-03-27T14:11:05Z</time>
      </trkpt>
      <trkpt lat="44.44231" lon="1.51407">
        <ele>244.80000305176</ele>
        <time>2021-03-27T14:11:09Z</time>
      </trkpt>
      <trkpt lat="44.44222" lon="1.5141">
        <ele>245</ele>
        <time>2021-03-27T14:11:12Z</time>
      </trkpt>
      <trkpt lat="44.44213" lon="1.51413">
        <ele>245</ele>
        <time>2021-03-27T14:11:14Z</time>
      </trkpt>
      <trkpt lat="44.44199" lon="1.51413">
        <ele>245</ele>
        <time>2021-03-27T14:11:17Z</time>
      </trkpt>
      <trkpt lat="44.44193" lon="1.51412">
        <ele>244.80000305176</ele>
        <time>2021-03-27T14:11:18Z</time>
      </trkpt>
      <trkpt lat="44.44173" lon="1.51407">
        <ele>243.60000610352</ele>
        <time>2021-03-27T14:11:22Z</time>
      </trkpt>
      <trkpt lat="44.44164" lon="1.51411">
        <ele>242.60000610352</ele>
        <time>2021-03-27T14:11:24Z</time>
      </trkpt>
      <trkpt lat="44.44157" lon="1.51412">
        <ele>241.60000610352</ele>
        <time>2021-03-27T14:11:26Z</time>
      </trkpt>
      <trkpt lat="44.44155" lon="1.51411">
        <ele>241.19999694824</ele>
        <time>2021-03-27T14:11:27Z</time>
      </trkpt>
      <trkpt lat="44.44147" lon="1.51409">
        <ele>239.80000305176</ele>
        <time>2021-03-27T14:11:30Z</time>
      </trkpt>
      <trkpt lat="44.44141" lon="1.51409">
        <ele>238.60000610352</ele>
        <time>2021-03-27T14:11:32Z</time>
      </trkpt>
      <trkpt lat="44.44132" lon="1.51406">
        <ele>237.39999389648</ele>
        <time>2021-03-27T14:11:35Z</time>
      </trkpt>
      <trkpt lat="44.44125" lon="1.51405">
        <ele>237.19999694824</ele>
        <time>2021-03-27T14:11:37Z</time>
      </trkpt>
      <trkpt lat="44.44114" lon="1.51404">
        <ele>237.19999694824</ele>
        <time>2021-03-27T14:11:41Z</time>
      </trkpt>
      <trkpt lat="44.44105" lon="1.51409">
        <ele>237.39999389648</ele>
        <time>2021-03-27T14:11:44Z</time>
      </trkpt>
      <trkpt lat="44.44097" lon="1.51414">
        <ele>237.60000610352</ele>
        <time>2021-03-27T14:11:46Z</time>
      </trkpt>
      <trkpt lat="44.44082" lon="1.51423">
        <ele>237.60000610352</ele>
        <time>2021-03-27T14:11:51Z</time>
      </trkpt>
      <trkpt lat="44.44066" lon="1.51436">
        <ele>237.39999389648</ele>
        <time>2021-03-27T14:11:57Z</time>
      </trkpt>
      <trkpt lat="44.44062" lon="1.51438">
        <ele>237.19999694824</ele>
        <time>2021-03-27T14:11:59Z</time>
      </trkpt>
      <trkpt lat="44.44058" lon="1.51439">
        <ele>237.39999389648</ele>
        <time>2021-03-27T14:12:06Z</time>
      </trkpt>
      <trkpt lat="44.44057" lon="1.51441">
        <ele>238</ele>
        <time>2021-03-27T14:12:08Z</time>
      </trkpt>
      <trkpt lat="44.44056" lon="1.51442">
        <ele>238.39999389648</ele>
        <time>2021-03-27T14:12:10Z</time>
      </trkpt>
      <trkpt lat="44.44054" lon="1.51443">
        <ele>238.80000305176</ele>
        <time>2021-03-27T14:12:23Z</time>
      </trkpt>
      <trkpt lat="44.44054" lon="1.51443">
        <ele>238.80000305176</ele>
        <time>2021-03-27T14:12:24Z</time>
      </trkpt>
      <trkpt lat="44.44053" lon="1.51443">
        <ele>238.80000305176</ele>
        <time>2021-03-27T14:12:25Z</time>
      </trkpt>
      <trkpt lat="44.4405" lon="1.51443">
        <ele>239</ele>
        <time>2021-03-27T14:12:27Z</time>
      </trkpt>
      <trkpt lat="44.44043" lon="1.51446">
        <ele>239</ele>
        <time>2021-03-27T14:12:32Z</time>
      </trkpt>
      <trkpt lat="44.44041" lon="1.51448">
        <ele>240</ele>
        <time>2021-03-27T14:12:44Z</time>
      </trkpt>
      <trkpt lat="44.4404" lon="1.51448">
        <ele>240</ele>
        <time>2021-03-27T14:12:45Z</time>
      </trkpt>
      <trkpt lat="44.44038" lon="1.51449">
        <ele>240</ele>
        <time>2021-03-27T14:12:52Z</time>
      </trkpt>
      <trkpt lat="44.44042" lon="1.51449">
        <ele>240.39999389648</ele>
        <time>2021-03-27T14:13:01Z</time>
      </trkpt>
      <trkpt lat="44.4405" lon="1.51448">
        <ele>240.60000610352</ele>
        <time>2021-03-27T14:13:12Z</time>
      </trkpt>
      <trkpt lat="44.44055" lon="1.51445">
        <ele>239.60000610352</ele>
        <time>2021-03-27T14:13:19Z</time>
      </trkpt>
      <trkpt lat="44.44055" lon="1.51445">
        <ele>239.39999389648</ele>
        <time>2021-03-27T14:13:20Z</time>
      </trkpt>
      <trkpt lat="44.44056" lon="1.51445">
        <ele>239.39999389648</ele>
        <time>2021-03-27T14:13:21Z</time>
      </trkpt>
      <trkpt lat="44.44058" lon="1.51443">
        <ele>238</ele>
        <time>2021-03-27T14:13:31Z</time>
      </trkpt>
      <trkpt lat="44.4406" lon="1.51442">
        <ele>237.80000305176</ele>
        <time>2021-03-27T14:13:33Z</time>
      </trkpt>
      <trkpt lat="44.44062" lon="1.51439">
        <ele>237.60000610352</ele>
        <time>2021-03-27T14:13:41Z</time>
      </trkpt>
      <trkpt lat="44.44063" lon="1.51438">
        <ele>237.39999389648</ele>
        <time>2021-03-27T14:13:42Z</time>
      </trkpt>
      <trkpt lat="44.44072" lon="1.51436">
        <ele>237</ele>
        <time>2021-03-27T14:13:58Z</time>
      </trkpt>
      <trkpt lat="44.44074" lon="1.51441">
        <ele>237</ele>
        <time>2021-03-27T14:14:01Z</time>
      </trkpt>
      <trkpt lat="44.44075" lon="1.51446">
        <ele>237</ele>
        <time>2021-03-27T14:14:03Z</time>
      </trkpt>
      <trkpt lat="44.44075" lon="1.51451">
        <ele>237</ele>
        <time>2021-03-27T14:14:05Z</time>
      </trkpt>
      <trkpt lat="44.44075" lon="1.51452">
        <ele>236.60000610352</ele>
        <time>2021-03-27T14:14:06Z</time>
      </trkpt>
      <trkpt lat="44.44074" lon="1.51454">
        <ele>236.39999389648</ele>
        <time>2021-03-27T14:14:07Z</time>
      </trkpt>
      <trkpt lat="44.44072" lon="1.51455">
        <ele>235.60000610352</ele>
        <time>2021-03-27T14:14:08Z</time>
      </trkpt>
      <trkpt lat="44.44067" lon="1.51461">
        <ele>234.39999389648</ele>
        <time>2021-03-27T14:14:10Z</time>
      </trkpt>
      <trkpt lat="44.44064" lon="1.51464">
        <ele>233.80000305176</ele>
        <time>2021-03-27T14:14:11Z</time>
      </trkpt>
      <trkpt lat="44.44061" lon="1.51467">
        <ele>233.19999694824</ele>
        <time>2021-03-27T14:14:12Z</time>
      </trkpt>
      <trkpt lat="44.44058" lon="1.5147">
        <ele>232.60000610352</ele>
        <time>2021-03-27T14:14:13Z</time>
      </trkpt>
      <trkpt lat="44.44056" lon="1.51473">
        <ele>232</ele>
        <time>2021-03-27T14:14:14Z</time>
      </trkpt>
      <trkpt lat="44.44053" lon="1.51478">
        <ele>231</ele>
        <time>2021-03-27T14:14:16Z</time>
      </trkpt>
      <trkpt lat="44.44052" lon="1.5148">
        <ele>229.60000610352</ele>
        <time>2021-03-27T14:14:19Z</time>
      </trkpt>
      <trkpt lat="44.44052" lon="1.5148">
        <ele>229.19999694824</ele>
        <time>2021-03-27T14:14:20Z</time>
      </trkpt>
      <trkpt lat="44.44055" lon="1.51486">
        <ele>228.19999694824</ele>
        <time>2021-03-27T14:14:25Z</time>
      </trkpt>
      <trkpt lat="44.44057" lon="1.51486">
        <ele>228</ele>
        <time>2021-03-27T14:14:26Z</time>
      </trkpt>
      <trkpt lat="44.44069" lon="1.51483">
        <ele>227.19999694824</ele>
        <time>2021-03-27T14:14:30Z</time>
      </trkpt>
      <trkpt lat="44.44072" lon="1.51481">
        <ele>226.80000305176</ele>
        <time>2021-03-27T14:14:31Z</time>
      </trkpt>
      <trkpt lat="44.44079" lon="1.51478">
        <ele>225.39999389648</ele>
        <time>2021-03-27T14:14:33Z</time>
      </trkpt>
      <trkpt lat="44.44083" lon="1.51477">
        <ele>224</ele>
        <time>2021-03-27T14:14:34Z</time>
      </trkpt>
      <trkpt lat="44.44085" lon="1.51476">
        <ele>223.19999694824</ele>
        <time>2021-03-27T14:14:35Z</time>
      </trkpt>
      <trkpt lat="44.44088" lon="1.51476">
        <ele>222.60000610352</ele>
        <time>2021-03-27T14:14:36Z</time>
      </trkpt>
      <trkpt lat="44.44091" lon="1.51475">
        <ele>222.19999694824</ele>
        <time>2021-03-27T14:14:37Z</time>
      </trkpt>
      <trkpt lat="44.44094" lon="1.51473">
        <ele>221.60000610352</ele>
        <time>2021-03-27T14:14:38Z</time>
      </trkpt>
      <trkpt lat="44.44101" lon="1.5147">
        <ele>220.39999389648</ele>
        <time>2021-03-27T14:14:40Z</time>
      </trkpt>
      <trkpt lat="44.44108" lon="1.51467">
        <ele>219.19999694824</ele>
        <time>2021-03-27T14:14:42Z</time>
      </trkpt>
      <trkpt lat="44.44114" lon="1.51466">
        <ele>217.80000305176</ele>
        <time>2021-03-27T14:14:44Z</time>
      </trkpt>
      <trkpt lat="44.44117" lon="1.51466">
        <ele>217.19999694824</ele>
        <time>2021-03-27T14:14:45Z</time>
      </trkpt>
      <trkpt lat="44.4412" lon="1.51466">
        <ele>216.80000305176</ele>
        <time>2021-03-27T14:14:46Z</time>
      </trkpt>
      <trkpt lat="44.44132" lon="1.51471">
        <ele>216.19999694824</ele>
        <time>2021-03-27T14:14:51Z</time>
      </trkpt>
      <trkpt lat="44.4414" lon="1.51478">
        <ele>216.19999694824</ele>
        <time>2021-03-27T14:14:56Z</time>
      </trkpt>
      <trkpt lat="44.44142" lon="1.51481">
        <ele>216.39999389648</ele>
        <time>2021-03-27T14:14:57Z</time>
      </trkpt>
      <trkpt lat="44.44147" lon="1.51496">
        <ele>216.60000610352</ele>
        <time>2021-03-27T14:15:01Z</time>
      </trkpt>
      <trkpt lat="44.44151" lon="1.51509">
        <ele>216.60000610352</ele>
        <time>2021-03-27T14:15:04Z</time>
      </trkpt>
      <trkpt lat="44.44154" lon="1.51519">
        <ele>216.60000610352</ele>
        <time>2021-03-27T14:15:06Z</time>
      </trkpt>
      <trkpt lat="44.4416" lon="1.51534">
        <ele>215.60000610352</ele>
        <time>2021-03-27T14:15:10Z</time>
      </trkpt>
      <trkpt lat="44.44164" lon="1.51538">
        <ele>214.80000305176</ele>
        <time>2021-03-27T14:15:18Z</time>
      </trkpt>
      <trkpt lat="44.44165" lon="1.51539">
        <ele>214.80000305176</ele>
        <time>2021-03-27T14:15:20Z</time>
      </trkpt>
      <trkpt lat="44.44165" lon="1.51542">
        <ele>214.80000305176</ele>
        <time>2021-03-27T14:15:24Z</time>
      </trkpt>
      <trkpt lat="44.44165" lon="1.51544">
        <ele>215</ele>
        <time>2021-03-27T14:15:25Z</time>
      </trkpt>
      <trkpt lat="44.44165" lon="1.51552">
        <ele>215</ele>
        <time>2021-03-27T14:15:28Z</time>
      </trkpt>
      <trkpt lat="44.44162" lon="1.51564">
        <ele>214.60000610352</ele>
        <time>2021-03-27T14:15:34Z</time>
      </trkpt>
      <trkpt lat="44.44162" lon="1.51565">
        <ele>214.19999694824</ele>
        <time>2021-03-27T14:15:35Z</time>
      </trkpt>
      <trkpt lat="44.44162" lon="1.51567">
        <ele>213.80000305176</ele>
        <time>2021-03-27T14:15:36Z</time>
      </trkpt>
      <trkpt lat="44.44162" lon="1.51568">
        <ele>212</ele>
        <time>2021-03-27T14:15:40Z</time>
      </trkpt>
      <trkpt lat="44.44161" lon="1.51569">
        <ele>211.80000305176</ele>
        <time>2021-03-27T14:15:41Z</time>
      </trkpt>
      <trkpt lat="44.44159" lon="1.51563">
        <ele>210.19999694824</ele>
        <time>2021-03-27T14:15:57Z</time>
      </trkpt>
      <trkpt lat="44.44158" lon="1.5156">
        <ele>210.19999694824</ele>
        <time>2021-03-27T14:15:58Z</time>
      </trkpt>
      <trkpt lat="44.44151" lon="1.51549">
        <ele>210</ele>
        <time>2021-03-27T14:16:02Z</time>
      </trkpt>
      <trkpt lat="44.4414" lon="1.51532">
        <ele>209</ele>
        <time>2021-03-27T14:16:06Z</time>
      </trkpt>
      <trkpt lat="44.44138" lon="1.51527">
        <ele>208.19999694824</ele>
        <time>2021-03-27T14:16:07Z</time>
      </trkpt>
      <trkpt lat="44.44135" lon="1.51522">
        <ele>207.39999389648</ele>
        <time>2021-03-27T14:16:08Z</time>
      </trkpt>
      <trkpt lat="44.44129" lon="1.51515">
        <ele>205.60000610352</ele>
        <time>2021-03-27T14:16:10Z</time>
      </trkpt>
      <trkpt lat="44.44126" lon="1.51513">
        <ele>204.60000610352</ele>
        <time>2021-03-27T14:16:11Z</time>
      </trkpt>
      <trkpt lat="44.44124" lon="1.51513">
        <ele>203.60000610352</ele>
        <time>2021-03-27T14:16:12Z</time>
      </trkpt>
      <trkpt lat="44.44122" lon="1.51515">
        <ele>202.60000610352</ele>
        <time>2021-03-27T14:16:13Z</time>
      </trkpt>
      <trkpt lat="44.44118" lon="1.51521">
        <ele>200.80000305176</ele>
        <time>2021-03-27T14:16:16Z</time>
      </trkpt>
      <trkpt lat="44.44119" lon="1.51522">
        <ele>200.39999389648</ele>
        <time>2021-03-27T14:16:17Z</time>
      </trkpt>
      <trkpt lat="44.44124" lon="1.5153">
        <ele>200</ele>
        <time>2021-03-27T14:16:20Z</time>
      </trkpt>
      <trkpt lat="44.44127" lon="1.51539">
        <ele>199.19999694824</ele>
        <time>2021-03-27T14:16:22Z</time>
      </trkpt>
      <trkpt lat="44.44129" lon="1.51548">
        <ele>197.80000305176</ele>
        <time>2021-03-27T14:16:24Z</time>
      </trkpt>
      <trkpt lat="44.44129" lon="1.51552">
        <ele>197.19999694824</ele>
        <time>2021-03-27T14:16:25Z</time>
      </trkpt>
      <trkpt lat="44.44128" lon="1.51555">
        <ele>195.19999694824</ele>
        <time>2021-03-27T14:16:27Z</time>
      </trkpt>
      <trkpt lat="44.44127" lon="1.51555">
        <ele>194.60000610352</ele>
        <time>2021-03-27T14:16:28Z</time>
      </trkpt>
      <trkpt lat="44.44125" lon="1.51553">
        <ele>194</ele>
        <time>2021-03-27T14:16:29Z</time>
      </trkpt>
      <trkpt lat="44.4412" lon="1.51547">
        <ele>193</ele>
        <time>2021-03-27T14:16:31Z</time>
      </trkpt>
      <trkpt lat="44.44118" lon="1.51547">
        <ele>192.80000305176</ele>
        <time>2021-03-27T14:16:32Z</time>
      </trkpt>
      <trkpt lat="44.44113" lon="1.51555">
        <ele>192.19999694824</ele>
        <time>2021-03-27T14:16:34Z</time>
      </trkpt>
      <trkpt lat="44.4411" lon="1.51561">
        <ele>192</ele>
        <time>2021-03-27T14:16:35Z</time>
      </trkpt>
      <trkpt lat="44.44106" lon="1.51569">
        <ele>191.39999389648</ele>
        <time>2021-03-27T14:16:36Z</time>
      </trkpt>
      <trkpt lat="44.44102" lon="1.51577">
        <ele>191</ele>
        <time>2021-03-27T14:16:37Z</time>
      </trkpt>
      <trkpt lat="44.44096" lon="1.51593">
        <ele>189.80000305176</ele>
        <time>2021-03-27T14:16:39Z</time>
      </trkpt>
      <trkpt lat="44.44088" lon="1.51609">
        <ele>188.39999389648</ele>
        <time>2021-03-27T14:16:41Z</time>
      </trkpt>
      <trkpt lat="44.44084" lon="1.51616">
        <ele>187.39999389648</ele>
        <time>2021-03-27T14:16:42Z</time>
      </trkpt>
      <trkpt lat="44.44081" lon="1.51622">
        <ele>186.19999694824</ele>
        <time>2021-03-27T14:16:43Z</time>
      </trkpt>
      <trkpt lat="44.44078" lon="1.51626">
        <ele>184.60000610352</ele>
        <time>2021-03-27T14:16:44Z</time>
      </trkpt>
      <trkpt lat="44.44075" lon="1.5163">
        <ele>182.80000305176</ele>
        <time>2021-03-27T14:16:45Z</time>
      </trkpt>
      <trkpt lat="44.4407" lon="1.51635">
        <ele>180.80000305176</ele>
        <time>2021-03-27T14:16:46Z</time>
      </trkpt>
      <trkpt lat="44.44065" lon="1.5164">
        <ele>179.39999389648</ele>
        <time>2021-03-27T14:16:47Z</time>
      </trkpt>
      <trkpt lat="44.44062" lon="1.51647">
        <ele>178.19999694824</ele>
        <time>2021-03-27T14:16:48Z</time>
      </trkpt>
      <trkpt lat="44.44061" lon="1.51654">
        <ele>177.19999694824</ele>
        <time>2021-03-27T14:16:49Z</time>
      </trkpt>
      <trkpt lat="44.44061" lon="1.5166">
        <ele>176.60000610352</ele>
        <time>2021-03-27T14:16:50Z</time>
      </trkpt>
      <trkpt lat="44.44064" lon="1.51673">
        <ele>175.19999694824</ele>
        <time>2021-03-27T14:16:52Z</time>
      </trkpt>
      <trkpt lat="44.44066" lon="1.51686">
        <ele>173.39999389648</ele>
        <time>2021-03-27T14:16:54Z</time>
      </trkpt>
      <trkpt lat="44.44066" lon="1.51693">
        <ele>172.80000305176</ele>
        <time>2021-03-27T14:16:55Z</time>
      </trkpt>
      <trkpt lat="44.44065" lon="1.51701">
        <ele>172.39999389648</ele>
        <time>2021-03-27T14:16:56Z</time>
      </trkpt>
      <trkpt lat="44.44065" lon="1.5172">
        <ele>171.19999694824</ele>
        <time>2021-03-27T14:16:58Z</time>
      </trkpt>
      <trkpt lat="44.44065" lon="1.51729">
        <ele>170.80000305176</ele>
        <time>2021-03-27T14:16:59Z</time>
      </trkpt>
      <trkpt lat="44.44065" lon="1.51737">
        <ele>170.19999694824</ele>
        <time>2021-03-27T14:17:00Z</time>
      </trkpt>
      <trkpt lat="44.44067" lon="1.51766">
        <ele>168.80000305176</ele>
        <time>2021-03-27T14:17:04Z</time>
      </trkpt>
      <trkpt lat="44.44066" lon="1.51781">
        <ele>167.39999389648</ele>
        <time>2021-03-27T14:17:06Z</time>
      </trkpt>
      <trkpt lat="44.44066" lon="1.51797">
        <ele>166.80000305176</ele>
        <time>2021-03-27T14:17:08Z</time>
      </trkpt>
      <trkpt lat="44.44065" lon="1.51806">
        <ele>166.60000610352</ele>
        <time>2021-03-27T14:17:09Z</time>
      </trkpt>
      <trkpt lat="44.44065" lon="1.51815">
        <ele>166.19999694824</ele>
        <time>2021-03-27T14:17:10Z</time>
      </trkpt>
      <trkpt lat="44.44063" lon="1.51851">
        <ele>165</ele>
        <time>2021-03-27T14:17:14Z</time>
      </trkpt>
      <trkpt lat="44.44062" lon="1.51859">
        <ele>164.39999389648</ele>
        <time>2021-03-27T14:17:15Z</time>
      </trkpt>
      <trkpt lat="44.44059" lon="1.51865">
        <ele>163.80000305176</ele>
        <time>2021-03-27T14:17:16Z</time>
      </trkpt>
      <trkpt lat="44.44051" lon="1.51876">
        <ele>162.19999694824</ele>
        <time>2021-03-27T14:17:18Z</time>
      </trkpt>
      <trkpt lat="44.44044" lon="1.51885">
        <ele>160.60000610352</ele>
        <time>2021-03-27T14:17:20Z</time>
      </trkpt>
      <trkpt lat="44.44039" lon="1.51886">
        <ele>159.60000610352</ele>
        <time>2021-03-27T14:17:22Z</time>
      </trkpt>
      <trkpt lat="44.44034" lon="1.51883">
        <ele>157.80000305176</ele>
        <time>2021-03-27T14:17:24Z</time>
      </trkpt>
      <trkpt lat="44.44032" lon="1.51881">
        <ele>156.39999389648</ele>
        <time>2021-03-27T14:17:25Z</time>
      </trkpt>
      <trkpt lat="44.44031" lon="1.51879">
        <ele>156</ele>
        <time>2021-03-27T14:17:26Z</time>
      </trkpt>
      <trkpt lat="44.44029" lon="1.51878">
        <ele>155.80000305176</ele>
        <time>2021-03-27T14:17:27Z</time>
      </trkpt>
      <trkpt lat="44.44027" lon="1.51877">
        <ele>155.80000305176</ele>
        <time>2021-03-27T14:17:28Z</time>
      </trkpt>
      <trkpt lat="44.44025" lon="1.51875">
        <ele>155.80000305176</ele>
        <time>2021-03-27T14:17:31Z</time>
      </trkpt>
      <trkpt lat="44.44025" lon="1.51874">
        <ele>155.80000305176</ele>
        <time>2021-03-27T14:17:32Z</time>
      </trkpt>
      <trkpt lat="44.44027" lon="1.51875">
        <ele>155.80000305176</ele>
        <time>2021-03-27T14:17:34Z</time>
      </trkpt>
      <trkpt lat="44.44028" lon="1.51876">
        <ele>155.80000305176</ele>
        <time>2021-03-27T14:17:35Z</time>
      </trkpt>
      <trkpt lat="44.44029" lon="1.51877">
        <ele>155.80000305176</ele>
        <time>2021-03-27T14:17:36Z</time>
      </trkpt>
      <trkpt lat="44.44033" lon="1.51881">
        <ele>155.80000305176</ele>
        <time>2021-03-27T14:19:47Z</time>
      </trkpt>
      <trkpt lat="44.44039" lon="1.51888">
        <ele>155.80000305176</ele>
        <time>2021-03-27T14:19:50Z</time>
      </trkpt>
      <trkpt lat="44.44054" lon="1.51902">
        <ele>155.80000305176</ele>
        <time>2021-03-27T14:19:56Z</time>
      </trkpt>
      <trkpt lat="44.44065" lon="1.5191">
        <ele>155.80000305176</ele>
        <time>2021-03-27T14:19:59Z</time>
      </trkpt>
      <trkpt lat="44.44081" lon="1.51924">
        <ele>155.60000610352</ele>
        <time>2021-03-27T14:20:03Z</time>
      </trkpt>
      <trkpt lat="44.4409" lon="1.51931">
        <ele>155.39999389648</ele>
        <time>2021-03-27T14:20:05Z</time>
      </trkpt>
      <trkpt lat="44.44107" lon="1.51944">
        <ele>154.80000305176</ele>
        <time>2021-03-27T14:20:09Z</time>
      </trkpt>
      <trkpt lat="44.44126" lon="1.5196">
        <ele>154.19999694824</ele>
        <time>2021-03-27T14:20:13Z</time>
      </trkpt>
      <trkpt lat="44.44155" lon="1.51981">
        <ele>153.39999389648</ele>
        <time>2021-03-27T14:20:19Z</time>
      </trkpt>
      <trkpt lat="44.44165" lon="1.51988">
        <ele>153.19999694824</ele>
        <time>2021-03-27T14:20:21Z</time>
      </trkpt>
      <trkpt lat="44.44192" lon="1.52004">
        <ele>152.39999389648</ele>
        <time>2021-03-27T14:20:26Z</time>
      </trkpt>
      <trkpt lat="44.44218" lon="1.52016">
        <ele>152.19999694824</ele>
        <time>2021-03-27T14:20:31Z</time>
      </trkpt>
      <trkpt lat="44.44223" lon="1.52017">
        <ele>152</ele>
        <time>2021-03-27T14:20:32Z</time>
      </trkpt>
      <trkpt lat="44.44243" lon="1.5202">
        <ele>152</ele>
        <time>2021-03-27T14:20:36Z</time>
      </trkpt>
      <trkpt lat="44.44252" lon="1.5202">
        <ele>151.80000305176</ele>
        <time>2021-03-27T14:20:38Z</time>
      </trkpt>
      <trkpt lat="44.44257" lon="1.52019">
        <ele>151.80000305176</ele>
        <time>2021-03-27T14:20:39Z</time>
      </trkpt>
      <trkpt lat="44.4427" lon="1.52019">
        <ele>151.80000305176</ele>
        <time>2021-03-27T14:20:43Z</time>
      </trkpt>
      <trkpt lat="44.44268" lon="1.52031">
        <ele>151.80000305176</ele>
        <time>2021-03-27T14:20:46Z</time>
      </trkpt>
      <trkpt lat="44.44265" lon="1.52041">
        <ele>151.80000305176</ele>
        <time>2021-03-27T14:20:48Z</time>
      </trkpt>
      <trkpt lat="44.44264" lon="1.5205">
        <ele>151.80000305176</ele>
        <time>2021-03-27T14:20:50Z</time>
      </trkpt>
      <trkpt lat="44.44265" lon="1.52055">
        <ele>151.80000305176</ele>
        <time>2021-03-27T14:20:51Z</time>
      </trkpt>
      <trkpt lat="44.44273" lon="1.52068">
        <ele>151.80000305176</ele>
        <time>2021-03-27T14:20:54Z</time>
      </trkpt>
      <trkpt lat="44.44281" lon="1.52075">
        <ele>151.80000305176</ele>
        <time>2021-03-27T14:20:57Z</time>
      </trkpt>
      <trkpt lat="44.44287" lon="1.52076">
        <ele>152</ele>
        <time>2021-03-27T14:20:59Z</time>
      </trkpt>
      <trkpt lat="44.44302" lon="1.52078">
        <ele>154</ele>
        <time>2021-03-27T14:21:03Z</time>
      </trkpt>
      <trkpt lat="44.44305" lon="1.5208">
        <ele>155</ele>
        <time>2021-03-27T14:21:04Z</time>
      </trkpt>
      <trkpt lat="44.44309" lon="1.52083">
        <ele>156.60000610352</ele>
        <time>2021-03-27T14:21:06Z</time>
      </trkpt>
      <trkpt lat="44.44309" lon="1.52085">
        <ele>157.39999389648</ele>
        <time>2021-03-27T14:21:07Z</time>
      </trkpt>
      <trkpt lat="44.44308" lon="1.52087">
        <ele>158.60000610352</ele>
        <time>2021-03-27T14:21:08Z</time>
      </trkpt>
      <trkpt lat="44.44306" lon="1.52086">
        <ele>160</ele>
        <time>2021-03-27T14:21:10Z</time>
      </trkpt>
      <trkpt lat="44.44305" lon="1.52079">
        <ele>163</ele>
        <time>2021-03-27T14:22:13Z</time>
      </trkpt>
      <trkpt lat="44.44304" lon="1.5208">
        <ele>163</ele>
        <time>2021-03-27T14:22:14Z</time>
      </trkpt>
      <trkpt lat="44.44304" lon="1.52083">
        <ele>163</ele>
        <time>2021-03-27T14:22:15Z</time>
      </trkpt>
      <trkpt lat="44.443" lon="1.52096">
        <ele>163.19999694824</ele>
        <time>2021-03-27T14:22:20Z</time>
      </trkpt>
      <trkpt lat="44.44297" lon="1.5211">
        <ele>164.39999389648</ele>
        <time>2021-03-27T14:22:25Z</time>
      </trkpt>
      <trkpt lat="44.44297" lon="1.52116">
        <ele>165.19999694824</ele>
        <time>2021-03-27T14:22:27Z</time>
      </trkpt>
      <trkpt lat="44.44297" lon="1.52119">
        <ele>165.60000610352</ele>
        <time>2021-03-27T14:22:28Z</time>
      </trkpt>
      <trkpt lat="44.44299" lon="1.52127">
        <ele>167</ele>
        <time>2021-03-27T14:22:31Z</time>
      </trkpt>
      <trkpt lat="44.443" lon="1.52131">
        <ele>168.60000610352</ele>
        <time>2021-03-27T14:22:33Z</time>
      </trkpt>
      <trkpt lat="44.443" lon="1.52134">
        <ele>170</ele>
        <time>2021-03-27T14:22:35Z</time>
      </trkpt>
      <trkpt lat="44.443" lon="1.52138">
        <ele>171.19999694824</ele>
        <time>2021-03-27T14:22:37Z</time>
      </trkpt>
      <trkpt lat="44.443" lon="1.52144">
        <ele>172.60000610352</ele>
        <time>2021-03-27T14:22:40Z</time>
      </trkpt>
      <trkpt lat="44.443" lon="1.52147">
        <ele>172.80000305176</ele>
        <time>2021-03-27T14:22:41Z</time>
      </trkpt>
      <trkpt lat="44.44302" lon="1.52153">
        <ele>173.60000610352</ele>
        <time>2021-03-27T14:22:43Z</time>
      </trkpt>
      <trkpt lat="44.44305" lon="1.52163">
        <ele>174.80000305176</ele>
        <time>2021-03-27T14:22:46Z</time>
      </trkpt>
      <trkpt lat="44.44305" lon="1.52167">
        <ele>175</ele>
        <time>2021-03-27T14:22:47Z</time>
      </trkpt>
      <trkpt lat="44.44306" lon="1.52178">
        <ele>176</ele>
        <time>2021-03-27T14:22:50Z</time>
      </trkpt>
      <trkpt lat="44.44305" lon="1.52191">
        <ele>177.39999389648</ele>
        <time>2021-03-27T14:22:53Z</time>
      </trkpt>
      <trkpt lat="44.44303" lon="1.522">
        <ele>178.19999694824</ele>
        <time>2021-03-27T14:22:55Z</time>
      </trkpt>
      <trkpt lat="44.44302" lon="1.52204">
        <ele>178.80000305176</ele>
        <time>2021-03-27T14:22:56Z</time>
      </trkpt>
      <trkpt lat="44.44295" lon="1.52213">
        <ele>180.19999694824</ele>
        <time>2021-03-27T14:22:59Z</time>
      </trkpt>
      <trkpt lat="44.4429" lon="1.52219">
        <ele>181.39999389648</ele>
        <time>2021-03-27T14:23:01Z</time>
      </trkpt>
      <trkpt lat="44.44288" lon="1.52227">
        <ele>182.80000305176</ele>
        <time>2021-03-27T14:23:03Z</time>
      </trkpt>
      <trkpt lat="44.44287" lon="1.52231">
        <ele>183.60000610352</ele>
        <time>2021-03-27T14:23:04Z</time>
      </trkpt>
      <trkpt lat="44.44285" lon="1.52235">
        <ele>184.19999694824</ele>
        <time>2021-03-27T14:23:05Z</time>
      </trkpt>
      <trkpt lat="44.44281" lon="1.52241">
        <ele>185.80000305176</ele>
        <time>2021-03-27T14:23:07Z</time>
      </trkpt>
      <trkpt lat="44.44277" lon="1.52247">
        <ele>187.39999389648</ele>
        <time>2021-03-27T14:23:09Z</time>
      </trkpt>
      <trkpt lat="44.44274" lon="1.52253">
        <ele>188.60000610352</ele>
        <time>2021-03-27T14:23:11Z</time>
      </trkpt>
      <trkpt lat="44.44271" lon="1.52259">
        <ele>190</ele>
        <time>2021-03-27T14:23:13Z</time>
      </trkpt>
      <trkpt lat="44.44266" lon="1.52265">
        <ele>191.60000610352</ele>
        <time>2021-03-27T14:23:15Z</time>
      </trkpt>
      <trkpt lat="44.44261" lon="1.52271">
        <ele>193.19999694824</ele>
        <time>2021-03-27T14:23:17Z</time>
      </trkpt>
      <trkpt lat="44.44257" lon="1.52278">
        <ele>194.80000305176</ele>
        <time>2021-03-27T14:23:19Z</time>
      </trkpt>
      <trkpt lat="44.44252" lon="1.52284">
        <ele>196.19999694824</ele>
        <time>2021-03-27T14:23:21Z</time>
      </trkpt>
      <trkpt lat="44.44247" lon="1.52289">
        <ele>197.39999389648</ele>
        <time>2021-03-27T14:23:23Z</time>
      </trkpt>
      <trkpt lat="44.44241" lon="1.52294">
        <ele>199.19999694824</ele>
        <time>2021-03-27T14:23:25Z</time>
      </trkpt>
      <trkpt lat="44.44235" lon="1.52298">
        <ele>201</ele>
        <time>2021-03-27T14:23:27Z</time>
      </trkpt>
      <trkpt lat="44.44232" lon="1.52299">
        <ele>201.19999694824</ele>
        <time>2021-03-27T14:23:28Z</time>
      </trkpt>
      <trkpt lat="44.44231" lon="1.52303">
        <ele>201.80000305176</ele>
        <time>2021-03-27T14:23:29Z</time>
      </trkpt>
      <trkpt lat="44.4423" lon="1.52306">
        <ele>202.19999694824</ele>
        <time>2021-03-27T14:23:30Z</time>
      </trkpt>
      <trkpt lat="44.44229" lon="1.52309">
        <ele>202.39999389648</ele>
        <time>2021-03-27T14:23:31Z</time>
      </trkpt>
      <trkpt lat="44.44228" lon="1.52311">
        <ele>202.39999389648</ele>
        <time>2021-03-27T14:23:32Z</time>
      </trkpt>
      <trkpt lat="44.44222" lon="1.5232">
        <ele>202.80000305176</ele>
        <time>2021-03-27T14:23:35Z</time>
      </trkpt>
      <trkpt lat="44.44219" lon="1.52327">
        <ele>203.19999694824</ele>
        <time>2021-03-27T14:23:37Z</time>
      </trkpt>
      <trkpt lat="44.44217" lon="1.5233">
        <ele>203.19999694824</ele>
        <time>2021-03-27T14:23:38Z</time>
      </trkpt>
      <trkpt lat="44.44214" lon="1.52333">
        <ele>203.60000610352</ele>
        <time>2021-03-27T14:23:39Z</time>
      </trkpt>
      <trkpt lat="44.44211" lon="1.52342">
        <ele>204.39999389648</ele>
        <time>2021-03-27T14:23:41Z</time>
      </trkpt>
      <trkpt lat="44.4421" lon="1.52352">
        <ele>205.19999694824</ele>
        <time>2021-03-27T14:23:43Z</time>
      </trkpt>
      <trkpt lat="44.4421" lon="1.52358">
        <ele>205.80000305176</ele>
        <time>2021-03-27T14:23:44Z</time>
      </trkpt>
      <trkpt lat="44.44211" lon="1.52366">
        <ele>206.80000305176</ele>
        <time>2021-03-27T14:23:46Z</time>
      </trkpt>
      <trkpt lat="44.44211" lon="1.5237">
        <ele>207.19999694824</ele>
        <time>2021-03-27T14:23:47Z</time>
      </trkpt>
      <trkpt lat="44.44208" lon="1.52377">
        <ele>208.19999694824</ele>
        <time>2021-03-27T14:23:49Z</time>
      </trkpt>
      <trkpt lat="44.44204" lon="1.52384">
        <ele>209.39999389648</ele>
        <time>2021-03-27T14:23:51Z</time>
      </trkpt>
      <trkpt lat="44.44203" lon="1.52388">
        <ele>210</ele>
        <time>2021-03-27T14:23:52Z</time>
      </trkpt>
      <trkpt lat="44.44202" lon="1.52392">
        <ele>210.60000610352</ele>
        <time>2021-03-27T14:23:53Z</time>
      </trkpt>
      <trkpt lat="44.44202" lon="1.52396">
        <ele>211.39999389648</ele>
        <time>2021-03-27T14:23:54Z</time>
      </trkpt>
      <trkpt lat="44.44201" lon="1.52399">
        <ele>212.80000305176</ele>
        <time>2021-03-27T14:23:55Z</time>
      </trkpt>
      <trkpt lat="44.44201" lon="1.52406">
        <ele>214.39999389648</ele>
        <time>2021-03-27T14:23:57Z</time>
      </trkpt>
      <trkpt lat="44.44196" lon="1.5242">
        <ele>215.60000610352</ele>
        <time>2021-03-27T14:24:00Z</time>
      </trkpt>
      <trkpt lat="44.44194" lon="1.52424">
        <ele>216.19999694824</ele>
        <time>2021-03-27T14:24:01Z</time>
      </trkpt>
      <trkpt lat="44.4419" lon="1.52431">
        <ele>217.19999694824</ele>
        <time>2021-03-27T14:24:03Z</time>
      </trkpt>
      <trkpt lat="44.44186" lon="1.52446">
        <ele>218.19999694824</ele>
        <time>2021-03-27T14:24:06Z</time>
      </trkpt>
      <trkpt lat="44.44185" lon="1.5245">
        <ele>218.39999389648</ele>
        <time>2021-03-27T14:24:07Z</time>
      </trkpt>
      <trkpt lat="44.44183" lon="1.52464">
        <ele>219.19999694824</ele>
        <time>2021-03-27T14:24:10Z</time>
      </trkpt>
      <trkpt lat="44.44182" lon="1.52469">
        <ele>220</ele>
        <time>2021-03-27T14:24:11Z</time>
      </trkpt>
      <trkpt lat="44.44179" lon="1.52474">
        <ele>220.60000610352</ele>
        <time>2021-03-27T14:24:12Z</time>
      </trkpt>
      <trkpt lat="44.44177" lon="1.52478">
        <ele>221</ele>
        <time>2021-03-27T14:24:13Z</time>
      </trkpt>
      <trkpt lat="44.44174" lon="1.52484">
        <ele>221.39999389648</ele>
        <time>2021-03-27T14:24:14Z</time>
      </trkpt>
      <trkpt lat="44.4417" lon="1.52494">
        <ele>222.80000305176</ele>
        <time>2021-03-27T14:24:16Z</time>
      </trkpt>
      <trkpt lat="44.44168" lon="1.52499">
        <ele>223.39999389648</ele>
        <time>2021-03-27T14:24:17Z</time>
      </trkpt>
      <trkpt lat="44.44166" lon="1.52504">
        <ele>224</ele>
        <time>2021-03-27T14:24:18Z</time>
      </trkpt>
      <trkpt lat="44.44161" lon="1.52515">
        <ele>225</ele>
        <time>2021-03-27T14:24:20Z</time>
      </trkpt>
      <trkpt lat="44.4416" lon="1.52545">
        <ele>198</ele>
        <time>2021-03-27T14:24:23Z</time>
      </trkpt>
      <trkpt lat="44.44158" lon="1.52543">
        <ele>230.80000305176</ele>
        <time>2021-03-27T14:32:55Z</time>
      </trkpt>
      <trkpt lat="44.44166" lon="1.52555">
        <ele>230.80000305176</ele>
        <time>2021-03-27T14:32:58Z</time>
      </trkpt>
      <trkpt lat="44.44169" lon="1.52558">
        <ele>230.80000305176</ele>
        <time>2021-03-27T14:32:59Z</time>
      </trkpt>
      <trkpt lat="44.44185" lon="1.5257">
        <ele>230.19999694824</ele>
        <time>2021-03-27T14:33:03Z</time>
      </trkpt>
      <trkpt lat="44.44189" lon="1.52572">
        <ele>229.80000305176</ele>
        <time>2021-03-27T14:33:04Z</time>
      </trkpt>
      <trkpt lat="44.44196" lon="1.52575">
        <ele>228.60000610352</ele>
        <time>2021-03-27T14:33:06Z</time>
      </trkpt>
      <trkpt lat="44.44197" lon="1.52579">
        <ele>228</ele>
        <time>2021-03-27T14:33:07Z</time>
      </trkpt>
      <trkpt lat="44.44199" lon="1.52583">
        <ele>227</ele>
        <time>2021-03-27T14:33:08Z</time>
      </trkpt>
      <trkpt lat="44.44202" lon="1.52588">
        <ele>226</ele>
        <time>2021-03-27T14:33:09Z</time>
      </trkpt>
      <trkpt lat="44.44204" lon="1.52592">
        <ele>224.60000610352</ele>
        <time>2021-03-27T14:33:10Z</time>
      </trkpt>
      <trkpt lat="44.44205" lon="1.52596">
        <ele>223.19999694824</ele>
        <time>2021-03-27T14:33:11Z</time>
      </trkpt>
      <trkpt lat="44.44206" lon="1.526">
        <ele>222</ele>
        <time>2021-03-27T14:33:12Z</time>
      </trkpt>
      <trkpt lat="44.44207" lon="1.52604">
        <ele>219.39999389648</ele>
        <time>2021-03-27T14:33:13Z</time>
      </trkpt>
      <trkpt lat="44.44208" lon="1.52614">
        <ele>217.39999389648</ele>
        <time>2021-03-27T14:33:15Z</time>
      </trkpt>
      <trkpt lat="44.44207" lon="1.5262">
        <ele>216.60000610352</ele>
        <time>2021-03-27T14:33:16Z</time>
      </trkpt>
      <trkpt lat="44.44206" lon="1.52625">
        <ele>215.39999389648</ele>
        <time>2021-03-27T14:33:17Z</time>
      </trkpt>
      <trkpt lat="44.44207" lon="1.5263">
        <ele>214.39999389648</ele>
        <time>2021-03-27T14:33:18Z</time>
      </trkpt>
      <trkpt lat="44.44208" lon="1.52632">
        <ele>213.39999389648</ele>
        <time>2021-03-27T14:33:19Z</time>
      </trkpt>
      <trkpt lat="44.44211" lon="1.52632">
        <ele>212.19999694824</ele>
        <time>2021-03-27T14:33:20Z</time>
      </trkpt>
      <trkpt lat="44.44214" lon="1.52632">
        <ele>211.60000610352</ele>
        <time>2021-03-27T14:33:21Z</time>
      </trkpt>
      <trkpt lat="44.44218" lon="1.5263">
        <ele>210.39999389648</ele>
        <time>2021-03-27T14:33:22Z</time>
      </trkpt>
      <trkpt lat="44.44222" lon="1.52627">
        <ele>209.39999389648</ele>
        <time>2021-03-27T14:33:23Z</time>
      </trkpt>
      <trkpt lat="44.44227" lon="1.52624">
        <ele>208.39999389648</ele>
        <time>2021-03-27T14:33:24Z</time>
      </trkpt>
      <trkpt lat="44.44231" lon="1.5262">
        <ele>207.60000610352</ele>
        <time>2021-03-27T14:33:25Z</time>
      </trkpt>
      <trkpt lat="44.44235" lon="1.52616">
        <ele>207</ele>
        <time>2021-03-27T14:33:26Z</time>
      </trkpt>
      <trkpt lat="44.44242" lon="1.52607">
        <ele>205.80000305176</ele>
        <time>2021-03-27T14:33:28Z</time>
      </trkpt>
      <trkpt lat="44.44245" lon="1.52605">
        <ele>205.60000610352</ele>
        <time>2021-03-27T14:33:29Z</time>
      </trkpt>
      <trkpt lat="44.44247" lon="1.52606">
        <ele>204.80000305176</ele>
        <time>2021-03-27T14:33:30Z</time>
      </trkpt>
      <trkpt lat="44.44249" lon="1.52608">
        <ele>204.60000610352</ele>
        <time>2021-03-27T14:33:31Z</time>
      </trkpt>
      <trkpt lat="44.44251" lon="1.52609">
        <ele>203.80000305176</ele>
        <time>2021-03-27T14:33:32Z</time>
      </trkpt>
      <trkpt lat="44.44256" lon="1.52609">
        <ele>202.80000305176</ele>
        <time>2021-03-27T14:33:34Z</time>
      </trkpt>
      <trkpt lat="44.44263" lon="1.52611">
        <ele>202.39999389648</ele>
        <time>2021-03-27T14:33:36Z</time>
      </trkpt>
      <trkpt lat="44.44266" lon="1.52613">
        <ele>202.19999694824</ele>
        <time>2021-03-27T14:33:37Z</time>
      </trkpt>
      <trkpt lat="44.44269" lon="1.52614">
        <ele>201.80000305176</ele>
        <time>2021-03-27T14:33:38Z</time>
      </trkpt>
      <trkpt lat="44.44277" lon="1.52615">
        <ele>200.60000610352</ele>
        <time>2021-03-27T14:33:40Z</time>
      </trkpt>
      <trkpt lat="44.4428" lon="1.52616">
        <ele>199.39999389648</ele>
        <time>2021-03-27T14:33:41Z</time>
      </trkpt>
      <trkpt lat="44.44287" lon="1.52617">
        <ele>197.80000305176</ele>
        <time>2021-03-27T14:33:43Z</time>
      </trkpt>
      <trkpt lat="44.44292" lon="1.52621">
        <ele>196</ele>
        <time>2021-03-27T14:33:45Z</time>
      </trkpt>
      <trkpt lat="44.44298" lon="1.52624">
        <ele>194.39999389648</ele>
        <time>2021-03-27T14:33:47Z</time>
      </trkpt>
      <trkpt lat="44.44302" lon="1.52628">
        <ele>192.60000610352</ele>
        <time>2021-03-27T14:33:49Z</time>
      </trkpt>
      <trkpt lat="44.44304" lon="1.5263">
        <ele>191.60000610352</ele>
        <time>2021-03-27T14:33:50Z</time>
      </trkpt>
      <trkpt lat="44.44306" lon="1.52631">
        <ele>190.39999389648</ele>
        <time>2021-03-27T14:33:51Z</time>
      </trkpt>
      <trkpt lat="44.44308" lon="1.52632">
        <ele>189.60000610352</ele>
        <time>2021-03-27T14:33:52Z</time>
      </trkpt>
      <trkpt lat="44.44309" lon="1.52635">
        <ele>188.80000305176</ele>
        <time>2021-03-27T14:33:53Z</time>
      </trkpt>
      <trkpt lat="44.4431" lon="1.52639">
        <ele>187.80000305176</ele>
        <time>2021-03-27T14:33:54Z</time>
      </trkpt>
      <trkpt lat="44.4431" lon="1.52642">
        <ele>187.19999694824</ele>
        <time>2021-03-27T14:33:55Z</time>
      </trkpt>
      <trkpt lat="44.44313" lon="1.52649">
        <ele>185.19999694824</ele>
        <time>2021-03-27T14:33:57Z</time>
      </trkpt>
      <trkpt lat="44.44314" lon="1.52653">
        <ele>184.39999389648</ele>
        <time>2021-03-27T14:33:58Z</time>
      </trkpt>
      <trkpt lat="44.44315" lon="1.52656">
        <ele>183.60000610352</ele>
        <time>2021-03-27T14:33:59Z</time>
      </trkpt>
      <trkpt lat="44.44315" lon="1.52665">
        <ele>181.80000305176</ele>
        <time>2021-03-27T14:34:01Z</time>
      </trkpt>
      <trkpt lat="44.44314" lon="1.5267">
        <ele>181</ele>
        <time>2021-03-27T14:34:02Z</time>
      </trkpt>
      <trkpt lat="44.4431" lon="1.52681">
        <ele>172.39999389648</ele>
        <time>2021-03-27T14:34:13Z</time>
      </trkpt>
      <trkpt lat="44.44311" lon="1.5268">
        <ele>172.19999694824</ele>
        <time>2021-03-27T14:34:14Z</time>
      </trkpt>
      <trkpt lat="44.44313" lon="1.52679">
        <ele>172.19999694824</ele>
        <time>2021-03-27T14:34:16Z</time>
      </trkpt>
      <trkpt lat="44.44314" lon="1.5268">
        <ele>172.19999694824</ele>
        <time>2021-03-27T14:34:18Z</time>
      </trkpt>
      <trkpt lat="44.44321" lon="1.52679">
        <ele>172</ele>
        <time>2021-03-27T14:36:04Z</time>
      </trkpt>
      <trkpt lat="44.44323" lon="1.52679">
        <ele>172</ele>
        <time>2021-03-27T14:36:05Z</time>
      </trkpt>
      <trkpt lat="44.44331" lon="1.52677">
        <ele>172</ele>
        <time>2021-03-27T14:36:10Z</time>
      </trkpt>
      <trkpt lat="44.44339" lon="1.52677">
        <ele>172</ele>
        <time>2021-03-27T14:36:13Z</time>
      </trkpt>
      <trkpt lat="44.44354" lon="1.52672">
        <ele>171.60000610352</ele>
        <time>2021-03-27T14:36:18Z</time>
      </trkpt>
      <trkpt lat="44.44367" lon="1.52667">
        <ele>171.19999694824</ele>
        <time>2021-03-27T14:36:22Z</time>
      </trkpt>
      <trkpt lat="44.4437" lon="1.52666">
        <ele>171</ele>
        <time>2021-03-27T14:36:23Z</time>
      </trkpt>
      <trkpt lat="44.4438" lon="1.52663">
        <ele>170.19999694824</ele>
        <time>2021-03-27T14:36:26Z</time>
      </trkpt>
      <trkpt lat="44.44388" lon="1.52659">
        <ele>169.19999694824</ele>
        <time>2021-03-27T14:36:29Z</time>
      </trkpt>
      <trkpt lat="44.44393" lon="1.52657">
        <ele>168.80000305176</ele>
        <time>2021-03-27T14:36:32Z</time>
      </trkpt>
      <trkpt lat="44.44394" lon="1.52655">
        <ele>168.60000610352</ele>
        <time>2021-03-27T14:36:33Z</time>
      </trkpt>
      <trkpt lat="44.44399" lon="1.52645">
        <ele>168</ele>
        <time>2021-03-27T14:36:36Z</time>
      </trkpt>
      <trkpt lat="44.44401" lon="1.52642">
        <ele>167.80000305176</ele>
        <time>2021-03-27T14:36:37Z</time>
      </trkpt>
      <trkpt lat="44.44403" lon="1.52638">
        <ele>167.60000610352</ele>
        <time>2021-03-27T14:36:38Z</time>
      </trkpt>
      <trkpt lat="44.44408" lon="1.52631">
        <ele>167.19999694824</ele>
        <time>2021-03-27T14:36:40Z</time>
      </trkpt>
      <trkpt lat="44.44413" lon="1.52622">
        <ele>167</ele>
        <time>2021-03-27T14:36:42Z</time>
      </trkpt>
      <trkpt lat="44.44416" lon="1.52617">
        <ele>166.80000305176</ele>
        <time>2021-03-27T14:36:43Z</time>
      </trkpt>
      <trkpt lat="44.4443" lon="1.52601">
        <ele>166</ele>
        <time>2021-03-27T14:36:46Z</time>
      </trkpt>
      <trkpt lat="44.44435" lon="1.52595">
        <ele>165.80000305176</ele>
        <time>2021-03-27T14:36:47Z</time>
      </trkpt>
      <trkpt lat="44.44445" lon="1.52584">
        <ele>165.19999694824</ele>
        <time>2021-03-27T14:36:49Z</time>
      </trkpt>
      <trkpt lat="44.44454" lon="1.52574">
        <ele>164.19999694824</ele>
        <time>2021-03-27T14:36:51Z</time>
      </trkpt>
      <trkpt lat="44.44459" lon="1.52569">
        <ele>163.60000610352</ele>
        <time>2021-03-27T14:36:52Z</time>
      </trkpt>
      <trkpt lat="44.44465" lon="1.52565">
        <ele>163.19999694824</ele>
        <time>2021-03-27T14:36:53Z</time>
      </trkpt>
      <trkpt lat="44.44475" lon="1.52556">
        <ele>162.19999694824</ele>
        <time>2021-03-27T14:36:55Z</time>
      </trkpt>
      <trkpt lat="44.44484" lon="1.52546">
        <ele>161.19999694824</ele>
        <time>2021-03-27T14:36:57Z</time>
      </trkpt>
      <trkpt lat="44.44496" lon="1.52537">
        <ele>159.60000610352</ele>
        <time>2021-03-27T14:37:00Z</time>
      </trkpt>
      <trkpt lat="44.44499" lon="1.52536">
        <ele>159.19999694824</ele>
        <time>2021-03-27T14:37:01Z</time>
      </trkpt>
      <trkpt lat="44.44501" lon="1.52536">
        <ele>158.80000305176</ele>
        <time>2021-03-27T14:37:02Z</time>
      </trkpt>
      <trkpt lat="44.44503" lon="1.52537">
        <ele>158.19999694824</ele>
        <time>2021-03-27T14:37:03Z</time>
      </trkpt>
      <trkpt lat="44.44505" lon="1.5254">
        <ele>157.19999694824</ele>
        <time>2021-03-27T14:37:05Z</time>
      </trkpt>
      <trkpt lat="44.4451" lon="1.52555">
        <ele>156.80000305176</ele>
        <time>2021-03-27T14:37:12Z</time>
      </trkpt>
      <trkpt lat="44.44511" lon="1.52563">
        <ele>157.39999389648</ele>
        <time>2021-03-27T14:37:17Z</time>
      </trkpt>
      <trkpt lat="44.4451" lon="1.52565">
        <ele>159.39999389648</ele>
        <time>2021-03-27T14:37:44Z</time>
      </trkpt>
      <trkpt lat="44.4451" lon="1.52563">
        <ele>158.60000610352</ele>
        <time>2021-03-27T14:38:00Z</time>
      </trkpt>
      <trkpt lat="44.4451" lon="1.52562">
        <ele>158.60000610352</ele>
        <time>2021-03-27T14:38:17Z</time>
      </trkpt>
      <trkpt lat="44.4451" lon="1.52563">
        <ele>158.80000305176</ele>
        <time>2021-03-27T14:38:23Z</time>
      </trkpt>
      <trkpt lat="44.4451" lon="1.52563">
        <ele>158.80000305176</ele>
        <time>2021-03-27T14:38:29Z</time>
      </trkpt>
      <trkpt lat="44.44509" lon="1.52567">
        <ele>158.80000305176</ele>
        <time>2021-03-27T14:38:31Z</time>
      </trkpt>
      <trkpt lat="44.4451" lon="1.52584">
        <ele>159.39999389648</ele>
        <time>2021-03-27T14:38:37Z</time>
      </trkpt>
      <trkpt lat="44.44513" lon="1.52607">
        <ele>160.80000305176</ele>
        <time>2021-03-27T14:38:44Z</time>
      </trkpt>
      <trkpt lat="44.44513" lon="1.5261">
        <ele>161</ele>
        <time>2021-03-27T14:38:45Z</time>
      </trkpt>
      <trkpt lat="44.44514" lon="1.52615">
        <ele>161.80000305176</ele>
        <time>2021-03-27T14:38:47Z</time>
      </trkpt>
      <trkpt lat="44.44514" lon="1.5262">
        <ele>163.19999694824</ele>
        <time>2021-03-27T14:38:49Z</time>
      </trkpt>
      <trkpt lat="44.44513" lon="1.52628">
        <ele>164.39999389648</ele>
        <time>2021-03-27T14:38:52Z</time>
      </trkpt>
      <trkpt lat="44.44513" lon="1.5263">
        <ele>164.80000305176</ele>
        <time>2021-03-27T14:38:53Z</time>
      </trkpt>
      <trkpt lat="44.44514" lon="1.52637">
        <ele>165.80000305176</ele>
        <time>2021-03-27T14:38:55Z</time>
      </trkpt>
      <trkpt lat="44.44515" lon="1.52644">
        <ele>166.60000610352</ele>
        <time>2021-03-27T14:38:57Z</time>
      </trkpt>
      <trkpt lat="44.44516" lon="1.52648">
        <ele>167</ele>
        <time>2021-03-27T14:38:58Z</time>
      </trkpt>
      <trkpt lat="44.44517" lon="1.52658">
        <ele>168</ele>
        <time>2021-03-27T14:39:01Z</time>
      </trkpt>
      <trkpt lat="44.44518" lon="1.52665">
        <ele>168.39999389648</ele>
        <time>2021-03-27T14:39:03Z</time>
      </trkpt>
      <trkpt lat="44.44519" lon="1.52677">
        <ele>169.19999694824</ele>
        <time>2021-03-27T14:39:07Z</time>
      </trkpt>
      <trkpt lat="44.44521" lon="1.52686">
        <ele>169.60000610352</ele>
        <time>2021-03-27T14:39:10Z</time>
      </trkpt>
      <trkpt lat="44.44523" lon="1.52689">
        <ele>169.60000610352</ele>
        <time>2021-03-27T14:39:11Z</time>
      </trkpt>
      <trkpt lat="44.44528" lon="1.52697">
        <ele>170</ele>
        <time>2021-03-27T14:39:14Z</time>
      </trkpt>
      <trkpt lat="44.44535" lon="1.52706">
        <ele>170</ele>
        <time>2021-03-27T14:39:17Z</time>
      </trkpt>
      <trkpt lat="44.44538" lon="1.52712">
        <ele>170</ele>
        <time>2021-03-27T14:39:19Z</time>
      </trkpt>
      <trkpt lat="44.44548" lon="1.52733">
        <ele>169.39999389648</ele>
        <time>2021-03-27T14:39:26Z</time>
      </trkpt>
      <trkpt lat="44.44555" lon="1.52746">
        <ele>169</ele>
        <time>2021-03-27T14:39:31Z</time>
      </trkpt>
      <trkpt lat="44.44562" lon="1.52762">
        <ele>169</ele>
        <time>2021-03-27T14:39:37Z</time>
      </trkpt>
      <trkpt lat="44.44567" lon="1.52776">
        <ele>170</ele>
        <time>2021-03-27T14:39:43Z</time>
      </trkpt>
      <trkpt lat="44.44567" lon="1.52778">
        <ele>170.39999389648</ele>
        <time>2021-03-27T14:39:44Z</time>
      </trkpt>
      <trkpt lat="44.44574" lon="1.52789">
        <ele>171.39999389648</ele>
        <time>2021-03-27T14:39:49Z</time>
      </trkpt>
      <trkpt lat="44.44577" lon="1.52794">
        <ele>172.80000305176</ele>
        <time>2021-03-27T14:39:52Z</time>
      </trkpt>
      <trkpt lat="44.4458" lon="1.52797">
        <ele>173.39999389648</ele>
        <time>2021-03-27T14:39:54Z</time>
      </trkpt>
      <trkpt lat="44.44585" lon="1.52803">
        <ele>174.19999694824</ele>
        <time>2021-03-27T14:41:13Z</time>
      </trkpt>
      <trkpt lat="44.44595" lon="1.52811">
        <ele>174.19999694824</ele>
        <time>2021-03-27T14:41:18Z</time>
      </trkpt>
      <trkpt lat="44.44607" lon="1.52824">
        <ele>174.19999694824</ele>
        <time>2021-03-27T14:41:24Z</time>
      </trkpt>
      <trkpt lat="44.44614" lon="1.52838">
        <ele>174.19999694824</ele>
        <time>2021-03-27T14:41:29Z</time>
      </trkpt>
      <trkpt lat="44.44625" lon="1.52852">
        <ele>174.19999694824</ele>
        <time>2021-03-27T14:41:34Z</time>
      </trkpt>
      <trkpt lat="44.44629" lon="1.52868">
        <ele>174.39999389648</ele>
        <time>2021-03-27T14:41:39Z</time>
      </trkpt>
      <trkpt lat="44.44635" lon="1.52888">
        <ele>174.80000305176</ele>
        <time>2021-03-27T14:41:45Z</time>
      </trkpt>
      <trkpt lat="44.44636" lon="1.52895">
        <ele>175.19999694824</ele>
        <time>2021-03-27T14:41:47Z</time>
      </trkpt>
      <trkpt lat="44.4464" lon="1.52912">
        <ele>175.60000610352</ele>
        <time>2021-03-27T14:41:51Z</time>
      </trkpt>
      <trkpt lat="44.44641" lon="1.52936">
        <ele>176</ele>
        <time>2021-03-27T14:41:57Z</time>
      </trkpt>
      <trkpt lat="44.44635" lon="1.52955">
        <ele>176</ele>
        <time>2021-03-27T14:42:03Z</time>
      </trkpt>
      <trkpt lat="44.44632" lon="1.52973">
        <ele>176.60000610352</ele>
        <time>2021-03-27T14:42:08Z</time>
      </trkpt>
      <trkpt lat="44.44632" lon="1.52977">
        <ele>176.80000305176</ele>
        <time>2021-03-27T14:42:09Z</time>
      </trkpt>
      <trkpt lat="44.44627" lon="1.53">
        <ele>177.39999389648</ele>
        <time>2021-03-27T14:42:15Z</time>
      </trkpt>
      <trkpt lat="44.44625" lon="1.53007">
        <ele>177.60000610352</ele>
        <time>2021-03-27T14:42:17Z</time>
      </trkpt>
      <trkpt lat="44.4462" lon="1.53028">
        <ele>177.80000305176</ele>
        <time>2021-03-27T14:42:22Z</time>
      </trkpt>
      <trkpt lat="44.44616" lon="1.53044">
        <ele>178.39999389648</ele>
        <time>2021-03-27T14:42:27Z</time>
      </trkpt>
      <trkpt lat="44.44613" lon="1.53068">
        <ele>178.39999389648</ele>
        <time>2021-03-27T14:42:33Z</time>
      </trkpt>
      <trkpt lat="44.4461" lon="1.53097">
        <ele>178</ele>
        <time>2021-03-27T14:42:40Z</time>
      </trkpt>
      <trkpt lat="44.44603" lon="1.53119">
        <ele>176.39999389648</ele>
        <time>2021-03-27T14:42:45Z</time>
      </trkpt>
      <trkpt lat="44.44602" lon="1.53129">
        <ele>175.39999389648</ele>
        <time>2021-03-27T14:42:47Z</time>
      </trkpt>
      <trkpt lat="44.44601" lon="1.53137">
        <ele>174.60000610352</ele>
        <time>2021-03-27T14:42:49Z</time>
      </trkpt>
      <trkpt lat="44.44601" lon="1.53141">
        <ele>174.39999389648</ele>
        <time>2021-03-27T14:42:50Z</time>
      </trkpt>
      <trkpt lat="44.44601" lon="1.53146">
        <ele>174.19999694824</ele>
        <time>2021-03-27T14:42:51Z</time>
      </trkpt>
      <trkpt lat="44.446" lon="1.53159">
        <ele>174</ele>
        <time>2021-03-27T14:42:53Z</time>
      </trkpt>
      <trkpt lat="44.44599" lon="1.53166">
        <ele>174</ele>
        <time>2021-03-27T14:42:54Z</time>
      </trkpt>
      <trkpt lat="44.44595" lon="1.53183">
        <ele>173.39999389648</ele>
        <time>2021-03-27T14:42:57Z</time>
      </trkpt>
      <trkpt lat="44.44592" lon="1.53189">
        <ele>171.80000305176</ele>
        <time>2021-03-27T14:42:59Z</time>
      </trkpt>
      <trkpt lat="44.4459" lon="1.53192">
        <ele>170.39999389648</ele>
        <time>2021-03-27T14:43:00Z</time>
      </trkpt>
      <trkpt lat="44.44589" lon="1.53195">
        <ele>169.80000305176</ele>
        <time>2021-03-27T14:43:01Z</time>
      </trkpt>
      <trkpt lat="44.44588" lon="1.53199">
        <ele>169</ele>
        <time>2021-03-27T14:43:02Z</time>
      </trkpt>
      <trkpt lat="44.44585" lon="1.53206">
        <ele>168</ele>
        <time>2021-03-27T14:43:04Z</time>
      </trkpt>
      <trkpt lat="44.44584" lon="1.5321">
        <ele>167.60000610352</ele>
        <time>2021-03-27T14:43:05Z</time>
      </trkpt>
      <trkpt lat="44.44581" lon="1.53221">
        <ele>167.19999694824</ele>
        <time>2021-03-27T14:43:07Z</time>
      </trkpt>
      <trkpt lat="44.44579" lon="1.53225">
        <ele>166.80000305176</ele>
        <time>2021-03-27T14:43:08Z</time>
      </trkpt>
      <trkpt lat="44.44577" lon="1.53239">
        <ele>165</ele>
        <time>2021-03-27T14:43:11Z</time>
      </trkpt>
      <trkpt lat="44.44577" lon="1.53245">
        <ele>163.19999694824</ele>
        <time>2021-03-27T14:43:13Z</time>
      </trkpt>
      <trkpt lat="44.44578" lon="1.53248">
        <ele>162.39999389648</ele>
        <time>2021-03-27T14:43:15Z</time>
      </trkpt>
      <trkpt lat="44.44581" lon="1.53255">
        <ele>161.60000610352</ele>
        <time>2021-03-27T14:44:23Z</time>
      </trkpt>
      <trkpt lat="44.44584" lon="1.53255">
        <ele>161.60000610352</ele>
        <time>2021-03-27T14:44:25Z</time>
      </trkpt>
      <trkpt lat="44.44593" lon="1.53256">
        <ele>161.39999389648</ele>
        <time>2021-03-27T14:44:30Z</time>
      </trkpt>
      <trkpt lat="44.44606" lon="1.53258">
        <ele>160.80000305176</ele>
        <time>2021-03-27T14:44:34Z</time>
      </trkpt>
      <trkpt lat="44.4461" lon="1.5326">
        <ele>160.60000610352</ele>
        <time>2021-03-27T14:44:35Z</time>
      </trkpt>
      <trkpt lat="44.44613" lon="1.53262">
        <ele>160.39999389648</ele>
        <time>2021-03-27T14:44:36Z</time>
      </trkpt>
      <trkpt lat="44.4462" lon="1.53267">
        <ele>160.19999694824</ele>
        <time>2021-03-27T14:44:38Z</time>
      </trkpt>
      <trkpt lat="44.44628" lon="1.53273">
        <ele>159.80000305176</ele>
        <time>2021-03-27T14:44:40Z</time>
      </trkpt>
      <trkpt lat="44.44636" lon="1.5328">
        <ele>159.60000610352</ele>
        <time>2021-03-27T14:44:42Z</time>
      </trkpt>
      <trkpt lat="44.44642" lon="1.53281">
        <ele>159.39999389648</ele>
        <time>2021-03-27T14:44:43Z</time>
      </trkpt>
      <trkpt lat="44.44648" lon="1.53282">
        <ele>159.19999694824</ele>
        <time>2021-03-27T14:44:44Z</time>
      </trkpt>
      <trkpt lat="44.44663" lon="1.5328">
        <ele>158.60000610352</ele>
        <time>2021-03-27T14:44:46Z</time>
      </trkpt>
      <trkpt lat="44.4467" lon="1.53279">
        <ele>158.39999389648</ele>
        <time>2021-03-27T14:44:47Z</time>
      </trkpt>
      <trkpt lat="44.44677" lon="1.53277">
        <ele>158.19999694824</ele>
        <time>2021-03-27T14:44:48Z</time>
      </trkpt>
      <trkpt lat="44.44696" lon="1.53273">
        <ele>155.80000305176</ele>
        <time>2021-03-27T14:44:51Z</time>
      </trkpt>
      <trkpt lat="44.44709" lon="1.53271">
        <ele>154.39999389648</ele>
        <time>2021-03-27T14:44:53Z</time>
      </trkpt>
      <trkpt lat="44.44747" lon="1.53263">
        <ele>154</ele>
        <time>2021-03-27T14:45:00Z</time>
      </trkpt>
      <trkpt lat="44.44752" lon="1.53261">
        <ele>154</ele>
        <time>2021-03-27T14:45:01Z</time>
      </trkpt>
      <trkpt lat="44.44763" lon="1.53259">
        <ele>154.19999694824</ele>
        <time>2021-03-27T14:45:04Z</time>
      </trkpt>
      <trkpt lat="44.44776" lon="1.53259">
        <ele>154.80000305176</ele>
        <time>2021-03-27T14:45:09Z</time>
      </trkpt>
      <trkpt lat="44.44778" lon="1.53268">
        <ele>155.60000610352</ele>
        <time>2021-03-27T14:45:12Z</time>
      </trkpt>
      <trkpt lat="44.44778" lon="1.53271">
        <ele>155.80000305176</ele>
        <time>2021-03-27T14:45:13Z</time>
      </trkpt>
      <trkpt lat="44.44779" lon="1.53282">
        <ele>156.60000610352</ele>
        <time>2021-03-27T14:45:16Z</time>
      </trkpt>
      <trkpt lat="44.44779" lon="1.53298">
        <ele>157.39999389648</ele>
        <time>2021-03-27T14:45:21Z</time>
      </trkpt>
      <trkpt lat="44.44779" lon="1.53338">
        <ele>157.60000610352</ele>
        <time>2021-03-27T14:45:32Z</time>
      </trkpt>
      <trkpt lat="44.4478" lon="1.5337">
        <ele>157.60000610352</ele>
        <time>2021-03-27T14:45:39Z</time>
      </trkpt>
      <trkpt lat="44.44781" lon="1.53394">
        <ele>157.80000305176</ele>
        <time>2021-03-27T14:45:44Z</time>
      </trkpt>
      <trkpt lat="44.44781" lon="1.53404">
        <ele>157.80000305176</ele>
        <time>2021-03-27T14:45:46Z</time>
      </trkpt>
      <trkpt lat="44.44789" lon="1.5343">
        <ele>157.80000305176</ele>
        <time>2021-03-27T14:45:52Z</time>
      </trkpt>
      <trkpt lat="44.44808" lon="1.53459">
        <ele>157.80000305176</ele>
        <time>2021-03-27T14:46:00Z</time>
      </trkpt>
      <trkpt lat="44.44811" lon="1.53478">
        <ele>157.80000305176</ele>
        <time>2021-03-27T14:46:04Z</time>
      </trkpt>
      <trkpt lat="44.44812" lon="1.5351">
        <ele>158.19999694824</ele>
        <time>2021-03-27T14:46:10Z</time>
      </trkpt>
      <trkpt lat="44.44812" lon="1.53552">
        <ele>158.60000610352</ele>
        <time>2021-03-27T14:46:18Z</time>
      </trkpt>
      <trkpt lat="44.44811" lon="1.53592">
        <ele>158.60000610352</ele>
        <time>2021-03-27T14:46:24Z</time>
      </trkpt>
      <trkpt lat="44.44813" lon="1.53598">
        <ele>158.60000610352</ele>
        <time>2021-03-27T14:46:25Z</time>
      </trkpt>
      <trkpt lat="44.44819" lon="1.53624">
        <ele>157.39999389648</ele>
        <time>2021-03-27T14:46:30Z</time>
      </trkpt>
      <trkpt lat="44.44819" lon="1.53639">
        <ele>157.19999694824</ele>
        <time>2021-03-27T14:46:33Z</time>
      </trkpt>
      <trkpt lat="44.44818" lon="1.53643">
        <ele>157.19999694824</ele>
        <time>2021-03-27T14:46:34Z</time>
      </trkpt>
      <trkpt lat="44.44817" lon="1.53648">
        <ele>157.19999694824</ele>
        <time>2021-03-27T14:46:35Z</time>
      </trkpt>
      <trkpt lat="44.44819" lon="1.5366">
        <ele>157.19999694824</ele>
        <time>2021-03-27T14:46:37Z</time>
      </trkpt>
      <trkpt lat="44.44827" lon="1.53674">
        <ele>157.19999694824</ele>
        <time>2021-03-27T14:46:40Z</time>
      </trkpt>
      <trkpt lat="44.4483" lon="1.53677">
        <ele>157.19999694824</ele>
        <time>2021-03-27T14:46:41Z</time>
      </trkpt>
      <trkpt lat="44.44836" lon="1.53688">
        <ele>157.39999389648</ele>
        <time>2021-03-27T14:46:44Z</time>
      </trkpt>
      <trkpt lat="44.44846" lon="1.53705">
        <ele>159.19999694824</ele>
        <time>2021-03-27T14:46:49Z</time>
      </trkpt>
      <trkpt lat="44.44851" lon="1.53715">
        <ele>160.19999694824</ele>
        <time>2021-03-27T14:46:52Z</time>
      </trkpt>
      <trkpt lat="44.44852" lon="1.53723">
        <ele>161</ele>
        <time>2021-03-27T14:46:54Z</time>
      </trkpt>
      <trkpt lat="44.44853" lon="1.53727">
        <ele>161.60000610352</ele>
        <time>2021-03-27T14:46:55Z</time>
      </trkpt>
      <trkpt lat="44.44859" lon="1.53737">
        <ele>162.80000305176</ele>
        <time>2021-03-27T14:46:59Z</time>
      </trkpt>
      <trkpt lat="44.4486" lon="1.53741">
        <ele>163.39999389648</ele>
        <time>2021-03-27T14:47:01Z</time>
      </trkpt>
      <trkpt lat="44.44866" lon="1.53745">
        <ele>165.80000305176</ele>
        <time>2021-03-27T14:49:58Z</time>
      </trkpt>
      <trkpt lat="44.44869" lon="1.53744">
        <ele>165.80000305176</ele>
        <time>2021-03-27T14:49:59Z</time>
      </trkpt>
      <trkpt lat="44.44883" lon="1.53745">
        <ele>165.80000305176</ele>
        <time>2021-03-27T14:50:04Z</time>
      </trkpt>
      <trkpt lat="44.44885" lon="1.53744">
        <ele>165.80000305176</ele>
        <time>2021-03-27T14:50:05Z</time>
      </trkpt>
      <trkpt lat="44.44887" lon="1.53743">
        <ele>165.80000305176</ele>
        <time>2021-03-27T14:50:06Z</time>
      </trkpt>
      <trkpt lat="44.44895" lon="1.53745">
        <ele>166.60000610352</ele>
        <time>2021-03-27T14:50:09Z</time>
      </trkpt>
      <trkpt lat="44.44898" lon="1.53745">
        <ele>167</ele>
        <time>2021-03-27T14:50:10Z</time>
      </trkpt>
      <trkpt lat="44.44904" lon="1.53743">
        <ele>168</ele>
        <time>2021-03-27T14:50:12Z</time>
      </trkpt>
      <trkpt lat="44.44911" lon="1.53739">
        <ele>169.39999389648</ele>
        <time>2021-03-27T14:50:14Z</time>
      </trkpt>
      <trkpt lat="44.4492" lon="1.53733">
        <ele>170.39999389648</ele>
        <time>2021-03-27T14:50:17Z</time>
      </trkpt>
      <trkpt lat="44.4493" lon="1.53728">
        <ele>171.80000305176</ele>
        <time>2021-03-27T14:50:20Z</time>
      </trkpt>
      <trkpt lat="44.44933" lon="1.53727">
        <ele>172.39999389648</ele>
        <time>2021-03-27T14:50:21Z</time>
      </trkpt>
      <trkpt lat="44.44939" lon="1.53725">
        <ele>173.39999389648</ele>
        <time>2021-03-27T14:50:23Z</time>
      </trkpt>
      <trkpt lat="44.44949" lon="1.53722">
        <ele>175.39999389648</ele>
        <time>2021-03-27T14:50:26Z</time>
      </trkpt>
      <trkpt lat="44.44957" lon="1.53721">
        <ele>176.39999389648</ele>
        <time>2021-03-27T14:50:28Z</time>
      </trkpt>
      <trkpt lat="44.44968" lon="1.53722">
        <ele>177.60000610352</ele>
        <time>2021-03-27T14:50:31Z</time>
      </trkpt>
      <trkpt lat="44.44979" lon="1.53721">
        <ele>178.39999389648</ele>
        <time>2021-03-27T14:50:34Z</time>
      </trkpt>
      <trkpt lat="44.44983" lon="1.53721">
        <ele>178.80000305176</ele>
        <time>2021-03-27T14:50:35Z</time>
      </trkpt>
      <trkpt lat="44.44999" lon="1.53724">
        <ele>179.80000305176</ele>
        <time>2021-03-27T14:50:40Z</time>
      </trkpt>
      <trkpt lat="44.45002" lon="1.53724">
        <ele>180.19999694824</ele>
        <time>2021-03-27T14:50:41Z</time>
      </trkpt>
      <trkpt lat="44.45017" lon="1.53728">
        <ele>181.39999389648</ele>
        <time>2021-03-27T14:50:46Z</time>
      </trkpt>
      <trkpt lat="44.45028" lon="1.53736">
        <ele>182.60000610352</ele>
        <time>2021-03-27T14:50:50Z</time>
      </trkpt>
      <trkpt lat="44.4503" lon="1.53737">
        <ele>183</ele>
        <time>2021-03-27T14:50:51Z</time>
      </trkpt>
      <trkpt lat="44.45036" lon="1.5374">
        <ele>184</ele>
        <time>2021-03-27T14:50:54Z</time>
      </trkpt>
      <trkpt lat="44.4504" lon="1.53737">
        <ele>184.39999389648</ele>
        <time>2021-03-27T14:50:56Z</time>
      </trkpt>
      <trkpt lat="44.45047" lon="1.53734">
        <ele>185</ele>
        <time>2021-03-27T14:50:59Z</time>
      </trkpt>
      <trkpt lat="44.45053" lon="1.53733">
        <ele>186</ele>
        <time>2021-03-27T14:51:02Z</time>
      </trkpt>
      <trkpt lat="44.45055" lon="1.53733">
        <ele>186.39999389648</ele>
        <time>2021-03-27T14:51:03Z</time>
      </trkpt>
      <trkpt lat="44.45067" lon="1.53732">
        <ele>187.60000610352</ele>
        <time>2021-03-27T14:51:08Z</time>
      </trkpt>
      <trkpt lat="44.45076" lon="1.53731">
        <ele>188.80000305176</ele>
        <time>2021-03-27T14:51:12Z</time>
      </trkpt>
      <trkpt lat="44.45081" lon="1.53731">
        <ele>189.60000610352</ele>
        <time>2021-03-27T14:51:15Z</time>
      </trkpt>
      <trkpt lat="44.45082" lon="1.53731">
        <ele>190</ele>
        <time>2021-03-27T14:51:16Z</time>
      </trkpt>
      <trkpt lat="44.45088" lon="1.53728">
        <ele>191</ele>
        <time>2021-03-27T14:51:21Z</time>
      </trkpt>
      <trkpt lat="44.45092" lon="1.53722">
        <ele>191.60000610352</ele>
        <time>2021-03-27T14:51:24Z</time>
      </trkpt>
      <trkpt lat="44.45092" lon="1.53719">
        <ele>191.60000610352</ele>
        <time>2021-03-27T14:51:25Z</time>
      </trkpt>
      <trkpt lat="44.45093" lon="1.53715">
        <ele>191.80000305176</ele>
        <time>2021-03-27T14:51:26Z</time>
      </trkpt>
      <trkpt lat="44.45093" lon="1.53707">
        <ele>192</ele>
        <time>2021-03-27T14:51:29Z</time>
      </trkpt>
      <trkpt lat="44.45094" lon="1.53705">
        <ele>192.19999694824</ele>
        <time>2021-03-27T14:51:30Z</time>
      </trkpt>
      <trkpt lat="44.45096" lon="1.53718">
        <ele>197</ele>
        <time>2021-03-27T14:56:28Z</time>
      </trkpt>
      <trkpt lat="44.45097" lon="1.53721">
        <ele>197</ele>
        <time>2021-03-27T14:56:29Z</time>
      </trkpt>
      <trkpt lat="44.45105" lon="1.53726">
        <ele>195.60000610352</ele>
        <time>2021-03-27T14:56:33Z</time>
      </trkpt>
      <trkpt lat="44.45108" lon="1.53727">
        <ele>194.19999694824</ele>
        <time>2021-03-27T14:56:35Z</time>
      </trkpt>
      <trkpt lat="44.45112" lon="1.53728">
        <ele>193.80000305176</ele>
        <time>2021-03-27T14:56:37Z</time>
      </trkpt>
      <trkpt lat="44.45121" lon="1.53734">
        <ele>193.39999389648</ele>
        <time>2021-03-27T14:56:43Z</time>
      </trkpt>
      <trkpt lat="44.45131" lon="1.5374">
        <ele>194.39999389648</ele>
        <time>2021-03-27T14:56:50Z</time>
      </trkpt>
      <trkpt lat="44.45135" lon="1.53744">
        <ele>195.19999694824</ele>
        <time>2021-03-27T14:56:53Z</time>
      </trkpt>
      <trkpt lat="44.45137" lon="1.53744">
        <ele>195.39999389648</ele>
        <time>2021-03-27T14:56:54Z</time>
      </trkpt>
      <trkpt lat="44.45141" lon="1.53746">
        <ele>196.39999389648</ele>
        <time>2021-03-27T14:56:57Z</time>
      </trkpt>
      <trkpt lat="44.45142" lon="1.53747">
        <ele>196.39999389648</ele>
        <time>2021-03-27T14:56:58Z</time>
      </trkpt>
      <trkpt lat="44.45151" lon="1.53754">
        <ele>197.19999694824</ele>
        <time>2021-03-27T14:57:04Z</time>
      </trkpt>
      <trkpt lat="44.45152" lon="1.53755">
        <ele>197.39999389648</ele>
        <time>2021-03-27T14:57:05Z</time>
      </trkpt>
      <trkpt lat="44.45159" lon="1.53757">
        <ele>198.39999389648</ele>
        <time>2021-03-27T14:57:10Z</time>
      </trkpt>
      <trkpt lat="44.45161" lon="1.53757">
        <ele>198.60000610352</ele>
        <time>2021-03-27T14:57:11Z</time>
      </trkpt>
      <trkpt lat="44.45168" lon="1.53753">
        <ele>199.60000610352</ele>
        <time>2021-03-27T14:57:18Z</time>
      </trkpt>
      <trkpt lat="44.45169" lon="1.53752">
        <ele>199.80000305176</ele>
        <time>2021-03-27T14:57:19Z</time>
      </trkpt>
      <trkpt lat="44.45172" lon="1.53747">
        <ele>200.60000610352</ele>
        <time>2021-03-27T14:57:23Z</time>
      </trkpt>
      <trkpt lat="44.45173" lon="1.53746">
        <ele>200.80000305176</ele>
        <time>2021-03-27T14:57:24Z</time>
      </trkpt>
      <trkpt lat="44.45176" lon="1.5374">
        <ele>201.60000610352</ele>
        <time>2021-03-27T14:57:29Z</time>
      </trkpt>
      <trkpt lat="44.45178" lon="1.53736">
        <ele>202.60000610352</ele>
        <time>2021-03-27T14:57:33Z</time>
      </trkpt>
      <trkpt lat="44.4518" lon="1.5373">
        <ele>204</ele>
        <time>2021-03-27T14:57:38Z</time>
      </trkpt>
      <trkpt lat="44.4518" lon="1.53727">
        <ele>204.80000305176</ele>
        <time>2021-03-27T14:57:41Z</time>
      </trkpt>
      <trkpt lat="44.45182" lon="1.53727">
        <ele>205.60000610352</ele>
        <time>2021-03-27T14:57:44Z</time>
      </trkpt>
      <trkpt lat="44.45186" lon="1.5373">
        <ele>206.60000610352</ele>
        <time>2021-03-27T14:57:47Z</time>
      </trkpt>
      <trkpt lat="44.45187" lon="1.5373">
        <ele>206.60000610352</ele>
        <time>2021-03-27T14:57:48Z</time>
      </trkpt>
      <trkpt lat="44.4519" lon="1.53732">
        <ele>206.80000305176</ele>
        <time>2021-03-27T14:57:50Z</time>
      </trkpt>
      <trkpt lat="44.45191" lon="1.53734">
        <ele>206.80000305176</ele>
        <time>2021-03-27T14:57:51Z</time>
      </trkpt>
      <trkpt lat="44.45191" lon="1.53739">
        <ele>206.80000305176</ele>
        <time>2021-03-27T14:57:53Z</time>
      </trkpt>
      <trkpt lat="44.4519" lon="1.53741">
        <ele>206.80000305176</ele>
        <time>2021-03-27T14:57:54Z</time>
      </trkpt>
      <trkpt lat="44.45189" lon="1.53746">
        <ele>206.60000610352</ele>
        <time>2021-03-27T14:57:56Z</time>
      </trkpt>
      <trkpt lat="44.45192" lon="1.53751">
        <ele>206.39999389648</ele>
        <time>2021-03-27T14:57:59Z</time>
      </trkpt>
      <trkpt lat="44.45197" lon="1.53753">
        <ele>205.39999389648</ele>
        <time>2021-03-27T14:58:02Z</time>
      </trkpt>
      <trkpt lat="44.45199" lon="1.53753">
        <ele>205</ele>
        <time>2021-03-27T14:58:03Z</time>
      </trkpt>
      <trkpt lat="44.45202" lon="1.53754">
        <ele>204.60000610352</ele>
        <time>2021-03-27T14:58:05Z</time>
      </trkpt>
      <trkpt lat="44.45205" lon="1.53759">
        <ele>204.39999389648</ele>
        <time>2021-03-27T14:58:08Z</time>
      </trkpt>
      <trkpt lat="44.45208" lon="1.53761">
        <ele>204.39999389648</ele>
        <time>2021-03-27T14:58:10Z</time>
      </trkpt>
      <trkpt lat="44.45212" lon="1.5376">
        <ele>204.39999389648</ele>
        <time>2021-03-27T14:58:13Z</time>
      </trkpt>
      <trkpt lat="44.45214" lon="1.53763">
        <ele>204.39999389648</ele>
        <time>2021-03-27T14:58:15Z</time>
      </trkpt>
      <trkpt lat="44.45219" lon="1.53767">
        <ele>204.80000305176</ele>
        <time>2021-03-27T14:58:18Z</time>
      </trkpt>
      <trkpt lat="44.45223" lon="1.53772">
        <ele>205.39999389648</ele>
        <time>2021-03-27T14:58:21Z</time>
      </trkpt>
      <trkpt lat="44.45226" lon="1.5378">
        <ele>206</ele>
        <time>2021-03-27T14:58:25Z</time>
      </trkpt>
      <trkpt lat="44.45223" lon="1.53794">
        <ele>206.19999694824</ele>
        <time>2021-03-27T14:58:31Z</time>
      </trkpt>
      <trkpt lat="44.45222" lon="1.53798">
        <ele>206.19999694824</ele>
        <time>2021-03-27T14:58:33Z</time>
      </trkpt>
      <trkpt lat="44.4522" lon="1.53801">
        <ele>206.60000610352</ele>
        <time>2021-03-27T14:58:35Z</time>
      </trkpt>
      <trkpt lat="44.45219" lon="1.53803">
        <ele>207</ele>
        <time>2021-03-27T14:58:36Z</time>
      </trkpt>
      <trkpt lat="44.45217" lon="1.53807">
        <ele>208</ele>
        <time>2021-03-27T14:58:38Z</time>
      </trkpt>
      <trkpt lat="44.45214" lon="1.53814">
        <ele>209</ele>
        <time>2021-03-27T14:58:42Z</time>
      </trkpt>
      <trkpt lat="44.45211" lon="1.53819">
        <ele>209.60000610352</ele>
        <time>2021-03-27T14:58:45Z</time>
      </trkpt>
      <trkpt lat="44.45207" lon="1.53821">
        <ele>210.19999694824</ele>
        <time>2021-03-27T14:58:48Z</time>
      </trkpt>
      <trkpt lat="44.45204" lon="1.53822">
        <ele>210.80000305176</ele>
        <time>2021-03-27T14:58:50Z</time>
      </trkpt>
      <trkpt lat="44.452" lon="1.53822">
        <ele>211.19999694824</ele>
        <time>2021-03-27T14:58:52Z</time>
      </trkpt>
      <trkpt lat="44.45194" lon="1.53823">
        <ele>211.60000610352</ele>
        <time>2021-03-27T14:58:56Z</time>
      </trkpt>
      <trkpt lat="44.45178" lon="1.53826">
        <ele>212.19999694824</ele>
        <time>2021-03-27T14:59:04Z</time>
      </trkpt>
      <trkpt lat="44.45176" lon="1.53826">
        <ele>212.19999694824</ele>
        <time>2021-03-27T14:59:05Z</time>
      </trkpt>
      <trkpt lat="44.4516" lon="1.53829">
        <ele>212.60000610352</ele>
        <time>2021-03-27T14:59:13Z</time>
      </trkpt>
      <trkpt lat="44.45153" lon="1.53831">
        <ele>213.39999389648</ele>
        <time>2021-03-27T14:59:18Z</time>
      </trkpt>
      <trkpt lat="44.45152" lon="1.53832">
        <ele>213.60000610352</ele>
        <time>2021-03-27T14:59:19Z</time>
      </trkpt>
      <trkpt lat="44.45151" lon="1.53834">
        <ele>213.80000305176</ele>
        <time>2021-03-27T14:59:20Z</time>
      </trkpt>
      <trkpt lat="44.45155" lon="1.53838">
        <ele>214.39999389648</ele>
        <time>2021-03-27T14:59:25Z</time>
      </trkpt>
      <trkpt lat="44.45155" lon="1.53839">
        <ele>214.60000610352</ele>
        <time>2021-03-27T14:59:26Z</time>
      </trkpt>
      <trkpt lat="44.45158" lon="1.53841">
        <ele>215.39999389648</ele>
        <time>2021-03-27T14:59:29Z</time>
      </trkpt>
      <trkpt lat="44.45159" lon="1.53842">
        <ele>215.39999389648</ele>
        <time>2021-03-27T14:59:30Z</time>
      </trkpt>
      <trkpt lat="44.4516" lon="1.53843">
        <ele>215.60000610352</ele>
        <time>2021-03-27T14:59:31Z</time>
      </trkpt>
      <trkpt lat="44.45163" lon="1.53846">
        <ele>216.39999389648</ele>
        <time>2021-03-27T15:00:33Z</time>
      </trkpt>
      <trkpt lat="44.45168" lon="1.53849">
        <ele>216.39999389648</ele>
        <time>2021-03-27T15:00:37Z</time>
      </trkpt>
      <trkpt lat="44.45178" lon="1.53855">
        <ele>217.19999694824</ele>
        <time>2021-03-27T15:00:44Z</time>
      </trkpt>
      <trkpt lat="44.45179" lon="1.53856">
        <ele>217.39999389648</ele>
        <time>2021-03-27T15:00:45Z</time>
      </trkpt>
      <trkpt lat="44.45187" lon="1.53859">
        <ele>218.19999694824</ele>
        <time>2021-03-27T15:00:51Z</time>
      </trkpt>
      <trkpt lat="44.4519" lon="1.53861">
        <ele>218.39999389648</ele>
        <time>2021-03-27T15:00:53Z</time>
      </trkpt>
      <trkpt lat="44.45196" lon="1.53865">
        <ele>219.80000305176</ele>
        <time>2021-03-27T15:00:58Z</time>
      </trkpt>
      <trkpt lat="44.45206" lon="1.53872">
        <ele>221</ele>
        <time>2021-03-27T15:01:05Z</time>
      </trkpt>
      <trkpt lat="44.45207" lon="1.53872">
        <ele>221.19999694824</ele>
        <time>2021-03-27T15:01:06Z</time>
      </trkpt>
      <trkpt lat="44.45212" lon="1.53875">
        <ele>222.19999694824</ele>
        <time>2021-03-27T15:01:09Z</time>
      </trkpt>
      <trkpt lat="44.45221" lon="1.53878">
        <ele>223.19999694824</ele>
        <time>2021-03-27T15:01:15Z</time>
      </trkpt>
      <trkpt lat="44.45223" lon="1.53878">
        <ele>223.39999389648</ele>
        <time>2021-03-27T15:01:16Z</time>
      </trkpt>
      <trkpt lat="44.45232" lon="1.53881">
        <ele>224.19999694824</ele>
        <time>2021-03-27T15:01:22Z</time>
      </trkpt>
      <trkpt lat="44.45233" lon="1.53881">
        <ele>224.39999389648</ele>
        <time>2021-03-27T15:01:23Z</time>
      </trkpt>
      <trkpt lat="44.4524" lon="1.53884">
        <ele>225.19999694824</ele>
        <time>2021-03-27T15:01:28Z</time>
      </trkpt>
      <trkpt lat="44.45243" lon="1.53885">
        <ele>225.39999389648</ele>
        <time>2021-03-27T15:01:30Z</time>
      </trkpt>
      <trkpt lat="44.45249" lon="1.53888">
        <ele>226.39999389648</ele>
        <time>2021-03-27T15:01:35Z</time>
      </trkpt>
      <trkpt lat="44.45251" lon="1.53889">
        <ele>226.60000610352</ele>
        <time>2021-03-27T15:01:37Z</time>
      </trkpt>
      <trkpt lat="44.45255" lon="1.53891">
        <ele>227.19999694824</ele>
        <time>2021-03-27T15:01:41Z</time>
      </trkpt>
      <trkpt lat="44.45261" lon="1.53893">
        <ele>227.60000610352</ele>
        <time>2021-03-27T15:01:45Z</time>
      </trkpt>
      <trkpt lat="44.45266" lon="1.53895">
        <ele>228.19999694824</ele>
        <time>2021-03-27T15:01:49Z</time>
      </trkpt>
      <trkpt lat="44.4527" lon="1.53898">
        <ele>228.80000305176</ele>
        <time>2021-03-27T15:01:52Z</time>
      </trkpt>
      <trkpt lat="44.45274" lon="1.53901">
        <ele>229.39999389648</ele>
        <time>2021-03-27T15:01:56Z</time>
      </trkpt>
      <trkpt lat="44.45276" lon="1.53902">
        <ele>229.80000305176</ele>
        <time>2021-03-27T15:01:58Z</time>
      </trkpt>
      <trkpt lat="44.45282" lon="1.53905">
        <ele>230.80000305176</ele>
        <time>2021-03-27T15:02:03Z</time>
      </trkpt>
      <trkpt lat="44.45287" lon="1.53908">
        <ele>232</ele>
        <time>2021-03-27T15:02:08Z</time>
      </trkpt>
      <trkpt lat="44.45292" lon="1.53911">
        <ele>232.60000610352</ele>
        <time>2021-03-27T15:02:11Z</time>
      </trkpt>
      <trkpt lat="44.45295" lon="1.53912">
        <ele>233.19999694824</ele>
        <time>2021-03-27T15:02:14Z</time>
      </trkpt>
      <trkpt lat="44.453" lon="1.53915">
        <ele>233.80000305176</ele>
        <time>2021-03-27T15:02:18Z</time>
      </trkpt>
      <trkpt lat="44.45301" lon="1.53916">
        <ele>233.80000305176</ele>
        <time>2021-03-27T15:02:19Z</time>
      </trkpt>
      <trkpt lat="44.45304" lon="1.53917">
        <ele>234.19999694824</ele>
        <time>2021-03-27T15:02:22Z</time>
      </trkpt>
      <trkpt lat="44.45306" lon="1.53917">
        <ele>234.60000610352</ele>
        <time>2021-03-27T15:02:24Z</time>
      </trkpt>
      <trkpt lat="44.45308" lon="1.53917">
        <ele>234.80000305176</ele>
        <time>2021-03-27T15:02:25Z</time>
      </trkpt>
      <trkpt lat="44.45328" lon="1.53904">
        <ele>219.5</ele>
      </trkpt>
      <trkpt lat="44.45355" lon="1.53847">
        <ele>221.9</ele>
      </trkpt>
      <trkpt lat="44.45405" lon="1.53783">
        <ele>225.3</ele>
      </trkpt>
      <trkpt lat="44.45496" lon="1.54194">
        <ele>251.1</ele>
      </trkpt>
      <trkpt lat="44.45439" lon="1.5442">
        <ele>273.3</ele>
      </trkpt>
      <trkpt lat="44.4545" lon="1.54667">
        <ele>290</ele>
      </trkpt>
      <trkpt lat="44.455" lon="1.54804">
        <ele>289.3</ele>
      </trkpt>
      <trkpt lat="44.45503" lon="1.54851">
        <ele>290</ele>
      </trkpt>
      <trkpt lat="44.45411" lon="1.55066">
        <ele>293.9</ele>
      </trkpt>
      <trkpt lat="44.45366" lon="1.55256">
        <ele>287</ele>
      </trkpt>
      <trkpt lat="44.45372" lon="1.55344">
        <ele>285.7</ele>
      </trkpt>
      <trkpt lat="44.4536" lon="1.55451">
        <ele>286</ele>
      </trkpt>
      <trkpt lat="44.45382" lon="1.55582">
        <ele>280.9</ele>
      </trkpt>
      <trkpt lat="44.45397" lon="1.55802">
        <ele>281.4</ele>
      </trkpt>
      <trkpt lat="44.45384" lon="1.55941">
        <ele>287</ele>
      </trkpt>
      <trkpt lat="44.45434" lon="1.56094">
        <ele>289</ele>
      </trkpt>
      <trkpt lat="44.45516" lon="1.56203">
        <ele>286</ele>
      </trkpt>
      <trkpt lat="44.45566" lon="1.56302">
        <ele>282.3</ele>
      </trkpt>
      <trkpt lat="44.45607" lon="1.564">
        <ele>280.8</ele>
      </trkpt>
      <trkpt lat="44.45587" lon="1.56578">
        <ele>290.8</ele>
      </trkpt>
      <trkpt lat="44.45509" lon="1.56695">
        <ele>296.6</ele>
      </trkpt>
      <trkpt lat="44.45307" lon="1.56975">
        <ele>303.7</ele>
      </trkpt>
      <trkpt lat="44.45297" lon="1.57061">
        <ele>309</ele>
      </trkpt>
      <trkpt lat="44.45266" lon="1.57124">
        <ele>306.6</ele>
      </trkpt>
      <trkpt lat="44.45221" lon="1.573">
        <ele>300.7</ele>
      </trkpt>
      <trkpt lat="44.45094" lon="1.575">
        <ele>302.4</ele>
      </trkpt>
      <trkpt lat="44.45019" lon="1.57657">
        <ele>304.6</ele>
      </trkpt>
      <trkpt lat="44.44976" lon="1.57707">
        <ele>302.6</ele>
        <time>2021-03-27T15:02:34Z</time>
      </trkpt>
      <trkpt lat="44.44979" lon="1.57707">
        <ele>304.79998779297</ele>
        <time>2019-02-20T15:46:23Z</time>
      </trkpt>
      <trkpt lat="44.44961" lon="1.57733">
        <ele>305.60000610352</ele>
        <time>2019-02-20T15:46:16Z</time>
      </trkpt>
      <trkpt lat="44.44942" lon="1.57761">
        <ele>305.60000610352</ele>
        <time>2019-02-20T15:46:09Z</time>
      </trkpt>
      <trkpt lat="44.44927" lon="1.57784">
        <ele>305.60000610352</ele>
        <time>2019-02-20T15:46:03Z</time>
      </trkpt>
      <trkpt lat="44.44913" lon="1.5782">
        <ele>305.60000610352</ele>
        <time>2019-02-20T15:45:55Z</time>
      </trkpt>
      <trkpt lat="44.44903" lon="1.57849">
        <ele>304.79998779297</ele>
        <time>2019-02-20T15:45:48Z</time>
      </trkpt>
      <trkpt lat="44.44901" lon="1.57856">
        <ele>304.39999389648</ele>
        <time>2019-02-20T15:45:46Z</time>
      </trkpt>
      <trkpt lat="44.44895" lon="1.57872">
        <ele>303.60000610352</ele>
        <time>2019-02-20T15:45:42Z</time>
      </trkpt>
      <trkpt lat="44.44892" lon="1.57888">
        <ele>303.39999389648</ele>
        <time>2019-02-20T15:45:39Z</time>
      </trkpt>
      <trkpt lat="44.44888" lon="1.57915">
        <ele>302.39999389648</ele>
        <time>2019-02-20T15:45:34Z</time>
      </trkpt>
      <trkpt lat="44.44887" lon="1.57926">
        <ele>302</ele>
        <time>2019-02-20T15:45:32Z</time>
      </trkpt>
      <trkpt lat="44.44886" lon="1.57942">
        <ele>301.60000610352</ele>
        <time>2019-02-20T15:45:29Z</time>
      </trkpt>
      <trkpt lat="44.44886" lon="1.57958">
        <ele>301</ele>
        <time>2019-02-20T15:45:26Z</time>
      </trkpt>
      <trkpt lat="44.44885" lon="1.57968">
        <ele>300.39999389648</ele>
        <time>2019-02-20T15:45:24Z</time>
      </trkpt>
      <trkpt lat="44.44885" lon="1.58">
        <ele>300</ele>
        <time>2019-02-20T15:45:18Z</time>
      </trkpt>
      <trkpt lat="44.44884" lon="1.58016">
        <ele>299.79998779297</ele>
        <time>2019-02-20T15:45:15Z</time>
      </trkpt>
      <trkpt lat="44.44885" lon="1.58038">
        <ele>299.20001220703</ele>
        <time>2019-02-20T15:45:11Z</time>
      </trkpt>
      <trkpt lat="44.44885" lon="1.58058">
        <ele>298.79998779297</ele>
        <time>2019-02-20T15:45:07Z</time>
      </trkpt>
      <trkpt lat="44.44885" lon="1.58074">
        <ele>298.20001220703</ele>
        <time>2019-02-20T15:45:04Z</time>
      </trkpt>
      <trkpt lat="44.44884" lon="1.581">
        <ele>297.60000610352</ele>
        <time>2019-02-20T15:44:59Z</time>
      </trkpt>
      <trkpt lat="44.44884" lon="1.58111">
        <ele>297.20001220703</ele>
        <time>2019-02-20T15:44:57Z</time>
      </trkpt>
      <trkpt lat="44.44884" lon="1.58117">
        <ele>296.79998779297</ele>
        <time>2019-02-20T15:44:56Z</time>
      </trkpt>
      <trkpt lat="44.44885" lon="1.58139">
        <ele>296.60000610352</ele>
        <time>2019-02-20T15:44:52Z</time>
      </trkpt>
      <trkpt lat="44.44884" lon="1.58144">
        <ele>296.39999389648</ele>
        <time>2019-02-20T15:44:51Z</time>
      </trkpt>
      <trkpt lat="44.44884" lon="1.58162">
        <ele>296.39999389648</ele>
        <time>2019-02-20T15:44:48Z</time>
      </trkpt>
      <trkpt lat="44.44885" lon="1.58174">
        <ele>296.20001220703</ele>
        <time>2019-02-20T15:44:46Z</time>
      </trkpt>
      <trkpt lat="44.44884" lon="1.5818">
        <ele>295.79998779297</ele>
        <time>2019-02-20T15:44:45Z</time>
      </trkpt>
      <trkpt lat="44.44885" lon="1.58191">
        <ele>295.20001220703</ele>
        <time>2019-02-20T15:44:43Z</time>
      </trkpt>
      <trkpt lat="44.44885" lon="1.58203">
        <ele>294.79998779297</ele>
        <time>2019-02-20T15:44:41Z</time>
      </trkpt>
      <trkpt lat="44.44884" lon="1.58215">
        <ele>294.20001220703</ele>
        <time>2019-02-20T15:44:39Z</time>
      </trkpt>
      <trkpt lat="44.44883" lon="1.58256">
        <ele>293.60000610352</ele>
        <time>2019-02-20T15:44:33Z</time>
      </trkpt>
      <trkpt lat="44.44888" lon="1.58291">
        <ele>294.20001220703</ele>
        <time>2019-02-20T15:44:28Z</time>
      </trkpt>
      <trkpt lat="44.44889" lon="1.58301">
        <ele>294</ele>
        <time>2019-02-20T15:44:26Z</time>
      </trkpt>
      <trkpt lat="44.44889" lon="1.58307">
        <ele>294.20001220703</ele>
        <time>2019-02-20T15:44:25Z</time>
      </trkpt>
      <trkpt lat="44.44892" lon="1.58319">
        <ele>294.60000610352</ele>
        <time>2019-02-20T15:44:23Z</time>
      </trkpt>
      <trkpt lat="44.44894" lon="1.58342">
        <ele>295.20001220703</ele>
        <time>2019-02-20T15:44:18Z</time>
      </trkpt>
      <trkpt lat="44.44892" lon="1.58352">
        <ele>295</ele>
        <time>2019-02-20T15:44:15Z</time>
      </trkpt>
      <trkpt lat="44.44892" lon="1.58355">
        <ele>294.79998779297</ele>
        <time>2019-02-20T15:44:14Z</time>
      </trkpt>
      <trkpt lat="44.44885" lon="1.58371">
        <ele>293.60000610352</ele>
        <time>2019-02-20T15:44:09Z</time>
      </trkpt>
      <trkpt lat="44.44884" lon="1.58375">
        <ele>293.79998779297</ele>
        <time>2019-02-20T15:44:08Z</time>
      </trkpt>
      <trkpt lat="44.44883" lon="1.58379">
        <ele>294</ele>
        <time>2019-02-20T15:44:07Z</time>
      </trkpt>
      <trkpt lat="44.44883" lon="1.58394">
        <ele>294.79998779297</ele>
        <time>2019-02-20T15:44:04Z</time>
      </trkpt>
      <trkpt lat="44.44885" lon="1.58398">
        <ele>295.20001220703</ele>
        <time>2019-02-20T15:44:03Z</time>
      </trkpt>
      <trkpt lat="44.44896" lon="1.58402">
        <ele>296.20001220703</ele>
        <time>2019-02-20T15:44:00Z</time>
      </trkpt>
      <trkpt lat="44.44899" lon="1.58404">
        <ele>296.39999389648</ele>
        <time>2019-02-20T15:43:59Z</time>
      </trkpt>
      <trkpt lat="44.44903" lon="1.58404">
        <ele>297</ele>
        <time>2019-02-20T15:43:58Z</time>
      </trkpt>
      <trkpt lat="44.44908" lon="1.58404">
        <ele>297.60000610352</ele>
        <time>2019-02-20T15:43:57Z</time>
      </trkpt>
      <trkpt lat="44.44919" lon="1.584">
        <ele>298.79998779297</ele>
        <time>2019-02-20T15:43:55Z</time>
      </trkpt>
      <trkpt lat="44.44925" lon="1.58399">
        <ele>299.20001220703</ele>
        <time>2019-02-20T15:43:54Z</time>
      </trkpt>
      <trkpt lat="44.44938" lon="1.58396">
        <ele>300.60000610352</ele>
        <time>2019-02-20T15:43:52Z</time>
      </trkpt>
      <trkpt lat="44.44951" lon="1.58391">
        <ele>302</ele>
        <time>2019-02-20T15:43:50Z</time>
      </trkpt>
      <trkpt lat="44.44964" lon="1.58386">
        <ele>303.60000610352</ele>
        <time>2019-02-20T15:43:48Z</time>
      </trkpt>
      <trkpt lat="44.4497" lon="1.58384">
        <ele>304.60000610352</ele>
        <time>2019-02-20T15:43:47Z</time>
      </trkpt>
      <trkpt lat="44.44975" lon="1.58381">
        <ele>305.60000610352</ele>
        <time>2019-02-20T15:43:46Z</time>
      </trkpt>
      <trkpt lat="44.4498" lon="1.58377">
        <ele>306.60000610352</ele>
        <time>2019-02-20T15:43:45Z</time>
      </trkpt>
      <trkpt lat="44.44989" lon="1.58368">
        <ele>307.79998779297</ele>
        <time>2019-02-20T15:43:43Z</time>
      </trkpt>
      <trkpt lat="44.44993" lon="1.58362">
        <ele>308.60000610352</ele>
        <time>2019-02-20T15:43:42Z</time>
      </trkpt>
      <trkpt lat="44.44996" lon="1.58356">
        <ele>309.20001220703</ele>
        <time>2019-02-20T15:43:41Z</time>
      </trkpt>
      <trkpt lat="44.45005" lon="1.58336">
        <ele>310.79998779297</ele>
        <time>2019-02-20T15:43:38Z</time>
      </trkpt>
      <trkpt lat="44.45008" lon="1.58328">
        <ele>311.39999389648</ele>
        <time>2019-02-20T15:43:37Z</time>
      </trkpt>
      <trkpt lat="44.4501" lon="1.58321">
        <ele>312</ele>
        <time>2019-02-20T15:43:36Z</time>
      </trkpt>
      <trkpt lat="44.45014" lon="1.58298">
        <ele>313.60000610352</ele>
        <time>2019-02-20T15:43:33Z</time>
      </trkpt>
      <trkpt lat="44.45016" lon="1.5829">
        <ele>314.79998779297</ele>
        <time>2019-02-20T15:43:32Z</time>
      </trkpt>
      <trkpt lat="44.45018" lon="1.58282">
        <ele>315.39999389648</ele>
        <time>2019-02-20T15:43:31Z</time>
      </trkpt>
      <trkpt lat="44.4502" lon="1.58274">
        <ele>315.60000610352</ele>
        <time>2019-02-20T15:43:30Z</time>
      </trkpt>
      <trkpt lat="44.45021" lon="1.58266">
        <ele>316.20001220703</ele>
        <time>2019-02-20T15:43:29Z</time>
      </trkpt>
      <trkpt lat="44.45024" lon="1.58253">
        <ele>317</ele>
        <time>2019-02-20T15:43:27Z</time>
      </trkpt>
      <trkpt lat="44.45024" lon="1.58247">
        <ele>317.20001220703</ele>
        <time>2019-02-20T15:43:26Z</time>
      </trkpt>
      <trkpt lat="44.45026" lon="1.58242">
        <ele>317.79998779297</ele>
        <time>2019-02-20T15:43:25Z</time>
      </trkpt>
      <trkpt lat="44.45029" lon="1.58235">
        <ele>319</ele>
        <time>2019-02-20T15:43:23Z</time>
      </trkpt>
      <trkpt lat="44.45029" lon="1.58231">
        <ele>319.39999389648</ele>
        <time>2019-02-20T15:43:22Z</time>
      </trkpt>
      <trkpt lat="44.45031" lon="1.58226">
        <ele>320.20001220703</ele>
        <time>2019-02-20T15:43:20Z</time>
      </trkpt>
      <trkpt lat="44.45033" lon="1.58224">
        <ele>320.39999389648</ele>
        <time>2019-02-20T15:43:19Z</time>
      </trkpt>
      <trkpt lat="44.4504" lon="1.58224">
        <ele>320.39999389648</ele>
        <time>2019-02-20T15:43:16Z</time>
      </trkpt>
      <trkpt lat="44.45042" lon="1.58225">
        <ele>320.60000610352</ele>
        <time>2019-02-20T15:43:15Z</time>
      </trkpt>
      <trkpt lat="44.45054" lon="1.58237">
        <ele>321</ele>
        <time>2019-02-20T15:43:11Z</time>
      </trkpt>
      <trkpt lat="44.45059" lon="1.58244">
        <ele>321.39999389648</ele>
        <time>2019-02-20T15:43:09Z</time>
      </trkpt>
      <trkpt lat="44.45068" lon="1.58254">
        <ele>322.39999389648</ele>
        <time>2019-02-20T15:43:06Z</time>
      </trkpt>
      <trkpt lat="44.45076" lon="1.58262">
        <ele>323</ele>
        <time>2019-02-20T15:43:03Z</time>
      </trkpt>
      <trkpt lat="44.45092" lon="1.5828">
        <ele>323.60000610352</ele>
        <time>2019-02-20T15:42:56Z</time>
      </trkpt>
      <trkpt lat="44.45095" lon="1.58283">
        <ele>323.60000610352</ele>
        <time>2019-02-20T15:42:48Z</time>
      </trkpt>
      <trkpt lat="44.45095" lon="1.58283">
        <ele>323.60000610352</ele>
        <time>2019-02-20T15:42:29Z</time>
      </trkpt>
      <trkpt lat="44.45095" lon="1.58284">
        <ele>323.60000610352</ele>
        <time>2019-02-20T15:42:16Z</time>
      </trkpt>
      <trkpt lat="44.45095" lon="1.58284">
        <ele>323.60000610352</ele>
        <time>2019-02-20T15:42:02Z</time>
      </trkpt>
      <trkpt lat="44.45096" lon="1.58284">
        <ele>323.79998779297</ele>
        <time>2019-02-20T15:41:46Z</time>
      </trkpt>
      <trkpt lat="44.45096" lon="1.58284">
        <ele>323.60000610352</ele>
        <time>2019-02-20T15:41:29Z</time>
      </trkpt>
      <trkpt lat="44.45096" lon="1.58284">
        <ele>323.60000610352</ele>
        <time>2019-02-20T15:41:21Z</time>
      </trkpt>
      <trkpt lat="44.45096" lon="1.58284">
        <ele>323.60000610352</ele>
        <time>2019-02-20T15:41:05Z</time>
      </trkpt>
      <trkpt lat="44.45096" lon="1.58284">
        <ele>323.60000610352</ele>
        <time>2019-02-20T15:40:54Z</time>
      </trkpt>
      <trkpt lat="44.45096" lon="1.58284">
        <ele>323.79998779297</ele>
        <time>2019-02-20T15:40:42Z</time>
      </trkpt>
      <trkpt lat="44.45096" lon="1.58284">
        <ele>323.79998779297</ele>
        <time>2019-02-20T15:40:28Z</time>
      </trkpt>
      <trkpt lat="44.45096" lon="1.58285">
        <ele>323.79998779297</ele>
        <time>2019-02-20T15:40:14Z</time>
      </trkpt>
      <trkpt lat="44.45096" lon="1.58285">
        <ele>323.79998779297</ele>
        <time>2019-02-20T15:39:58Z</time>
      </trkpt>
      <trkpt lat="44.45097" lon="1.58285">
        <ele>323.79998779297</ele>
        <time>2019-02-20T15:39:44Z</time>
      </trkpt>
      <trkpt lat="44.45097" lon="1.58285">
        <ele>323.79998779297</ele>
        <time>2019-02-20T15:39:27Z</time>
      </trkpt>
      <trkpt lat="44.45097" lon="1.58285">
        <ele>323.79998779297</ele>
        <time>2019-02-20T15:39:13Z</time>
      </trkpt>
      <trkpt lat="44.45097" lon="1.58285">
        <ele>323.60000610352</ele>
        <time>2019-02-20T15:38:59Z</time>
      </trkpt>
      <trkpt lat="44.45097" lon="1.58285">
        <ele>323.79998779297</ele>
        <time>2019-02-20T15:38:47Z</time>
      </trkpt>
      <trkpt lat="44.45097" lon="1.58285">
        <ele>323.60000610352</ele>
        <time>2019-02-20T15:38:35Z</time>
      </trkpt>
      <trkpt lat="44.45098" lon="1.58286">
        <ele>323.79998779297</ele>
        <time>2019-02-20T15:38:25Z</time>
      </trkpt>
      <trkpt lat="44.45098" lon="1.58286">
        <ele>323.60000610352</ele>
        <time>2019-02-20T15:38:12Z</time>
      </trkpt>
      <trkpt lat="44.45098" lon="1.58286">
        <ele>323.60000610352</ele>
        <time>2019-02-20T15:37:59Z</time>
      </trkpt>
      <trkpt lat="44.45098" lon="1.58286">
        <ele>323.60000610352</ele>
        <time>2019-02-20T15:37:49Z</time>
      </trkpt>
      <trkpt lat="44.45099" lon="1.58287">
        <ele>323.79998779297</ele>
        <time>2019-02-20T15:37:45Z</time>
      </trkpt>
      <trkpt lat="44.45108" lon="1.58296">
        <ele>323.79998779297</ele>
        <time>2019-02-20T15:37:40Z</time>
      </trkpt>
      <trkpt lat="44.45115" lon="1.58302">
        <ele>323.79998779297</ele>
        <time>2019-02-20T15:37:36Z</time>
      </trkpt>
      <trkpt lat="44.45119" lon="1.58305">
        <ele>323.60000610352</ele>
        <time>2019-02-20T15:37:34Z</time>
      </trkpt>
      <trkpt lat="44.45133" lon="1.58318">
        <ele>322.60000610352</ele>
        <time>2019-02-20T15:37:26Z</time>
      </trkpt>
      <trkpt lat="44.45142" lon="1.58333">
        <ele>321.60000610352</ele>
        <time>2019-02-20T15:37:19Z</time>
      </trkpt>
      <trkpt lat="44.45148" lon="1.58343">
        <ele>320.39999389648</ele>
        <time>2019-02-20T15:37:14Z</time>
      </trkpt>
      <trkpt lat="44.45149" lon="1.58345">
        <ele>320.20001220703</ele>
        <time>2019-02-20T15:37:13Z</time>
      </trkpt>
      <trkpt lat="44.45155" lon="1.58354">
        <ele>319.39999389648</ele>
        <time>2019-02-20T15:37:09Z</time>
      </trkpt>
      <trkpt lat="44.45159" lon="1.58361">
        <ele>318.39999389648</ele>
        <time>2019-02-20T15:37:06Z</time>
      </trkpt>
      <trkpt lat="44.4516" lon="1.58363">
        <ele>318</ele>
        <time>2019-02-20T15:37:05Z</time>
      </trkpt>
      <trkpt lat="44.45167" lon="1.58373">
        <ele>317</ele>
        <time>2019-02-20T15:37:00Z</time>
      </trkpt>
      <trkpt lat="44.4517" lon="1.58377">
        <ele>316.39999389648</ele>
        <time>2019-02-20T15:36:58Z</time>
      </trkpt>
      <trkpt lat="44.45174" lon="1.58381">
        <ele>316</ele>
        <time>2019-02-20T15:36:56Z</time>
      </trkpt>
      <trkpt lat="44.4518" lon="1.5839">
        <ele>314.60000610352</ele>
        <time>2019-02-20T15:36:52Z</time>
      </trkpt>
      <trkpt lat="44.45184" lon="1.58403">
        <ele>313.60000610352</ele>
        <time>2019-02-20T15:36:48Z</time>
      </trkpt>
      <trkpt lat="44.45186" lon="1.58411">
        <ele>313.20001220703</ele>
        <time>2019-02-20T15:36:46Z</time>
      </trkpt>
      <trkpt lat="44.45189" lon="1.58422">
        <ele>312.39999389648</ele>
        <time>2019-02-20T15:36:43Z</time>
      </trkpt>
      <trkpt lat="44.45193" lon="1.58436">
        <ele>311.60000610352</ele>
        <time>2019-02-20T15:36:39Z</time>
      </trkpt>
      <trkpt lat="44.45194" lon="1.5844">
        <ele>311.39999389648</ele>
        <time>2019-02-20T15:36:38Z</time>
      </trkpt>
      <trkpt lat="44.45198" lon="1.58455">
        <ele>310.60000610352</ele>
        <time>2019-02-20T15:36:34Z</time>
      </trkpt>
      <trkpt lat="44.45199" lon="1.58462">
        <ele>310.39999389648</ele>
        <time>2019-02-20T15:36:32Z</time>
      </trkpt>
      <trkpt lat="44.45204" lon="1.58477">
        <ele>309.60000610352</ele>
        <time>2019-02-20T15:36:28Z</time>
      </trkpt>
      <trkpt lat="44.45206" lon="1.58488">
        <ele>309.20001220703</ele>
        <time>2019-02-20T15:36:25Z</time>
      </trkpt>
      <trkpt lat="44.45209" lon="1.58499">
        <ele>308.79998779297</ele>
        <time>2019-02-20T15:36:22Z</time>
      </trkpt>
      <trkpt lat="44.45214" lon="1.58514">
        <ele>308.20001220703</ele>
        <time>2019-02-20T15:36:18Z</time>
      </trkpt>
      <trkpt lat="44.45216" lon="1.58521">
        <ele>308</ele>
        <time>2019-02-20T15:36:16Z</time>
      </trkpt>
      <trkpt lat="44.45225" lon="1.58549">
        <ele>307</ele>
        <time>2019-02-20T15:36:08Z</time>
      </trkpt>
      <trkpt lat="44.45232" lon="1.58575">
        <ele>306.20001220703</ele>
        <time>2019-02-20T15:36:00Z</time>
      </trkpt>
      <trkpt lat="44.45233" lon="1.58582">
        <ele>306</ele>
        <time>2019-02-20T15:35:58Z</time>
      </trkpt>
      <trkpt lat="44.45236" lon="1.58592">
        <ele>305.60000610352</ele>
        <time>2019-02-20T15:35:55Z</time>
      </trkpt>
      <trkpt lat="44.45242" lon="1.58616">
        <ele>305</ele>
        <time>2019-02-20T15:35:48Z</time>
      </trkpt>
      <trkpt lat="44.45248" lon="1.58638">
        <ele>304.39999389648</ele>
        <time>2019-02-20T15:35:41Z</time>
      </trkpt>
      <trkpt lat="44.45252" lon="1.58652">
        <ele>303.79998779297</ele>
        <time>2019-02-20T15:35:36Z</time>
      </trkpt>
      <trkpt lat="44.45253" lon="1.58654">
        <ele>303.79998779297</ele>
        <time>2019-02-20T15:35:35Z</time>
      </trkpt>
      <trkpt lat="44.45253" lon="1.58657">
        <ele>303.60000610352</ele>
        <time>2019-02-20T15:35:34Z</time>
      </trkpt>
      <trkpt lat="44.45253" lon="1.58663">
        <ele>303.39999389648</ele>
        <time>2019-02-20T15:35:32Z</time>
      </trkpt>
      <trkpt lat="44.45257" lon="1.58673">
        <ele>302.60000610352</ele>
        <time>2019-02-20T15:35:28Z</time>
      </trkpt>
      <trkpt lat="44.45262" lon="1.58684">
        <ele>302</ele>
        <time>2019-02-20T15:35:23Z</time>
      </trkpt>
      <trkpt lat="44.45266" lon="1.58688">
        <ele>301.60000610352</ele>
        <time>2019-02-20T15:35:21Z</time>
      </trkpt>
      <trkpt lat="44.45276" lon="1.58694">
        <ele>300.60000610352</ele>
        <time>2019-02-20T15:35:16Z</time>
      </trkpt>
      <trkpt lat="44.45288" lon="1.58699">
        <ele>299.60000610352</ele>
        <time>2019-02-20T15:35:10Z</time>
      </trkpt>
      <trkpt lat="44.45291" lon="1.587">
        <ele>299.39999389648</ele>
        <time>2019-02-20T15:35:09Z</time>
      </trkpt>
      <trkpt lat="44.45303" lon="1.58705">
        <ele>298.39999389648</ele>
        <time>2019-02-20T15:35:04Z</time>
      </trkpt>
      <trkpt lat="44.45305" lon="1.58706">
        <ele>298.20001220703</ele>
        <time>2019-02-20T15:35:03Z</time>
      </trkpt>
      <trkpt lat="44.45315" lon="1.58709">
        <ele>297.20001220703</ele>
        <time>2019-02-20T15:34:58Z</time>
      </trkpt>
      <trkpt lat="44.45316" lon="1.5871">
        <ele>297.20001220703</ele>
        <time>2019-02-20T15:34:57Z</time>
      </trkpt>
      <trkpt lat="44.45318" lon="1.58711">
        <ele>297</ele>
        <time>2019-02-20T15:34:56Z</time>
      </trkpt>
      <trkpt lat="44.45325" lon="1.58714">
        <ele>296.20001220703</ele>
        <time>2019-02-20T15:34:52Z</time>
      </trkpt>
      <trkpt lat="44.4533" lon="1.58716">
        <ele>295.60000610352</ele>
        <time>2019-02-20T15:34:49Z</time>
      </trkpt>
      <trkpt lat="44.45335" lon="1.58718">
        <ele>295</ele>
        <time>2019-02-20T15:34:46Z</time>
      </trkpt>
      <trkpt lat="44.45342" lon="1.5872">
        <ele>294.20001220703</ele>
        <time>2019-02-20T15:34:42Z</time>
      </trkpt>
      <trkpt lat="44.45349" lon="1.58723">
        <ele>294</ele>
        <time>2019-02-20T15:34:38Z</time>
      </trkpt>
      <trkpt lat="44.45351" lon="1.58723">
        <ele>293.60000610352</ele>
        <time>2019-02-20T15:34:36Z</time>
      </trkpt>
      <trkpt lat="44.45359" lon="1.58726">
        <ele>293</ele>
        <time>2019-02-20T15:34:30Z</time>
      </trkpt>
      <trkpt lat="44.45371" lon="1.58728">
        <ele>292.20001220703</ele>
        <time>2019-02-20T15:34:23Z</time>
      </trkpt>
      <trkpt lat="44.45375" lon="1.58729">
        <ele>291.79998779297</ele>
        <time>2019-02-20T15:34:21Z</time>
      </trkpt>
      <trkpt lat="44.45383" lon="1.58729">
        <ele>291</ele>
        <time>2019-02-20T15:34:17Z</time>
      </trkpt>
      <trkpt lat="44.45387" lon="1.5873">
        <ele>290.79998779297</ele>
        <time>2019-02-20T15:34:15Z</time>
      </trkpt>
      <trkpt lat="44.45392" lon="1.58729">
        <ele>289.79998779297</ele>
        <time>2019-02-20T15:34:11Z</time>
      </trkpt>
      <trkpt lat="44.45393" lon="1.58729">
        <ele>289.79998779297</ele>
        <time>2019-02-20T15:34:10Z</time>
      </trkpt>
      <trkpt lat="44.45402" lon="1.58731">
        <ele>288.60000610352</ele>
        <time>2019-02-20T15:34:05Z</time>
      </trkpt>
      <trkpt lat="44.45407" lon="1.58734">
        <ele>287.79998779297</ele>
        <time>2019-02-20T15:34:01Z</time>
      </trkpt>
      <trkpt lat="44.45408" lon="1.58735">
        <ele>287.60000610352</ele>
        <time>2019-02-20T15:34:00Z</time>
      </trkpt>
      <trkpt lat="44.45411" lon="1.58737">
        <ele>287.39999389648</ele>
        <time>2019-02-20T15:33:58Z</time>
      </trkpt>
      <trkpt lat="44.45417" lon="1.58742">
        <ele>286.60000610352</ele>
        <time>2019-02-20T15:33:54Z</time>
      </trkpt>
      <trkpt lat="44.45421" lon="1.58743">
        <ele>285.79998779297</ele>
        <time>2019-02-20T15:33:51Z</time>
      </trkpt>
      <trkpt lat="44.45424" lon="1.58745">
        <ele>285.39999389648</ele>
        <time>2019-02-20T15:33:48Z</time>
      </trkpt>
      <trkpt lat="44.45434" lon="1.58747">
        <ele>284.39999389648</ele>
        <time>2019-02-20T15:33:42Z</time>
      </trkpt>
      <trkpt lat="44.45443" lon="1.58745">
        <ele>283.20001220703</ele>
        <time>2019-02-20T15:33:36Z</time>
      </trkpt>
      <trkpt lat="44.45443" lon="1.58745">
        <ele>283.20001220703</ele>
        <time>2019-02-20T15:33:35Z</time>
      </trkpt>
      <trkpt lat="44.45449" lon="1.58741">
        <ele>282.20001220703</ele>
        <time>2019-02-20T15:33:31Z</time>
      </trkpt>
      <trkpt lat="44.45453" lon="1.58738">
        <ele>281.39999389648</ele>
        <time>2019-02-20T15:33:27Z</time>
      </trkpt>
      <trkpt lat="44.45456" lon="1.58736">
        <ele>281.20001220703</ele>
        <time>2019-02-20T15:33:25Z</time>
      </trkpt>
      <trkpt lat="44.45462" lon="1.58733">
        <ele>280</ele>
        <time>2019-02-20T15:33:19Z</time>
      </trkpt>
      <trkpt lat="44.45467" lon="1.5873">
        <ele>278.79998779297</ele>
        <time>2019-02-20T15:33:14Z</time>
      </trkpt>
      <trkpt lat="44.45474" lon="1.58728">
        <ele>277.60000610352</ele>
        <time>2019-02-20T15:33:09Z</time>
      </trkpt>
      <trkpt lat="44.45478" lon="1.58729">
        <ele>276.39999389648</ele>
        <time>2019-02-20T15:33:05Z</time>
      </trkpt>
      <trkpt lat="44.45484" lon="1.58732">
        <ele>275.39999389648</ele>
        <time>2019-02-20T15:33:00Z</time>
      </trkpt>
      <trkpt lat="44.45487" lon="1.58735">
        <ele>274.79998779297</ele>
        <time>2019-02-20T15:32:57Z</time>
      </trkpt>
      <trkpt lat="44.45489" lon="1.58737">
        <ele>274.20001220703</ele>
        <time>2019-02-20T15:32:55Z</time>
      </trkpt>
      <trkpt lat="44.45491" lon="1.5874">
        <ele>274</ele>
        <time>2019-02-20T15:32:53Z</time>
      </trkpt>
      <trkpt lat="44.45493" lon="1.58743">
        <ele>273.20001220703</ele>
        <time>2019-02-20T15:32:50Z</time>
      </trkpt>
      <trkpt lat="44.45498" lon="1.58753">
        <ele>272</ele>
        <time>2019-02-20T15:32:44Z</time>
      </trkpt>
      <trkpt lat="44.45502" lon="1.58761">
        <ele>271</ele>
        <time>2019-02-20T15:32:39Z</time>
      </trkpt>
      <trkpt lat="44.45504" lon="1.58764">
        <ele>270.60000610352</ele>
        <time>2019-02-20T15:32:37Z</time>
      </trkpt>
      <trkpt lat="44.45507" lon="1.58773">
        <ele>269.79998779297</ele>
        <time>2019-02-20T15:32:31Z</time>
      </trkpt>
      <trkpt lat="44.45509" lon="1.5878">
        <ele>268.79998779297</ele>
        <time>2019-02-20T15:32:26Z</time>
      </trkpt>
      <trkpt lat="44.45511" lon="1.58785">
        <ele>268.39999389648</ele>
        <time>2019-02-20T15:32:23Z</time>
      </trkpt>
      <trkpt lat="44.45513" lon="1.5879">
        <ele>267.79998779297</ele>
        <time>2019-02-20T15:32:20Z</time>
      </trkpt>
      <trkpt lat="44.45516" lon="1.58795">
        <ele>267</ele>
        <time>2019-02-20T15:32:16Z</time>
      </trkpt>
      <trkpt lat="44.45516" lon="1.58797">
        <ele>266.79998779297</ele>
        <time>2019-02-20T15:32:15Z</time>
      </trkpt>
      <trkpt lat="44.45516" lon="1.58798">
        <ele>266.79998779297</ele>
        <time>2019-02-20T15:32:14Z</time>
      </trkpt>
      <trkpt lat="44.45518" lon="1.58805">
        <ele>265.79998779297</ele>
        <time>2019-02-20T15:32:10Z</time>
      </trkpt>
      <trkpt lat="44.45519" lon="1.58807">
        <ele>265.60000610352</ele>
        <time>2019-02-20T15:32:09Z</time>
      </trkpt>
      <trkpt lat="44.4552" lon="1.58811">
        <ele>265</ele>
        <time>2019-02-20T15:32:06Z</time>
      </trkpt>
      <trkpt lat="44.45521" lon="1.58811">
        <ele>264.79998779297</ele>
        <time>2019-02-20T15:32:05Z</time>
      </trkpt>
      <trkpt lat="44.45522" lon="1.58814">
        <ele>264.60000610352</ele>
        <time>2019-02-20T15:32:03Z</time>
      </trkpt>
      <trkpt lat="44.45523" lon="1.58817">
        <ele>264.20001220703</ele>
        <time>2019-02-20T15:32:01Z</time>
      </trkpt>
      <trkpt lat="44.45525" lon="1.58823">
        <ele>263.79998779297</ele>
        <time>2019-02-20T15:31:58Z</time>
      </trkpt>
      <trkpt lat="44.45526" lon="1.58825">
        <ele>263.60000610352</ele>
        <time>2019-02-20T15:31:57Z</time>
      </trkpt>
      <trkpt lat="44.45527" lon="1.58825">
        <ele>263.39999389648</ele>
        <time>2019-02-20T15:31:56Z</time>
      </trkpt>
      <trkpt lat="44.45528" lon="1.58831">
        <ele>262.20001220703</ele>
        <time>2019-02-20T15:31:52Z</time>
      </trkpt>
      <trkpt lat="44.45531" lon="1.58839">
        <ele>261.20001220703</ele>
        <time>2019-02-20T15:31:47Z</time>
      </trkpt>
      <trkpt lat="44.45533" lon="1.58842">
        <ele>260.60000610352</ele>
        <time>2019-02-20T15:31:45Z</time>
      </trkpt>
      <trkpt lat="44.45533" lon="1.58845">
        <ele>260</ele>
        <time>2019-02-20T15:31:43Z</time>
      </trkpt>
      <trkpt lat="44.45538" lon="1.58851">
        <ele>259</ele>
        <time>2019-02-20T15:31:39Z</time>
      </trkpt>
      <trkpt lat="44.45541" lon="1.58859">
        <ele>258</ele>
        <time>2019-02-20T15:31:35Z</time>
      </trkpt>
      <trkpt lat="44.45541" lon="1.58861">
        <ele>257.60000610352</ele>
        <time>2019-02-20T15:31:34Z</time>
      </trkpt>
      <trkpt lat="44.45542" lon="1.58863">
        <ele>257.39999389648</ele>
        <time>2019-02-20T15:31:33Z</time>
      </trkpt>
      <trkpt lat="44.45545" lon="1.58871">
        <ele>256.79998779297</ele>
        <time>2019-02-20T15:31:28Z</time>
      </trkpt>
      <trkpt lat="44.45545" lon="1.58871">
        <ele>256.79998779297</ele>
        <time>2019-02-20T15:31:08Z</time>
      </trkpt>
      <trkpt lat="44.45545" lon="1.58871">
        <ele>256.60000610352</ele>
        <time>2019-02-20T15:30:51Z</time>
      </trkpt>
      <trkpt lat="44.45545" lon="1.58872">
        <ele>256.79998779297</ele>
        <time>2019-02-20T15:30:33Z</time>
      </trkpt>
      <trkpt lat="44.45545" lon="1.58872">
        <ele>256.79998779297</ele>
        <time>2019-02-20T15:30:17Z</time>
      </trkpt>
      <trkpt lat="44.45545" lon="1.58872">
        <ele>256.79998779297</ele>
        <time>2019-02-20T15:29:59Z</time>
      </trkpt>
      <trkpt lat="44.45545" lon="1.58872">
        <ele>257</ele>
        <time>2019-02-20T15:29:48Z</time>
      </trkpt>
      <trkpt lat="44.45545" lon="1.58872">
        <ele>256.79998779297</ele>
        <time>2019-02-20T15:29:32Z</time>
      </trkpt>
      <trkpt lat="44.45545" lon="1.58872">
        <ele>256.79998779297</ele>
        <time>2019-02-20T15:29:17Z</time>
      </trkpt>
      <trkpt lat="44.45545" lon="1.58872">
        <ele>256.79998779297</ele>
        <time>2019-02-20T15:29:03Z</time>
      </trkpt>
      <trkpt lat="44.45545" lon="1.58872">
        <ele>256.79998779297</ele>
        <time>2019-02-20T15:28:51Z</time>
      </trkpt>
      <trkpt lat="44.45545" lon="1.58872">
        <ele>256.79998779297</ele>
        <time>2019-02-20T15:28:37Z</time>
      </trkpt>
      <trkpt lat="44.45545" lon="1.58872">
        <ele>256.79998779297</ele>
        <time>2019-02-20T15:28:28Z</time>
      </trkpt>
      <trkpt lat="44.45545" lon="1.58872">
        <ele>257</ele>
        <time>2019-02-20T15:28:16Z</time>
      </trkpt>
      <trkpt lat="44.45545" lon="1.58872">
        <ele>256.79998779297</ele>
        <time>2019-02-20T15:27:59Z</time>
      </trkpt>
      <trkpt lat="44.45545" lon="1.58873">
        <ele>256.79998779297</ele>
        <time>2019-02-20T15:27:56Z</time>
      </trkpt>
      <trkpt lat="44.45545" lon="1.58873">
        <ele>256.39999389648</ele>
        <time>2019-02-20T15:27:54Z</time>
      </trkpt>
      <trkpt lat="44.45545" lon="1.58875">
        <ele>256.20001220703</ele>
        <time>2019-02-20T15:27:53Z</time>
      </trkpt>
      <trkpt lat="44.45549" lon="1.58875">
        <ele>255.60000610352</ele>
        <time>2019-02-20T15:27:50Z</time>
      </trkpt>
      <trkpt lat="44.45551" lon="1.58875">
        <ele>255.39999389648</ele>
        <time>2019-02-20T15:27:49Z</time>
      </trkpt>
      <trkpt lat="44.45557" lon="1.58876">
        <ele>254.60000610352</ele>
        <time>2019-02-20T15:27:45Z</time>
      </trkpt>
      <trkpt lat="44.45562" lon="1.58875">
        <ele>254.19999694824</ele>
        <time>2019-02-20T15:27:43Z</time>
      </trkpt>
      <trkpt lat="44.45577" lon="1.58863">
        <ele>254</ele>
        <time>2019-02-20T15:27:37Z</time>
      </trkpt>
      <trkpt lat="44.45581" lon="1.58854">
        <ele>253.60000610352</ele>
        <time>2019-02-20T15:27:34Z</time>
      </trkpt>
      <trkpt lat="44.45585" lon="1.58845">
        <ele>253.19999694824</ele>
        <time>2019-02-20T15:27:31Z</time>
      </trkpt>
      <trkpt lat="44.45588" lon="1.58835">
        <ele>252.39999389648</ele>
        <time>2019-02-20T15:27:28Z</time>
      </trkpt>
      <trkpt lat="44.45587" lon="1.58821">
        <ele>251.80000305176</ele>
        <time>2019-02-20T15:27:24Z</time>
      </trkpt>
      <trkpt lat="44.45587" lon="1.58815">
        <ele>251.39999389648</ele>
        <time>2019-02-20T15:27:22Z</time>
      </trkpt>
      <trkpt lat="44.45585" lon="1.58797">
        <ele>250.19999694824</ele>
        <time>2019-02-20T15:27:17Z</time>
      </trkpt>
      <trkpt lat="44.45584" lon="1.58794">
        <ele>250</ele>
        <time>2019-02-20T15:27:16Z</time>
      </trkpt>
      <trkpt lat="44.45581" lon="1.58776">
        <ele>249.19999694824</ele>
        <time>2019-02-20T15:27:11Z</time>
      </trkpt>
      <trkpt lat="44.45579" lon="1.5875">
        <ele>248.19999694824</ele>
        <time>2019-02-20T15:27:04Z</time>
      </trkpt>
      <trkpt lat="44.45578" lon="1.58728">
        <ele>247.39999389648</ele>
        <time>2019-02-20T15:26:58Z</time>
      </trkpt>
      <trkpt lat="44.45579" lon="1.58725">
        <ele>247</ele>
        <time>2019-02-20T15:26:57Z</time>
      </trkpt>
      <trkpt lat="44.45583" lon="1.58704">
        <ele>246.19999694824</ele>
        <time>2019-02-20T15:26:51Z</time>
      </trkpt>
      <trkpt lat="44.45583" lon="1.587">
        <ele>246</ele>
        <time>2019-02-20T15:26:50Z</time>
      </trkpt>
      <trkpt lat="44.45584" lon="1.5868">
        <ele>244.80000305176</ele>
        <time>2019-02-20T15:26:44Z</time>
      </trkpt>
      <trkpt lat="44.45584" lon="1.58658">
        <ele>243.60000610352</ele>
        <time>2019-02-20T15:26:38Z</time>
      </trkpt>
      <trkpt lat="44.45583" lon="1.58651">
        <ele>243.19999694824</ele>
        <time>2019-02-20T15:26:36Z</time>
      </trkpt>
      <trkpt lat="44.45581" lon="1.5864">
        <ele>242.60000610352</ele>
        <time>2019-02-20T15:26:33Z</time>
      </trkpt>
      <trkpt lat="44.45579" lon="1.58628">
        <ele>242</ele>
        <time>2019-02-20T15:26:30Z</time>
      </trkpt>
      <trkpt lat="44.45578" lon="1.58624">
        <ele>241.60000610352</ele>
        <time>2019-02-20T15:26:29Z</time>
      </trkpt>
      <trkpt lat="44.45571" lon="1.58601">
        <ele>240.80000305176</ele>
        <time>2019-02-20T15:26:23Z</time>
      </trkpt>
      <trkpt lat="44.45569" lon="1.58597">
        <ele>240.60000610352</ele>
        <time>2019-02-20T15:26:22Z</time>
      </trkpt>
      <trkpt lat="44.45562" lon="1.58579">
        <ele>239.60000610352</ele>
        <time>2019-02-20T15:26:17Z</time>
      </trkpt>
      <trkpt lat="44.4555" lon="1.58557">
        <ele>238.60000610352</ele>
        <time>2019-02-20T15:26:11Z</time>
      </trkpt>
      <trkpt lat="44.45548" lon="1.58553">
        <ele>238.39999389648</ele>
        <time>2019-02-20T15:26:10Z</time>
      </trkpt>
      <trkpt lat="44.45539" lon="1.58538">
        <ele>237.80000305176</ele>
        <time>2019-02-20T15:26:05Z</time>
      </trkpt>
      <trkpt lat="44.45535" lon="1.58533">
        <ele>237.39999389648</ele>
        <time>2019-02-20T15:26:03Z</time>
      </trkpt>
      <trkpt lat="44.45529" lon="1.58528">
        <ele>237</ele>
        <time>2019-02-20T15:26:00Z</time>
      </trkpt>
      <trkpt lat="44.45527" lon="1.58526">
        <ele>237</ele>
        <time>2019-02-20T15:25:59Z</time>
      </trkpt>
      <trkpt lat="44.4552" lon="1.58522">
        <ele>236.39999389648</ele>
        <time>2019-02-20T15:25:56Z</time>
      </trkpt>
      <trkpt lat="44.45516" lon="1.58522">
        <ele>236</ele>
        <time>2019-02-20T15:25:54Z</time>
      </trkpt>
      <trkpt lat="44.45507" lon="1.5852">
        <ele>235.60000610352</ele>
        <time>2019-02-20T15:25:50Z</time>
      </trkpt>
      <trkpt lat="44.45501" lon="1.58515">
        <ele>235.19999694824</ele>
        <time>2019-02-20T15:25:47Z</time>
      </trkpt>
      <trkpt lat="44.455" lon="1.58513">
        <ele>234.80000305176</ele>
        <time>2019-02-20T15:25:46Z</time>
      </trkpt>
      <trkpt lat="44.45496" lon="1.58502">
        <ele>234</ele>
        <time>2019-02-20T15:25:42Z</time>
      </trkpt>
      <trkpt lat="44.45496" lon="1.58498">
        <ele>233.80000305176</ele>
        <time>2019-02-20T15:25:41Z</time>
      </trkpt>
      <trkpt lat="44.45499" lon="1.58479">
        <ele>233</ele>
        <time>2019-02-20T15:25:35Z</time>
      </trkpt>
      <trkpt lat="44.45501" lon="1.58476">
        <ele>232.80000305176</ele>
        <time>2019-02-20T15:25:34Z</time>
      </trkpt>
      <trkpt lat="44.4551" lon="1.58463">
        <ele>232</ele>
        <time>2019-02-20T15:25:29Z</time>
      </trkpt>
      <trkpt lat="44.45511" lon="1.5846">
        <ele>231.80000305176</ele>
        <time>2019-02-20T15:25:28Z</time>
      </trkpt>
      <trkpt lat="44.45523" lon="1.58447">
        <ele>230.80000305176</ele>
        <time>2019-02-20T15:25:22Z</time>
      </trkpt>
      <trkpt lat="44.45532" lon="1.58424">
        <ele>230</ele>
        <time>2019-02-20T15:25:15Z</time>
      </trkpt>
      <trkpt lat="44.45534" lon="1.58414">
        <ele>229.80000305176</ele>
        <time>2019-02-20T15:25:12Z</time>
      </trkpt>
      <trkpt lat="44.45534" lon="1.58404">
        <ele>229.39999389648</ele>
        <time>2019-02-20T15:25:09Z</time>
      </trkpt>
      <trkpt lat="44.45534" lon="1.584">
        <ele>229.39999389648</ele>
        <time>2019-02-20T15:25:08Z</time>
      </trkpt>
      <trkpt lat="44.45535" lon="1.58391">
        <ele>228.60000610352</ele>
        <time>2019-02-20T15:25:05Z</time>
      </trkpt>
      <trkpt lat="44.45534" lon="1.58389">
        <ele>228.39999389648</ele>
        <time>2019-02-20T15:25:04Z</time>
      </trkpt>
      <trkpt lat="44.45536" lon="1.58388">
        <ele>228</ele>
        <time>2019-02-20T15:25:03Z</time>
      </trkpt>
      <trkpt lat="44.45542" lon="1.58383">
        <ele>227.60000610352</ele>
        <time>2019-02-20T15:25:00Z</time>
      </trkpt>
      <trkpt lat="44.45543" lon="1.58382">
        <ele>227.19999694824</ele>
        <time>2019-02-20T15:24:59Z</time>
      </trkpt>
      <trkpt lat="44.45552" lon="1.58392">
        <ele>226.19999694824</ele>
        <time>2019-02-20T15:24:53Z</time>
      </trkpt>
      <trkpt lat="44.45556" lon="1.58401">
        <ele>225.19999694824</ele>
        <time>2019-02-20T15:24:49Z</time>
      </trkpt>
      <trkpt lat="44.45558" lon="1.58405">
        <ele>224.80000305176</ele>
        <time>2019-02-20T15:24:47Z</time>
      </trkpt>
      <trkpt lat="44.4556" lon="1.58413">
        <ele>224.19999694824</ele>
        <time>2019-02-20T15:24:44Z</time>
      </trkpt>
      <trkpt lat="44.45565" lon="1.58424">
        <ele>223.19999694824</ele>
        <time>2019-02-20T15:24:40Z</time>
      </trkpt>
      <trkpt lat="44.45566" lon="1.58427">
        <ele>222.80000305176</ele>
        <time>2019-02-20T15:24:39Z</time>
      </trkpt>
      <trkpt lat="44.45571" lon="1.58441">
        <ele>222</ele>
        <time>2019-02-20T15:24:34Z</time>
      </trkpt>
      <trkpt lat="44.45573" lon="1.58446">
        <ele>221.80000305176</ele>
        <time>2019-02-20T15:24:32Z</time>
      </trkpt>
      <trkpt lat="44.45579" lon="1.5846">
        <ele>221</ele>
        <time>2019-02-20T15:24:27Z</time>
      </trkpt>
      <trkpt lat="44.45581" lon="1.58464">
        <ele>220.60000610352</ele>
        <time>2019-02-20T15:24:25Z</time>
      </trkpt>
      <trkpt lat="44.45587" lon="1.58475">
        <ele>220.19999694824</ele>
        <time>2019-02-20T15:24:21Z</time>
      </trkpt>
      <trkpt lat="44.45596" lon="1.58486">
        <ele>219.60000610352</ele>
        <time>2019-02-20T15:24:15Z</time>
      </trkpt>
      <trkpt lat="44.45598" lon="1.58488">
        <ele>219.60000610352</ele>
        <time>2019-02-20T15:24:14Z</time>
      </trkpt>
      <trkpt lat="44.45612" lon="1.58497">
        <ele>218.39999389648</ele>
        <time>2019-02-20T15:24:07Z</time>
      </trkpt>
      <trkpt lat="44.45623" lon="1.58506">
        <ele>217.19999694824</ele>
        <time>2019-02-20T15:24:00Z</time>
      </trkpt>
      <trkpt lat="44.45629" lon="1.58512">
        <ele>216.19999694824</ele>
        <time>2019-02-20T15:23:55Z</time>
      </trkpt>
      <trkpt lat="44.45631" lon="1.58514">
        <ele>216</ele>
        <time>2019-02-20T15:23:54Z</time>
      </trkpt>
      <trkpt lat="44.45636" lon="1.58518">
        <ele>215</ele>
        <time>2019-02-20T15:23:50Z</time>
      </trkpt>
      <trkpt lat="44.45643" lon="1.58525">
        <ele>214.19999694824</ele>
        <time>2019-02-20T15:23:45Z</time>
      </trkpt>
      <trkpt lat="44.45645" lon="1.58526">
        <ele>214</ele>
        <time>2019-02-20T15:23:44Z</time>
      </trkpt>
      <trkpt lat="44.45652" lon="1.58534">
        <ele>213</ele>
        <time>2019-02-20T15:23:38Z</time>
      </trkpt>
      <trkpt lat="44.45653" lon="1.58535">
        <ele>212.80000305176</ele>
        <time>2019-02-20T15:23:37Z</time>
      </trkpt>
      <trkpt lat="44.45661" lon="1.58542">
        <ele>211.80000305176</ele>
        <time>2019-02-20T15:23:31Z</time>
      </trkpt>
      <trkpt lat="44.45663" lon="1.58544">
        <ele>211.60000610352</ele>
        <time>2019-02-20T15:23:30Z</time>
      </trkpt>
      <trkpt lat="44.45669" lon="1.5855">
        <ele>210.80000305176</ele>
        <time>2019-02-20T15:23:25Z</time>
      </trkpt>
      <trkpt lat="44.4567" lon="1.58552">
        <ele>210.60000610352</ele>
        <time>2019-02-20T15:23:24Z</time>
      </trkpt>
      <trkpt lat="44.45678" lon="1.58557">
        <ele>209.60000610352</ele>
        <time>2019-02-20T15:23:18Z</time>
      </trkpt>
      <trkpt lat="44.45678" lon="1.58558">
        <ele>209.39999389648</ele>
        <time>2019-02-20T15:23:17Z</time>
      </trkpt>
      <trkpt lat="44.45683" lon="1.58563">
        <ele>208.39999389648</ele>
        <time>2019-02-20T15:23:12Z</time>
      </trkpt>
      <trkpt lat="44.45684" lon="1.58563">
        <ele>208.39999389648</ele>
        <time>2019-02-20T15:23:11Z</time>
      </trkpt>
      <trkpt lat="44.45688" lon="1.58566">
        <ele>207.39999389648</ele>
        <time>2019-02-20T15:23:07Z</time>
      </trkpt>
      <trkpt lat="44.45691" lon="1.58568">
        <ele>206.60000610352</ele>
        <time>2019-02-20T15:23:04Z</time>
      </trkpt>
      <trkpt lat="44.45694" lon="1.5857">
        <ele>206.19999694824</ele>
        <time>2019-02-20T15:23:02Z</time>
      </trkpt>
      <trkpt lat="44.45702" lon="1.58573">
        <ele>205.19999694824</ele>
        <time>2019-02-20T15:22:57Z</time>
      </trkpt>
      <trkpt lat="44.45703" lon="1.58575">
        <ele>205</ele>
        <time>2019-02-20T15:22:56Z</time>
      </trkpt>
      <trkpt lat="44.4571" lon="1.58577">
        <ele>204</ele>
        <time>2019-02-20T15:22:51Z</time>
      </trkpt>
      <trkpt lat="44.45712" lon="1.58577">
        <ele>203.80000305176</ele>
        <time>2019-02-20T15:22:50Z</time>
      </trkpt>
      <trkpt lat="44.45719" lon="1.58578">
        <ele>203.19999694824</ele>
        <time>2019-02-20T15:22:46Z</time>
      </trkpt>
      <trkpt lat="44.4572" lon="1.58579">
        <ele>203</ele>
        <time>2019-02-20T15:22:45Z</time>
      </trkpt>
      <trkpt lat="44.45723" lon="1.58581">
        <ele>202.39999389648</ele>
        <time>2019-02-20T15:22:43Z</time>
      </trkpt>
      <trkpt lat="44.45728" lon="1.58584">
        <ele>201.60000610352</ele>
        <time>2019-02-20T15:22:40Z</time>
      </trkpt>
      <trkpt lat="44.45732" lon="1.58589">
        <ele>201</ele>
        <time>2019-02-20T15:22:36Z</time>
      </trkpt>
      <trkpt lat="44.45733" lon="1.58593">
        <ele>200.60000610352</ele>
        <time>2019-02-20T15:22:34Z</time>
      </trkpt>
      <trkpt lat="44.45738" lon="1.586">
        <ele>199.60000610352</ele>
        <time>2019-02-20T15:22:30Z</time>
      </trkpt>
      <trkpt lat="44.4574" lon="1.58602">
        <ele>199.39999389648</ele>
        <time>2019-02-20T15:22:29Z</time>
      </trkpt>
      <trkpt lat="44.45743" lon="1.58605">
        <ele>199</ele>
        <time>2019-02-20T15:22:27Z</time>
      </trkpt>
      <trkpt lat="44.45747" lon="1.5861">
        <ele>198.39999389648</ele>
        <time>2019-02-20T15:22:24Z</time>
      </trkpt>
      <trkpt lat="44.45749" lon="1.58612">
        <ele>198</ele>
        <time>2019-02-20T15:22:23Z</time>
      </trkpt>
      <trkpt lat="44.45751" lon="1.58616">
        <ele>197.60000610352</ele>
        <time>2019-02-20T15:22:20Z</time>
      </trkpt>
      <trkpt lat="44.45753" lon="1.58619">
        <ele>197.19999694824</ele>
        <time>2019-02-20T15:22:19Z</time>
      </trkpt>
      <trkpt lat="44.45759" lon="1.58628">
        <ele>196.39999389648</ele>
        <time>2019-02-20T15:22:16Z</time>
      </trkpt>
      <trkpt lat="44.4576" lon="1.5863">
        <ele>196.19999694824</ele>
        <time>2019-02-20T15:22:15Z</time>
      </trkpt>
      <trkpt lat="44.45763" lon="1.58635">
        <ele>195.80000305176</ele>
        <time>2019-02-20T15:22:13Z</time>
      </trkpt>
      <trkpt lat="44.45764" lon="1.58637">
        <ele>195.60000610352</ele>
        <time>2019-02-20T15:22:12Z</time>
      </trkpt>
      <trkpt lat="44.45769" lon="1.58642">
        <ele>195</ele>
        <time>2019-02-20T15:22:09Z</time>
      </trkpt>
      <trkpt lat="44.45771" lon="1.58646">
        <ele>194.80000305176</ele>
        <time>2019-02-20T15:22:07Z</time>
      </trkpt>
      <trkpt lat="44.45773" lon="1.5865">
        <ele>194.39999389648</ele>
        <time>2019-02-20T15:22:05Z</time>
      </trkpt>
      <trkpt lat="44.45774" lon="1.58652">
        <ele>194</ele>
        <time>2019-02-20T15:22:04Z</time>
      </trkpt>
      <trkpt lat="44.45779" lon="1.58656">
        <ele>193.60000610352</ele>
        <time>2019-02-20T15:22:01Z</time>
      </trkpt>
      <trkpt lat="44.45781" lon="1.58659">
        <ele>193.39999389648</ele>
        <time>2019-02-20T15:21:59Z</time>
      </trkpt>
      <trkpt lat="44.45784" lon="1.58664">
        <ele>192.60000610352</ele>
        <time>2019-02-20T15:21:56Z</time>
      </trkpt>
      <trkpt lat="44.45785" lon="1.58666">
        <ele>192.39999389648</ele>
        <time>2019-02-20T15:21:55Z</time>
      </trkpt>
      <trkpt lat="44.45787" lon="1.58666">
        <ele>192.19999694824</ele>
        <time>2019-02-20T15:21:54Z</time>
      </trkpt>
      <trkpt lat="44.45791" lon="1.58668">
        <ele>191.60000610352</ele>
        <time>2019-02-20T15:21:51Z</time>
      </trkpt>
      <trkpt lat="44.45792" lon="1.5867">
        <ele>191.39999389648</ele>
        <time>2019-02-20T15:21:50Z</time>
      </trkpt>
      <trkpt lat="44.45794" lon="1.58671">
        <ele>191.19999694824</ele>
        <time>2019-02-20T15:21:49Z</time>
      </trkpt>
      <trkpt lat="44.45798" lon="1.58675">
        <ele>190.80000305176</ele>
        <time>2019-02-20T15:21:46Z</time>
      </trkpt>
      <trkpt lat="44.458" lon="1.58676">
        <ele>190.60000610352</ele>
        <time>2019-02-20T15:21:45Z</time>
      </trkpt>
      <trkpt lat="44.458" lon="1.58678">
        <ele>190.39999389648</ele>
        <time>2019-02-20T15:21:44Z</time>
      </trkpt>
      <trkpt lat="44.45806" lon="1.58687">
        <ele>189.60000610352</ele>
        <time>2019-02-20T15:21:39Z</time>
      </trkpt>
      <trkpt lat="44.45808" lon="1.58689">
        <ele>189.39999389648</ele>
        <time>2019-02-20T15:21:38Z</time>
      </trkpt>
      <trkpt lat="44.45814" lon="1.58695">
        <ele>188.39999389648</ele>
        <time>2019-02-20T15:21:33Z</time>
      </trkpt>
      <trkpt lat="44.45815" lon="1.58697">
        <ele>188.19999694824</ele>
        <time>2019-02-20T15:21:32Z</time>
      </trkpt>
      <trkpt lat="44.45821" lon="1.58704">
        <ele>187.39999389648</ele>
        <time>2019-02-20T15:21:28Z</time>
      </trkpt>
      <trkpt lat="44.45822" lon="1.58706">
        <ele>187.19999694824</ele>
        <time>2019-02-20T15:21:27Z</time>
      </trkpt>
      <trkpt lat="44.45827" lon="1.58713">
        <ele>186.39999389648</ele>
        <time>2019-02-20T15:21:23Z</time>
      </trkpt>
      <trkpt lat="44.45828" lon="1.58716">
        <ele>186.19999694824</ele>
        <time>2019-02-20T15:21:22Z</time>
      </trkpt>
      <trkpt lat="44.4583" lon="1.58717">
        <ele>186</ele>
        <time>2019-02-20T15:21:21Z</time>
      </trkpt>
      <trkpt lat="44.45838" lon="1.58728">
        <ele>185.19999694824</ele>
        <time>2019-02-20T15:21:16Z</time>
      </trkpt>
      <trkpt lat="44.4584" lon="1.5873">
        <ele>185.19999694824</ele>
        <time>2019-02-20T15:21:15Z</time>
      </trkpt>
      <trkpt lat="44.45842" lon="1.58735">
        <ele>184.60000610352</ele>
        <time>2019-02-20T15:21:13Z</time>
      </trkpt>
      <trkpt lat="44.45846" lon="1.58741">
        <ele>184.19999694824</ele>
        <time>2019-02-20T15:21:11Z</time>
      </trkpt>
      <trkpt lat="44.45847" lon="1.58744">
        <ele>183.80000305176</ele>
        <time>2019-02-20T15:21:10Z</time>
      </trkpt>
      <trkpt lat="44.45852" lon="1.58753">
        <ele>183</ele>
        <time>2019-02-20T15:21:06Z</time>
      </trkpt>
      <trkpt lat="44.45852" lon="1.58756">
        <ele>182.80000305176</ele>
        <time>2019-02-20T15:21:05Z</time>
      </trkpt>
      <trkpt lat="44.45854" lon="1.58768">
        <ele>182</ele>
        <time>2019-02-20T15:21:01Z</time>
      </trkpt>
      <trkpt lat="44.45855" lon="1.58775">
        <ele>181.80000305176</ele>
        <time>2019-02-20T15:20:59Z</time>
      </trkpt>
      <trkpt lat="44.45857" lon="1.58787">
        <ele>181</ele>
        <time>2019-02-20T15:20:55Z</time>
      </trkpt>
      <trkpt lat="44.45858" lon="1.58789">
        <ele>180.80000305176</ele>
        <time>2019-02-20T15:20:54Z</time>
      </trkpt>
      <trkpt lat="44.45864" lon="1.58811">
        <ele>179.60000610352</ele>
        <time>2019-02-20T15:20:47Z</time>
      </trkpt>
      <trkpt lat="44.45864" lon="1.58814">
        <ele>179.60000610352</ele>
        <time>2019-02-20T15:20:46Z</time>
      </trkpt>
      <trkpt lat="44.45868" lon="1.58828">
        <ele>178.39999389648</ele>
        <time>2019-02-20T15:20:41Z</time>
      </trkpt>
      <trkpt lat="44.45878" lon="1.58849">
        <ele>177.39999389648</ele>
        <time>2019-02-20T15:20:34Z</time>
      </trkpt>
      <trkpt lat="44.45879" lon="1.58851">
        <ele>177.19999694824</ele>
        <time>2019-02-20T15:20:33Z</time>
      </trkpt>
      <trkpt lat="44.45884" lon="1.58858">
        <ele>176.39999389648</ele>
        <time>2019-02-20T15:20:30Z</time>
      </trkpt>
      <trkpt lat="44.45889" lon="1.58866">
        <ele>175.80000305176</ele>
        <time>2019-02-20T15:20:27Z</time>
      </trkpt>
      <trkpt lat="44.45899" lon="1.58878">
        <ele>175.19999694824</ele>
        <time>2019-02-20T15:20:22Z</time>
      </trkpt>
      <trkpt lat="44.45901" lon="1.58882">
        <ele>174.80000305176</ele>
        <time>2019-02-20T15:20:20Z</time>
      </trkpt>
      <trkpt lat="44.45907" lon="1.58892">
        <ele>174</ele>
        <time>2019-02-20T15:20:16Z</time>
      </trkpt>
      <trkpt lat="44.45911" lon="1.58899">
        <ele>173.60000610352</ele>
        <time>2019-02-20T15:20:13Z</time>
      </trkpt>
      <trkpt lat="44.45914" lon="1.58906">
        <ele>173</ele>
        <time>2019-02-20T15:20:10Z</time>
      </trkpt>
      <trkpt lat="44.4592" lon="1.58916">
        <ele>172.60000610352</ele>
        <time>2019-02-20T15:20:06Z</time>
      </trkpt>
      <trkpt lat="44.45926" lon="1.58924">
        <ele>172</ele>
        <time>2019-02-20T15:20:03Z</time>
      </trkpt>
      <trkpt lat="44.45935" lon="1.58938">
        <ele>171</ele>
        <time>2019-02-20T15:19:58Z</time>
      </trkpt>
      <trkpt lat="44.45938" lon="1.58944">
        <ele>170.80000305176</ele>
        <time>2019-02-20T15:19:56Z</time>
      </trkpt>
      <trkpt lat="44.45945" lon="1.58956">
        <ele>169.80000305176</ele>
        <time>2019-02-20T15:19:51Z</time>
      </trkpt>
      <trkpt lat="44.45946" lon="1.58958">
        <ele>169.39999389648</ele>
        <time>2019-02-20T15:19:50Z</time>
      </trkpt>
      <trkpt lat="44.45954" lon="1.58972">
        <ele>168.60000610352</ele>
        <time>2019-02-20T15:19:44Z</time>
      </trkpt>
      <trkpt lat="44.4597" lon="1.58983">
        <ele>167.80000305176</ele>
        <time>2019-02-20T15:19:38Z</time>
      </trkpt>
      <trkpt lat="44.45983" lon="1.58985">
        <ele>167.19999694824</ele>
        <time>2019-02-20T15:19:34Z</time>
      </trkpt>
      <trkpt lat="44.45994" lon="1.58984">
        <ele>166.80000305176</ele>
        <time>2019-02-20T15:19:31Z</time>
      </trkpt>
      <trkpt lat="44.46004" lon="1.58983">
        <ele>166.60000610352</ele>
        <time>2019-02-20T15:19:28Z</time>
      </trkpt>
      <trkpt lat="44.46017" lon="1.58984">
        <ele>166.19999694824</ele>
        <time>2019-02-20T15:19:24Z</time>
      </trkpt>
      <trkpt lat="44.46042" lon="1.58993">
        <ele>165.60000610352</ele>
        <time>2019-02-20T15:19:17Z</time>
      </trkpt>
      <trkpt lat="44.46066" lon="1.59007">
        <ele>165.19999694824</ele>
        <time>2019-02-20T15:19:09Z</time>
      </trkpt>
      <trkpt lat="44.46069" lon="1.59009">
        <ele>165.19999694824</ele>
        <time>2019-02-20T15:19:08Z</time>
      </trkpt>
      <trkpt lat="44.46082" lon="1.59017">
        <ele>164</ele>
        <time>2019-02-20T15:19:03Z</time>
      </trkpt>
      <trkpt lat="44.46095" lon="1.59027">
        <ele>163.60000610352</ele>
        <time>2019-02-20T15:18:58Z</time>
      </trkpt>
      <trkpt lat="44.46106" lon="1.59035">
        <ele>163</ele>
        <time>2019-02-20T15:18:54Z</time>
      </trkpt>
      <trkpt lat="44.46111" lon="1.5904">
        <ele>162.60000610352</ele>
        <time>2019-02-20T15:18:52Z</time>
      </trkpt>
      <trkpt lat="44.46129" lon="1.5905">
        <ele>161.80000305176</ele>
        <time>2019-02-20T15:18:47Z</time>
      </trkpt>
      <trkpt lat="44.46155" lon="1.59058">
        <ele>161</ele>
        <time>2019-02-20T15:18:41Z</time>
      </trkpt>
      <trkpt lat="44.46162" lon="1.59059">
        <ele>160.80000305176</ele>
        <time>2019-02-20T15:18:39Z</time>
      </trkpt>
      <trkpt lat="44.46175" lon="1.5906">
        <ele>160.60000610352</ele>
        <time>2019-02-20T15:18:35Z</time>
      </trkpt>
      <trkpt lat="44.46195" lon="1.59058">
        <ele>160.19999694824</ele>
        <time>2019-02-20T15:18:28Z</time>
      </trkpt>
      <trkpt lat="44.4621" lon="1.59058">
        <ele>160</ele>
        <time>2019-02-20T15:18:23Z</time>
      </trkpt>
      <trkpt lat="44.46225" lon="1.59058">
        <ele>159.80000305176</ele>
        <time>2019-02-20T15:18:17Z</time>
      </trkpt>
      <trkpt lat="44.46233" lon="1.5906">
        <ele>159.80000305176</ele>
        <time>2019-02-20T15:18:14Z</time>
      </trkpt>
      <trkpt lat="44.46237" lon="1.5906">
        <ele>159.80000305176</ele>
        <time>2019-02-20T15:18:12Z</time>
      </trkpt>
      <trkpt lat="44.46249" lon="1.5906">
        <ele>158.80000305176</ele>
        <time>2019-02-20T15:18:06Z</time>
      </trkpt>
      <trkpt lat="44.46263" lon="1.59061">
        <ele>158</ele>
        <time>2019-02-20T15:17:59Z</time>
      </trkpt>
      <trkpt lat="44.46265" lon="1.59061">
        <ele>157.80000305176</ele>
        <time>2019-02-20T15:17:58Z</time>
      </trkpt>
      <trkpt lat="44.46278" lon="1.59062">
        <ele>156.60000610352</ele>
        <time>2019-02-20T15:17:52Z</time>
      </trkpt>
      <trkpt lat="44.46285" lon="1.59065">
        <ele>155.60000610352</ele>
        <time>2019-02-20T15:17:47Z</time>
      </trkpt>
      <trkpt lat="44.46287" lon="1.59065">
        <ele>155.39999389648</ele>
        <time>2019-02-20T15:17:46Z</time>
      </trkpt>
      <trkpt lat="44.46294" lon="1.59069">
        <ele>154.39999389648</ele>
        <time>2019-02-20T15:17:40Z</time>
      </trkpt>
      <trkpt lat="44.46295" lon="1.5907">
        <ele>154.39999389648</ele>
        <time>2019-02-20T15:17:39Z</time>
      </trkpt>
      <trkpt lat="44.46297" lon="1.59071">
        <ele>154.19999694824</ele>
        <time>2019-02-20T15:17:38Z</time>
      </trkpt>
      <trkpt lat="44.463" lon="1.59074">
        <ele>154</ele>
        <time>2019-02-20T15:17:36Z</time>
      </trkpt>
      <trkpt lat="44.46303" lon="1.59077">
        <ele>153.80000305176</ele>
        <time>2019-02-20T15:17:34Z</time>
      </trkpt>
      <trkpt lat="44.46306" lon="1.59082">
        <ele>153.19999694824</ele>
        <time>2019-02-20T15:17:31Z</time>
      </trkpt>
      <trkpt lat="44.4631" lon="1.59086">
        <ele>152.39999389648</ele>
        <time>2019-02-20T15:17:28Z</time>
      </trkpt>
      <trkpt lat="44.46311" lon="1.59088">
        <ele>152.19999694824</ele>
        <time>2019-02-20T15:17:27Z</time>
      </trkpt>
      <trkpt lat="44.46312" lon="1.59089">
        <ele>152.19999694824</ele>
        <time>2019-02-20T15:17:26Z</time>
      </trkpt>
      <trkpt lat="44.46315" lon="1.59094">
        <ele>151.19999694824</ele>
        <time>2019-02-20T15:17:22Z</time>
      </trkpt>
      <trkpt lat="44.46319" lon="1.59096">
        <ele>150.80000305176</ele>
        <time>2019-02-20T15:17:20Z</time>
      </trkpt>
      <trkpt lat="44.46321" lon="1.59097">
        <ele>150.60000610352</ele>
        <time>2019-02-20T15:17:19Z</time>
      </trkpt>
      <trkpt lat="44.46326" lon="1.59101">
        <ele>150</ele>
        <time>2019-02-20T15:17:16Z</time>
      </trkpt>
      <trkpt lat="44.46329" lon="1.59103">
        <ele>149.80000305176</ele>
        <time>2019-02-20T15:17:14Z</time>
      </trkpt>
      <trkpt lat="44.46334" lon="1.59104">
        <ele>149</ele>
        <time>2019-02-20T15:17:09Z</time>
      </trkpt>
      <trkpt lat="44.46337" lon="1.59104">
        <ele>148.60000610352</ele>
        <time>2019-02-20T15:17:07Z</time>
      </trkpt>
      <trkpt lat="44.46342" lon="1.59106">
        <ele>148</ele>
        <time>2019-02-20T15:17:03Z</time>
      </trkpt>
      <trkpt lat="44.46347" lon="1.59107">
        <ele>147.60000610352</ele>
        <time>2019-02-20T15:16:59Z</time>
      </trkpt>
      <trkpt lat="44.4635" lon="1.59107">
        <ele>147.19999694824</ele>
        <time>2019-02-20T15:16:57Z</time>
      </trkpt>
      <trkpt lat="44.46352" lon="1.59106">
        <ele>147</ele>
        <time>2019-02-20T15:16:56Z</time>
      </trkpt>
      <trkpt lat="44.46357" lon="1.59107">
        <ele>146.60000610352</ele>
        <time>2019-02-20T15:16:52Z</time>
      </trkpt>
      <trkpt lat="44.46358" lon="1.59107">
        <ele>146.19999694824</ele>
        <time>2019-02-20T15:16:51Z</time>
      </trkpt>
      <trkpt lat="44.46366" lon="1.59107">
        <ele>145.39999389648</ele>
        <time>2019-02-20T15:16:46Z</time>
      </trkpt>
      <trkpt lat="44.46375" lon="1.59108">
        <ele>144.19999694824</ele>
        <time>2019-02-20T15:16:41Z</time>
      </trkpt>
      <trkpt lat="44.46377" lon="1.59108">
        <ele>144</ele>
        <time>2019-02-20T15:16:40Z</time>
      </trkpt>
      <trkpt lat="44.46385" lon="1.59108">
        <ele>143.19999694824</ele>
        <time>2019-02-20T15:16:36Z</time>
      </trkpt>
      <trkpt lat="44.46392" lon="1.59108">
        <ele>142.39999389648</ele>
        <time>2019-02-20T15:16:33Z</time>
      </trkpt>
      <trkpt lat="44.46394" lon="1.59107">
        <ele>142.19999694824</ele>
        <time>2019-02-20T15:16:32Z</time>
      </trkpt>
      <trkpt lat="44.46401" lon="1.59107">
        <ele>141</ele>
        <time>2019-02-20T15:16:28Z</time>
      </trkpt>
      <trkpt lat="44.46404" lon="1.59106">
        <ele>140.39999389648</ele>
        <time>2019-02-20T15:16:26Z</time>
      </trkpt>
      <trkpt lat="44.46408" lon="1.59106">
        <ele>139.60000610352</ele>
        <time>2019-02-20T15:16:23Z</time>
      </trkpt>
      <trkpt lat="44.46411" lon="1.59106">
        <ele>139</ele>
        <time>2019-02-20T15:16:21Z</time>
      </trkpt>
      <trkpt lat="44.46414" lon="1.59104">
        <ele>138.60000610352</ele>
        <time>2019-02-20T15:16:18Z</time>
      </trkpt>
      <trkpt lat="44.46419" lon="1.59097">
        <ele>137.80000305176</ele>
        <time>2019-02-20T15:16:14Z</time>
      </trkpt>
      <trkpt lat="44.46421" lon="1.59095">
        <ele>137.39999389648</ele>
        <time>2019-02-20T15:16:12Z</time>
      </trkpt>
      <trkpt lat="44.46427" lon="1.59084">
        <ele>136.39999389648</ele>
        <time>2019-02-20T15:16:07Z</time>
      </trkpt>
      <trkpt lat="44.46407" lon="1.59226">
        <ele>147</ele>
      </trkpt>
      <trkpt lat="44.46347" lon="1.59411">
        <ele>160.4</ele>
      </trkpt>
      <trkpt lat="44.46322" lon="1.59547">
        <ele>154.7</ele>
      </trkpt>
      <trkpt lat="44.46307" lon="1.5968">
        <ele>157.5</ele>
      </trkpt>
      <trkpt lat="44.46288" lon="1.59737">
        <ele>163.5</ele>
      </trkpt>
      <trkpt lat="44.4631" lon="1.59674">
        <ele>156.5</ele>
      </trkpt>
      <trkpt lat="44.46325" lon="1.5953">
        <ele>153.7</ele>
      </trkpt>
      <trkpt lat="44.46355" lon="1.59386">
        <ele>162.9</ele>
      </trkpt>
      <trkpt lat="44.46413" lon="1.59213">
        <ele>144.1</ele>
      </trkpt>
      <trkpt lat="44.46438" lon="1.59055">
        <ele>144.1</ele>
      </trkpt>
      <trkpt lat="44.46594" lon="1.58775">
        <ele>132.5</ele>
      </trkpt>
      <trkpt lat="44.46772" lon="1.58552">
        <ele>128.6</ele>
      </trkpt>
      <trkpt lat="44.46821" lon="1.58444">
        <ele>129.9</ele>
      </trkpt>
      <trkpt lat="44.46798" lon="1.58414">
        <ele>138.7</ele>
      </trkpt>
      <trkpt lat="44.46813" lon="1.5841">
        <ele>135.3</ele>
      </trkpt>
      <trkpt lat="44.47058" lon="1.58813">
        <ele>136.4</ele>
      </trkpt>
      <trkpt lat="44.47317" lon="1.58676">
        <ele>136</ele>
      </trkpt>
      <trkpt lat="44.47577" lon="1.58536">
        <ele>131.7</ele>
      </trkpt>
      <trkpt lat="44.47675" lon="1.58555">
        <ele>135.6</ele>
      </trkpt>
      <trkpt lat="44.479" lon="1.58752">
        <ele>178.1</ele>
      </trkpt>
      <trkpt lat="44.47948" lon="1.58822">
        <ele>181.4</ele>
      </trkpt>
      <trkpt lat="44.4801" lon="1.58627">
        <ele>209.1</ele>
      </trkpt>
      <trkpt lat="44.48043" lon="1.58412">
        <ele>233</ele>
      </trkpt>
      <trkpt lat="44.48114" lon="1.58621">
        <ele>231.3</ele>
      </trkpt>
      <trkpt lat="44.48149" lon="1.58448">
        <ele>249.2</ele>
      </trkpt>
      <trkpt lat="44.48166" lon="1.58385">
        <ele>254.3</ele>
      </trkpt>
      <trkpt lat="44.48136" lon="1.58326">
        <ele>253.3</ele>
      </trkpt>
      <trkpt lat="44.48108" lon="1.58173">
        <ele>245.7</ele>
      </trkpt>
      <trkpt lat="44.48142" lon="1.58071">
        <ele>250.5</ele>
      </trkpt>
      <trkpt lat="44.48155" lon="1.57967">
        <ele>257.5</ele>
      </trkpt>
      <trkpt lat="44.48111" lon="1.57995">
        <ele>253.2</ele>
      </trkpt>
      <trkpt lat="44.48055" lon="1.5791">
        <ele>244.1</ele>
      </trkpt>
      <trkpt lat="44.47982" lon="1.57556">
        <ele>230.2</ele>
      </trkpt>
      <trkpt lat="44.47903" lon="1.57344">
        <ele>228.7</ele>
      </trkpt>
      <trkpt lat="44.47847" lon="1.57113">
        <ele>244.4</ele>
      </trkpt>
      <trkpt lat="44.47896" lon="1.5695">
        <ele>232.6</ele>
      </trkpt>
      <trkpt lat="44.48411" lon="1.56804">
        <ele>230.8</ele>
      </trkpt>
      <trkpt lat="44.48481" lon="1.56992">
        <ele>246.6</ele>
      </trkpt>
      <trkpt lat="44.48625" lon="1.56792">
        <ele>240.8</ele>
      </trkpt>
      <trkpt lat="44.48758" lon="1.56454">
        <ele>239.2</ele>
      </trkpt>
      <trkpt lat="44.49024" lon="1.56272">
        <ele>251.2</ele>
      </trkpt>
      <trkpt lat="44.48953" lon="1.5595">
        <ele>234.1</ele>
      </trkpt>
      <trkpt lat="44.48942" lon="1.55913">
        <ele>232.2</ele>
      </trkpt>
      <trkpt lat="44.48954" lon="1.55876">
        <ele>224.2</ele>
      </trkpt>
      <trkpt lat="44.48872" lon="1.55777">
        <ele>211.5</ele>
      </trkpt>
      <trkpt lat="44.48832" lon="1.55645">
        <ele>196.6</ele>
      </trkpt>
      <trkpt lat="44.48841" lon="1.55595">
        <ele>184.9</ele>
      </trkpt>
      <trkpt lat="44.48812" lon="1.55523">
        <ele>169.2</ele>
      </trkpt>
      <trkpt lat="44.4877" lon="1.55499">
        <ele>169</ele>
      </trkpt>
      <trkpt lat="44.48675" lon="1.55458">
        <ele>152.9</ele>
      </trkpt>
      <trkpt lat="44.48737" lon="1.55395">
        <ele>143.5</ele>
      </trkpt>
      <trkpt lat="44.48741" lon="1.55358">
        <ele>138.9</ele>
      </trkpt>
      <trkpt lat="44.48627" lon="1.55301">
        <ele>133.9</ele>
      </trkpt>
      <trkpt lat="44.48564" lon="1.55267">
        <ele>132.6</ele>
      </trkpt>
      <trkpt lat="44.48576" lon="1.55223">
        <ele>141.6</ele>
      </trkpt>
      <trkpt lat="44.48537" lon="1.55204">
        <ele>141.9</ele>
      </trkpt>
      <trkpt lat="44.48533" lon="1.55175">
        <ele>147.3</ele>
      </trkpt>
      <trkpt lat="44.48378" lon="1.55152">
        <ele>143.7</ele>
      </trkpt>
      <trkpt lat="44.48292" lon="1.55141">
        <ele>146.2</ele>
      </trkpt>
      <trkpt lat="44.47985" lon="1.55029">
        <ele>143.7</ele>
      </trkpt>
      <trkpt lat="44.47769" lon="1.54839">
        <ele>134.8</ele>
      </trkpt>
      <trkpt lat="44.47661" lon="1.54762">
        <ele>139.1</ele>
      </trkpt>
      <trkpt lat="44.47507" lon="1.54729">
        <ele>149.2</ele>
      </trkpt>
      <trkpt lat="44.47407" lon="1.54781">
        <ele>142.4</ele>
      </trkpt>
      <trkpt lat="44.47076" lon="1.5487">
        <ele>143.2</ele>
      </trkpt>
      <trkpt lat="44.46954" lon="1.54844">
        <ele>141.1</ele>
      </trkpt>
      <trkpt lat="44.46839" lon="1.5469">
        <ele>141.2</ele>
      </trkpt>
      <trkpt lat="44.46815" lon="1.54587">
        <ele>137.9</ele>
      </trkpt>
      <trkpt lat="44.46805" lon="1.54516">
        <ele>133.9</ele>
      </trkpt>
      <trkpt lat="44.46795" lon="1.5449">
        <ele>131.7</ele>
        <time>2019-02-20T15:16:01Z</time>
      </trkpt>
      <trkpt lat="44.46796" lon="1.54491">
        <ele>131.8</ele>
        <time>2021-05-29T16:28:54Z</time>
      </trkpt>
      <trkpt lat="44.46786" lon="1.54478">
        <ele>121.59999847412</ele>
        <time>2021-05-29T16:29:00Z</time>
      </trkpt>
      <trkpt lat="44.46784" lon="1.54488">
        <ele>121.80000305176</ele>
        <time>2021-05-29T16:29:02Z</time>
      </trkpt>
      <trkpt lat="44.4678" lon="1.54502">
        <ele>122.40000152588</ele>
        <time>2021-05-29T16:29:06Z</time>
      </trkpt>
      <trkpt lat="44.46779" lon="1.54502">
        <ele>122.59999847412</ele>
        <time>2021-05-29T16:29:08Z</time>
      </trkpt>
      <trkpt lat="44.46778" lon="1.54502">
        <ele>122.59999847412</ele>
        <time>2021-05-29T16:29:09Z</time>
      </trkpt>
      <trkpt lat="44.46779" lon="1.545">
        <ele>122.80000305176</ele>
        <time>2021-05-29T16:29:24Z</time>
      </trkpt>
      <trkpt lat="44.46779" lon="1.54498">
        <ele>122.80000305176</ele>
        <time>2021-05-29T16:29:25Z</time>
      </trkpt>
      <trkpt lat="44.46779" lon="1.54498">
        <ele>122.80000305176</ele>
        <time>2021-05-29T16:29:26Z</time>
      </trkpt>
      <trkpt lat="44.46775" lon="1.54479">
        <ele>122.40000152588</ele>
        <time>2021-05-29T16:29:31Z</time>
      </trkpt>
      <trkpt lat="44.46771" lon="1.54447">
        <ele>122</ele>
        <time>2021-05-29T16:29:37Z</time>
      </trkpt>
      <trkpt lat="44.4677" lon="1.54442">
        <ele>122</ele>
        <time>2021-05-29T16:29:38Z</time>
      </trkpt>
      <trkpt lat="44.46766" lon="1.54399">
        <ele>121</ele>
        <time>2021-05-29T16:29:45Z</time>
      </trkpt>
      <trkpt lat="44.46762" lon="1.54366">
        <ele>121</ele>
        <time>2021-05-29T16:29:50Z</time>
      </trkpt>
      <trkpt lat="44.46761" lon="1.54361">
        <ele>121</ele>
        <time>2021-05-29T16:29:51Z</time>
      </trkpt>
      <trkpt lat="44.46761" lon="1.54351">
        <ele>121</ele>
        <time>2021-05-29T16:29:52Z</time>
      </trkpt>
      <trkpt lat="44.46761" lon="1.54332">
        <ele>121.80000305176</ele>
        <time>2021-05-29T16:29:58Z</time>
      </trkpt>
      <trkpt lat="44.46762" lon="1.54328">
        <ele>122</ele>
        <time>2021-05-29T16:29:59Z</time>
      </trkpt>
      <trkpt lat="44.46757" lon="1.54303">
        <ele>122.40000152588</ele>
        <time>2021-05-29T16:30:07Z</time>
      </trkpt>
      <trkpt lat="44.46754" lon="1.54255">
        <ele>122.40000152588</ele>
        <time>2021-05-29T16:30:17Z</time>
      </trkpt>
      <trkpt lat="44.46748" lon="1.54213">
        <ele>122</ele>
        <time>2021-05-29T16:30:27Z</time>
      </trkpt>
      <trkpt lat="44.46748" lon="1.54194">
        <ele>121.80000305176</ele>
        <time>2021-05-29T16:30:33Z</time>
      </trkpt>
      <trkpt lat="44.46745" lon="1.54191">
        <ele>122</ele>
        <time>2021-05-29T16:30:39Z</time>
      </trkpt>
      <trkpt lat="44.46744" lon="1.5419">
        <ele>122</ele>
        <time>2021-05-29T16:30:40Z</time>
      </trkpt>
      <trkpt lat="44.46743" lon="1.54189">
        <ele>122</ele>
        <time>2021-05-29T16:30:42Z</time>
      </trkpt>
      <trkpt lat="44.46742" lon="1.54188">
        <ele>122</ele>
        <time>2021-05-29T16:30:43Z</time>
      </trkpt>
      <trkpt lat="44.46739" lon="1.54179">
        <ele>122</ele>
        <time>2021-05-29T16:30:48Z</time>
      </trkpt>
      <trkpt lat="44.46738" lon="1.54157">
        <ele>121.59999847412</ele>
        <time>2021-05-29T16:30:52Z</time>
      </trkpt>
      <trkpt lat="44.46739" lon="1.54148">
        <ele>121.40000152588</ele>
        <time>2021-05-29T16:30:54Z</time>
      </trkpt>
      <trkpt lat="44.46741" lon="1.54131">
        <ele>120.80000305176</ele>
        <time>2021-05-29T16:30:59Z</time>
      </trkpt>
      <trkpt lat="44.46743" lon="1.54124">
        <ele>120.59999847412</ele>
        <time>2021-05-29T16:31:01Z</time>
      </trkpt>
      <trkpt lat="44.46747" lon="1.54118">
        <ele>120.59999847412</ele>
        <time>2021-05-29T16:31:02Z</time>
      </trkpt>
      <trkpt lat="44.46754" lon="1.541">
        <ele>120.19999694824</ele>
        <time>2021-05-29T16:31:06Z</time>
      </trkpt>
      <trkpt lat="44.46759" lon="1.54084">
        <ele>120</ele>
        <time>2021-05-29T16:31:10Z</time>
      </trkpt>
      <trkpt lat="44.46762" lon="1.54073">
        <ele>120</ele>
        <time>2021-05-29T16:31:12Z</time>
      </trkpt>
      <trkpt lat="44.4671" lon="1.53944">
        <ele>122.40000152588</ele>
        <time>2021-05-29T16:32:21Z</time>
      </trkpt>
      <trkpt lat="44.46711" lon="1.53943">
        <ele>122.40000152588</ele>
        <time>2021-05-29T16:32:22Z</time>
      </trkpt>
      <trkpt lat="44.46712" lon="1.53933">
        <ele>122.59999847412</ele>
        <time>2021-05-29T16:32:28Z</time>
      </trkpt>
      <trkpt lat="44.46712" lon="1.53931">
        <ele>122.40000152588</ele>
        <time>2021-05-29T16:32:29Z</time>
      </trkpt>
      <trkpt lat="44.46707" lon="1.53924">
        <ele>122.40000152588</ele>
        <time>2021-05-29T16:32:31Z</time>
      </trkpt>
      <trkpt lat="44.46696" lon="1.53898">
        <ele>122.19999694824</ele>
        <time>2021-05-29T16:32:36Z</time>
      </trkpt>
      <trkpt lat="44.46691" lon="1.53854">
        <ele>121.80000305176</ele>
        <time>2021-05-29T16:32:43Z</time>
      </trkpt>
      <trkpt lat="44.467" lon="1.53815">
        <ele>122.19999694824</ele>
        <time>2021-05-29T16:32:50Z</time>
      </trkpt>
      <trkpt lat="44.46705" lon="1.53803">
        <ele>122.59999847412</ele>
        <time>2021-05-29T16:32:55Z</time>
      </trkpt>
      <trkpt lat="44.46717" lon="1.5378">
        <ele>122.19999694824</ele>
        <time>2021-05-29T16:33:03Z</time>
      </trkpt>
      <trkpt lat="44.4672" lon="1.53768">
        <ele>121.19999694824</ele>
        <time>2021-05-29T16:33:05Z</time>
      </trkpt>
      <trkpt lat="44.4672" lon="1.53756">
        <ele>120.80000305176</ele>
        <time>2021-05-29T16:33:06Z</time>
      </trkpt>
      <trkpt lat="44.46717" lon="1.53714">
        <ele>120.40000152588</ele>
        <time>2021-05-29T16:33:58Z</time>
      </trkpt>
      <trkpt lat="44.46717" lon="1.53714">
        <ele>120.40000152588</ele>
        <time>2021-05-29T16:33:59Z</time>
      </trkpt>
      <trkpt lat="44.46723" lon="1.53697">
        <ele>120.19999694824</ele>
        <time>2021-05-29T16:34:04Z</time>
      </trkpt>
      <trkpt lat="44.46727" lon="1.53675">
        <ele>120.19999694824</ele>
        <time>2021-05-29T16:34:08Z</time>
      </trkpt>
      <trkpt lat="44.46732" lon="1.53644">
        <ele>119.59999847412</ele>
        <time>2021-05-29T16:34:14Z</time>
      </trkpt>
      <trkpt lat="44.46748" lon="1.53595">
        <ele>119.19999694824</ele>
        <time>2021-05-29T16:34:22Z</time>
      </trkpt>
      <trkpt lat="44.46748" lon="1.53595">
        <ele>119</ele>
        <time>2021-05-29T16:34:23Z</time>
      </trkpt>
      <trkpt lat="44.46759" lon="1.53557">
        <ele>118</ele>
        <time>2021-05-29T16:34:29Z</time>
      </trkpt>
      <trkpt lat="44.46766" lon="1.53536">
        <ele>117.59999847412</ele>
        <time>2021-05-29T16:34:32Z</time>
      </trkpt>
      <trkpt lat="44.46776" lon="1.53503">
        <ele>117</ele>
        <time>2021-05-29T16:34:37Z</time>
      </trkpt>
      <trkpt lat="44.46783" lon="1.53478">
        <ele>116.19999694824</ele>
        <time>2021-05-29T16:34:41Z</time>
      </trkpt>
      <trkpt lat="44.46791" lon="1.53428">
        <ele>116.19999694824</ele>
        <time>2021-05-29T16:34:50Z</time>
      </trkpt>
      <trkpt lat="44.46791" lon="1.53385">
        <ele>116.80000305176</ele>
        <time>2021-05-29T16:34:57Z</time>
      </trkpt>
      <trkpt lat="44.46785" lon="1.53362">
        <ele>117</ele>
        <time>2021-05-29T16:34:58Z</time>
      </trkpt>
      <trkpt lat="44.46777" lon="1.53313">
        <ele>117</ele>
        <time>2021-05-29T16:35:03Z</time>
      </trkpt>
      <trkpt lat="44.46776" lon="1.53306">
        <ele>117</ele>
        <time>2021-05-29T16:35:04Z</time>
      </trkpt>
      <trkpt lat="44.46764" lon="1.53257">
        <ele>117</ele>
        <time>2021-05-29T16:35:12Z</time>
      </trkpt>
      <trkpt lat="44.46752" lon="1.53226">
        <ele>117.19999694824</ele>
        <time>2021-05-29T16:35:17Z</time>
      </trkpt>
      <trkpt lat="44.46727" lon="1.53169">
        <ele>117.80000305176</ele>
        <time>2021-05-29T16:35:25Z</time>
      </trkpt>
      <trkpt lat="44.467" lon="1.5311">
        <ele>118</ele>
        <time>2021-05-29T16:35:33Z</time>
      </trkpt>
      <trkpt lat="44.46689" lon="1.53083">
        <ele>118.19999694824</ele>
        <time>2021-05-29T16:35:37Z</time>
      </trkpt>
      <trkpt lat="44.46686" lon="1.53077">
        <ele>118.40000152588</ele>
        <time>2021-05-29T16:35:38Z</time>
      </trkpt>
      <trkpt lat="44.4667" lon="1.53042">
        <ele>118.59999847412</ele>
        <time>2021-05-29T16:35:43Z</time>
      </trkpt>
      <trkpt lat="44.4665" lon="1.53003">
        <ele>118.80000305176</ele>
        <time>2021-05-29T16:35:48Z</time>
      </trkpt>
      <trkpt lat="44.46631" lon="1.52961">
        <ele>118.19999694824</ele>
        <time>2021-05-29T16:35:54Z</time>
      </trkpt>
      <trkpt lat="44.46622" lon="1.52939">
        <ele>118.19999694824</ele>
        <time>2021-05-29T16:35:59Z</time>
      </trkpt>
      <trkpt lat="44.46615" lon="1.52924">
        <ele>119</ele>
        <time>2021-05-29T16:36:03Z</time>
      </trkpt>
      <trkpt lat="44.46615" lon="1.52922">
        <ele>119</ele>
        <time>2021-05-29T16:36:04Z</time>
      </trkpt>
      <trkpt lat="44.4661" lon="1.52915">
        <ele>119.19999694824</ele>
        <time>2021-05-29T16:36:08Z</time>
      </trkpt>
      <trkpt lat="44.46598" lon="1.52902">
        <ele>120</ele>
        <time>2021-05-29T16:36:13Z</time>
      </trkpt>
      <trkpt lat="44.46586" lon="1.52882">
        <ele>120</ele>
        <time>2021-05-29T16:36:17Z</time>
      </trkpt>
      <trkpt lat="44.46577" lon="1.5287">
        <ele>120</ele>
        <time>2021-05-29T16:36:19Z</time>
      </trkpt>
      <trkpt lat="44.46566" lon="1.52861">
        <ele>119.59999847412</ele>
        <time>2021-05-29T16:36:21Z</time>
      </trkpt>
      <trkpt lat="44.46551" lon="1.52851">
        <ele>118.19999694824</ele>
        <time>2021-05-29T16:36:24Z</time>
      </trkpt>
      <trkpt lat="44.46538" lon="1.52842">
        <ele>117</ele>
        <time>2021-05-29T16:36:25Z</time>
      </trkpt>
      <trkpt lat="44.46538" lon="1.52842">
        <ele>117</ele>
        <time>2021-05-29T16:36:26Z</time>
      </trkpt>
      <trkpt lat="44.46521" lon="1.52822">
        <ele>116</ele>
        <time>2021-05-29T16:36:32Z</time>
      </trkpt>
      <trkpt lat="44.46517" lon="1.52818">
        <ele>116</ele>
        <time>2021-05-29T16:36:33Z</time>
      </trkpt>
      <trkpt lat="44.46514" lon="1.52812">
        <ele>115.80000305176</ele>
        <time>2021-05-29T16:36:34Z</time>
      </trkpt>
      <trkpt lat="44.46499" lon="1.52792">
        <ele>115.59999847412</ele>
        <time>2021-05-29T16:36:38Z</time>
      </trkpt>
      <trkpt lat="44.46494" lon="1.52788">
        <ele>115.40000152588</ele>
        <time>2021-05-29T16:36:39Z</time>
      </trkpt>
      <trkpt lat="44.46477" lon="1.5277">
        <ele>114.80000305176</ele>
        <time>2021-05-29T16:36:42Z</time>
      </trkpt>
      <trkpt lat="44.46472" lon="1.52768">
        <ele>114.59999847412</ele>
        <time>2021-05-29T16:36:44Z</time>
      </trkpt>
      <trkpt lat="44.46442" lon="1.52743">
        <ele>114.19999694824</ele>
        <time>2021-05-29T16:36:50Z</time>
      </trkpt>
      <trkpt lat="44.46437" lon="1.52739">
        <ele>113.80000305176</ele>
        <time>2021-05-29T16:36:51Z</time>
      </trkpt>
      <trkpt lat="44.46413" lon="1.52719">
        <ele>113.59999847412</ele>
        <time>2021-05-29T16:36:56Z</time>
      </trkpt>
      <trkpt lat="44.464" lon="1.52703">
        <ele>113.59999847412</ele>
        <time>2021-05-29T16:36:57Z</time>
      </trkpt>
      <trkpt lat="44.46392" lon="1.5269">
        <ele>113.40000152588</ele>
        <time>2021-05-29T16:37:01Z</time>
      </trkpt>
      <trkpt lat="44.46382" lon="1.52671">
        <ele>113.40000152588</ele>
        <time>2021-05-29T16:37:04Z</time>
      </trkpt>
      <trkpt lat="44.46377" lon="1.52659">
        <ele>113.40000152588</ele>
        <time>2021-05-29T16:37:06Z</time>
      </trkpt>
      <trkpt lat="44.46362" lon="1.52623">
        <ele>112.59999847412</ele>
        <time>2021-05-29T16:37:11Z</time>
      </trkpt>
      <trkpt lat="44.46358" lon="1.52617">
        <ele>112.40000152588</ele>
        <time>2021-05-29T16:37:12Z</time>
      </trkpt>
      <trkpt lat="44.46346" lon="1.52604">
        <ele>112.40000152588</ele>
        <time>2021-05-29T16:37:15Z</time>
      </trkpt>
      <trkpt lat="44.46335" lon="1.5259">
        <ele>112.19999694824</ele>
        <time>2021-05-29T16:37:18Z</time>
      </trkpt>
      <trkpt lat="44.46329" lon="1.52584">
        <ele>112.40000152588</ele>
        <time>2021-05-29T16:37:20Z</time>
      </trkpt>
      <trkpt lat="44.46327" lon="1.5258">
        <ele>112.40000152588</ele>
        <time>2021-05-29T16:37:21Z</time>
      </trkpt>
      <trkpt lat="44.4632" lon="1.52569">
        <ele>112.59999847412</ele>
        <time>2021-05-29T16:37:24Z</time>
      </trkpt>
      <trkpt lat="44.46316" lon="1.52565">
        <ele>112.59999847412</ele>
        <time>2021-05-29T16:37:25Z</time>
      </trkpt>
      <trkpt lat="44.46305" lon="1.52551">
        <ele>112.59999847412</ele>
        <time>2021-05-29T16:37:29Z</time>
      </trkpt>
      <trkpt lat="44.46302" lon="1.52548">
        <ele>112.59999847412</ele>
        <time>2021-05-29T16:37:30Z</time>
      </trkpt>
      <trkpt lat="44.4629" lon="1.52538">
        <ele>112.80000305176</ele>
        <time>2021-05-29T16:37:33Z</time>
      </trkpt>
      <trkpt lat="44.46283" lon="1.52534">
        <ele>112.80000305176</ele>
        <time>2021-05-29T16:37:35Z</time>
      </trkpt>
      <trkpt lat="44.4628" lon="1.52532">
        <ele>113</ele>
        <time>2021-05-29T16:37:36Z</time>
      </trkpt>
      <trkpt lat="44.46272" lon="1.52521">
        <ele>113</ele>
        <time>2021-05-29T16:37:39Z</time>
      </trkpt>
      <trkpt lat="44.46263" lon="1.52509">
        <ele>113.59999847412</ele>
        <time>2021-05-29T16:37:42Z</time>
      </trkpt>
      <trkpt lat="44.46256" lon="1.52502">
        <ele>113.59999847412</ele>
        <time>2021-05-29T16:37:44Z</time>
      </trkpt>
      <trkpt lat="44.46253" lon="1.525">
        <ele>113.59999847412</ele>
        <time>2021-05-29T16:37:45Z</time>
      </trkpt>
      <trkpt lat="44.46249" lon="1.52496">
        <ele>113.59999847412</ele>
        <time>2021-05-29T16:37:46Z</time>
      </trkpt>
      <trkpt lat="44.46242" lon="1.5249">
        <ele>113.80000305176</ele>
        <time>2021-05-29T16:37:48Z</time>
      </trkpt>
      <trkpt lat="44.46227" lon="1.52474">
        <ele>113.80000305176</ele>
        <time>2021-05-29T16:37:52Z</time>
      </trkpt>
      <trkpt lat="44.46224" lon="1.52471">
        <ele>113.80000305176</ele>
        <time>2021-05-29T16:37:53Z</time>
      </trkpt>
      <trkpt lat="44.46204" lon="1.52454">
        <ele>113.40000152588</ele>
        <time>2021-05-29T16:37:59Z</time>
      </trkpt>
      <trkpt lat="44.46195" lon="1.52439">
        <ele>113.40000152588</ele>
        <time>2021-05-29T16:38:03Z</time>
      </trkpt>
      <trkpt lat="44.46187" lon="1.52431">
        <ele>113.59999847412</ele>
        <time>2021-05-29T16:38:07Z</time>
      </trkpt>
      <trkpt lat="44.46176" lon="1.52423">
        <ele>114.40000152588</ele>
        <time>2021-05-29T16:38:12Z</time>
      </trkpt>
      <trkpt lat="44.46174" lon="1.52421">
        <ele>114.59999847412</ele>
        <time>2021-05-29T16:38:13Z</time>
      </trkpt>
      <trkpt lat="44.46158" lon="1.52405">
        <ele>115</ele>
        <time>2021-05-29T16:38:19Z</time>
      </trkpt>
      <trkpt lat="44.46155" lon="1.52402">
        <ele>115.40000152588</ele>
        <time>2021-05-29T16:38:20Z</time>
      </trkpt>
      <trkpt lat="44.46145" lon="1.52391">
        <ele>116.19999694824</ele>
        <time>2021-05-29T16:38:24Z</time>
      </trkpt>
      <trkpt lat="44.46144" lon="1.52388">
        <ele>116.59999847412</ele>
        <time>2021-05-29T16:38:25Z</time>
      </trkpt>
      <trkpt lat="44.46143" lon="1.52384">
        <ele>117</ele>
        <time>2021-05-29T16:38:26Z</time>
      </trkpt>
      <trkpt lat="44.46141" lon="1.52378">
        <ele>117.40000152588</ele>
        <time>2021-05-29T16:38:28Z</time>
      </trkpt>
      <trkpt lat="44.46139" lon="1.52369">
        <ele>117.40000152588</ele>
        <time>2021-05-29T16:38:31Z</time>
      </trkpt>
      <trkpt lat="44.46136" lon="1.52359">
        <ele>117.40000152588</ele>
        <time>2021-05-29T16:38:34Z</time>
      </trkpt>
      <trkpt lat="44.46129" lon="1.52346">
        <ele>116</ele>
        <time>2021-05-29T16:38:37Z</time>
      </trkpt>
      <trkpt lat="44.46126" lon="1.52342">
        <ele>115.80000305176</ele>
        <time>2021-05-29T16:38:38Z</time>
      </trkpt>
      <trkpt lat="44.46124" lon="1.52339">
        <ele>115.19999694824</ele>
        <time>2021-05-29T16:38:39Z</time>
      </trkpt>
      <trkpt lat="44.46122" lon="1.52333">
        <ele>114</ele>
        <time>2021-05-29T16:38:42Z</time>
      </trkpt>
      <trkpt lat="44.46121" lon="1.5233">
        <ele>114</ele>
        <time>2021-05-29T16:38:43Z</time>
      </trkpt>
      <trkpt lat="44.46115" lon="1.5231">
        <ele>113.59999847412</ele>
        <time>2021-05-29T16:38:49Z</time>
      </trkpt>
      <trkpt lat="44.46105" lon="1.52291">
        <ele>113.59999847412</ele>
        <time>2021-05-29T16:38:54Z</time>
      </trkpt>
      <trkpt lat="44.461" lon="1.52264">
        <ele>114</ele>
        <time>2021-05-29T16:38:59Z</time>
      </trkpt>
      <trkpt lat="44.46095" lon="1.52238">
        <ele>114.59999847412</ele>
        <time>2021-05-29T16:39:06Z</time>
      </trkpt>
      <trkpt lat="44.46093" lon="1.52234">
        <ele>114.59999847412</ele>
        <time>2021-05-29T16:39:07Z</time>
      </trkpt>
      <trkpt lat="44.46087" lon="1.52215">
        <ele>114.59999847412</ele>
        <time>2021-05-29T16:39:12Z</time>
      </trkpt>
      <trkpt lat="44.46085" lon="1.52211">
        <ele>114.59999847412</ele>
        <time>2021-05-29T16:39:14Z</time>
      </trkpt>
      <trkpt lat="44.46084" lon="1.52206">
        <ele>114.59999847412</ele>
        <time>2021-05-29T16:39:16Z</time>
      </trkpt>
      <trkpt lat="44.46083" lon="1.52198">
        <ele>114.80000305176</ele>
        <time>2021-05-29T16:39:19Z</time>
      </trkpt>
      <trkpt lat="44.4607" lon="1.52158">
        <ele>115</ele>
        <time>2021-05-29T16:39:33Z</time>
      </trkpt>
      <trkpt lat="44.46071" lon="1.52151">
        <ele>115</ele>
        <time>2021-05-29T16:39:36Z</time>
      </trkpt>
      <trkpt lat="44.46079" lon="1.52133">
        <ele>114.80000305176</ele>
        <time>2021-05-29T16:39:42Z</time>
      </trkpt>
      <trkpt lat="44.46082" lon="1.52127">
        <ele>115</ele>
        <time>2021-05-29T16:39:44Z</time>
      </trkpt>
      <trkpt lat="44.46085" lon="1.52119">
        <ele>115.19999694824</ele>
        <time>2021-05-29T16:39:46Z</time>
      </trkpt>
      <trkpt lat="44.46086" lon="1.52115">
        <ele>115.19999694824</ele>
        <time>2021-05-29T16:39:47Z</time>
      </trkpt>
      <trkpt lat="44.4609" lon="1.52099">
        <ele>115.59999847412</ele>
        <time>2021-05-29T16:39:50Z</time>
      </trkpt>
      <trkpt lat="44.46087" lon="1.52088">
        <ele>115.80000305176</ele>
        <time>2021-05-29T16:39:52Z</time>
      </trkpt>
      <trkpt lat="44.4608" lon="1.52077">
        <ele>115.80000305176</ele>
        <time>2021-05-29T16:39:55Z</time>
      </trkpt>
      <trkpt lat="44.46078" lon="1.52073">
        <ele>115.80000305176</ele>
        <time>2021-05-29T16:39:56Z</time>
      </trkpt>
      <trkpt lat="44.46081" lon="1.52048">
        <ele>115.80000305176</ele>
        <time>2021-05-29T16:39:59Z</time>
      </trkpt>
      <trkpt lat="44.46079" lon="1.52014">
        <ele>113.59999847412</ele>
        <time>2021-05-29T16:40:03Z</time>
      </trkpt>
      <trkpt lat="44.46077" lon="1.51997">
        <ele>112.59999847412</ele>
        <time>2021-05-29T16:40:05Z</time>
      </trkpt>
      <trkpt lat="44.46077" lon="1.51989">
        <ele>112.40000152588</ele>
        <time>2021-05-29T16:40:06Z</time>
      </trkpt>
      <trkpt lat="44.46074" lon="1.51952">
        <ele>112</ele>
        <time>2021-05-29T16:40:10Z</time>
      </trkpt>
      <trkpt lat="44.46071" lon="1.51912">
        <ele>111.80000305176</ele>
        <time>2021-05-29T16:40:14Z</time>
      </trkpt>
      <trkpt lat="44.46071" lon="1.51889">
        <ele>111.59999847412</ele>
        <time>2021-05-29T16:40:16Z</time>
      </trkpt>
      <trkpt lat="44.46067" lon="1.51868">
        <ele>111.40000152588</ele>
        <time>2021-05-29T16:40:18Z</time>
      </trkpt>
      <trkpt lat="44.46066" lon="1.51859">
        <ele>111.40000152588</ele>
        <time>2021-05-29T16:40:19Z</time>
      </trkpt>
      <trkpt lat="44.46065" lon="1.5185">
        <ele>111.40000152588</ele>
        <time>2021-05-29T16:40:20Z</time>
      </trkpt>
      <trkpt lat="44.46063" lon="1.51806">
        <ele>111</ele>
        <time>2021-05-29T16:40:25Z</time>
      </trkpt>
      <trkpt lat="44.46066" lon="1.51777">
        <ele>110.80000305176</ele>
        <time>2021-05-29T16:40:28Z</time>
      </trkpt>
      <trkpt lat="44.46068" lon="1.51758">
        <ele>110.59999847412</ele>
        <time>2021-05-29T16:40:30Z</time>
      </trkpt>
      <trkpt lat="44.46072" lon="1.5171">
        <ele>110.19999694824</ele>
        <time>2021-05-29T16:40:35Z</time>
      </trkpt>
      <trkpt lat="44.46074" lon="1.51665">
        <ele>109</ele>
        <time>2021-05-29T16:40:38Z</time>
      </trkpt>
      <trkpt lat="44.46074" lon="1.51656">
        <ele>108.80000305176</ele>
        <time>2021-05-29T16:40:41Z</time>
      </trkpt>
      <trkpt lat="44.4607" lon="1.51635">
        <ele>108.59999847412</ele>
        <time>2021-05-29T16:40:44Z</time>
      </trkpt>
      <trkpt lat="44.4607" lon="1.516">
        <ele>108.80000305176</ele>
        <time>2021-05-29T16:40:49Z</time>
      </trkpt>
      <trkpt lat="44.46068" lon="1.51597">
        <ele>109</ele>
        <time>2021-05-29T16:40:50Z</time>
      </trkpt>
      <trkpt lat="44.46064" lon="1.51594">
        <ele>109</ele>
        <time>2021-05-29T16:40:52Z</time>
      </trkpt>
      <trkpt lat="44.46059" lon="1.51599">
        <ele>109.80000305176</ele>
        <time>2021-05-29T16:40:56Z</time>
      </trkpt>
      <trkpt lat="44.4606" lon="1.516">
        <ele>111</ele>
        <time>2021-05-29T16:40:57Z</time>
      </trkpt>
      <trkpt lat="44.46061" lon="1.51602">
        <ele>112</ele>
        <time>2021-05-29T16:42:57Z</time>
      </trkpt>
      <trkpt lat="44.46063" lon="1.51599">
        <ele>112</ele>
        <time>2021-05-29T16:42:59Z</time>
      </trkpt>
      <trkpt lat="44.4606" lon="1.51589">
        <ele>112</ele>
        <time>2021-05-29T16:43:02Z</time>
      </trkpt>
      <trkpt lat="44.46058" lon="1.51585">
        <ele>112</ele>
        <time>2021-05-29T16:43:03Z</time>
      </trkpt>
      <trkpt lat="44.46053" lon="1.51565">
        <ele>112.19999694824</ele>
        <time>2021-05-29T16:43:09Z</time>
      </trkpt>
      <trkpt lat="44.46051" lon="1.51557">
        <ele>112.19999694824</ele>
        <time>2021-05-29T16:43:11Z</time>
      </trkpt>
      <trkpt lat="44.46048" lon="1.51545">
        <ele>112.19999694824</ele>
        <time>2021-05-29T16:43:13Z</time>
      </trkpt>
      <trkpt lat="44.46044" lon="1.51523">
        <ele>112.19999694824</ele>
        <time>2021-05-29T16:43:16Z</time>
      </trkpt>
      <trkpt lat="44.46043" lon="1.51506">
        <ele>112</ele>
        <time>2021-05-29T16:43:18Z</time>
      </trkpt>
      <trkpt lat="44.46041" lon="1.51488">
        <ele>111.40000152588</ele>
        <time>2021-05-29T16:43:20Z</time>
      </trkpt>
      <trkpt lat="44.46037" lon="1.51453">
        <ele>110.80000305176</ele>
        <time>2021-05-29T16:43:24Z</time>
      </trkpt>
      <trkpt lat="44.46033" lon="1.51435">
        <ele>110</ele>
        <time>2021-05-29T16:43:26Z</time>
      </trkpt>
      <trkpt lat="44.46026" lon="1.51409">
        <ele>109.59999847412</ele>
        <time>2021-05-29T16:43:29Z</time>
      </trkpt>
      <trkpt lat="44.46015" lon="1.5135">
        <ele>109.59999847412</ele>
        <time>2021-05-29T16:43:36Z</time>
      </trkpt>
      <trkpt lat="44.46012" lon="1.51342">
        <ele>109.80000305176</ele>
        <time>2021-05-29T16:43:37Z</time>
      </trkpt>
      <trkpt lat="44.46007" lon="1.51326">
        <ele>110.40000152588</ele>
        <time>2021-05-29T16:43:39Z</time>
      </trkpt>
      <trkpt lat="44.46005" lon="1.51318">
        <ele>110.80000305176</ele>
        <time>2021-05-29T16:43:40Z</time>
      </trkpt>
      <trkpt lat="44.46003" lon="1.513">
        <ele>111.19999694824</ele>
        <time>2021-05-29T16:43:42Z</time>
      </trkpt>
      <trkpt lat="44.46" lon="1.51274">
        <ele>111.59999847412</ele>
        <time>2021-05-29T16:43:45Z</time>
      </trkpt>
      <trkpt lat="44.45992" lon="1.51222">
        <ele>111.80000305176</ele>
        <time>2021-05-29T16:43:51Z</time>
      </trkpt>
      <trkpt lat="44.45985" lon="1.51158">
        <ele>111.80000305176</ele>
        <time>2021-05-29T16:43:58Z</time>
      </trkpt>
      <trkpt lat="44.45978" lon="1.51104">
        <ele>111.80000305176</ele>
        <time>2021-05-29T16:44:04Z</time>
      </trkpt>
      <trkpt lat="44.45972" lon="1.51041">
        <ele>112</ele>
        <time>2021-05-29T16:44:11Z</time>
      </trkpt>
      <trkpt lat="44.4597" lon="1.50985">
        <ele>112</ele>
        <time>2021-05-29T16:44:17Z</time>
      </trkpt>
      <trkpt lat="44.45965" lon="1.50923">
        <ele>112</ele>
        <time>2021-05-29T16:44:24Z</time>
      </trkpt>
      <trkpt lat="44.45964" lon="1.50869">
        <ele>112</ele>
        <time>2021-05-29T16:44:30Z</time>
      </trkpt>
      <trkpt lat="44.45961" lon="1.50806">
        <ele>112.40000152588</ele>
        <time>2021-05-29T16:44:37Z</time>
      </trkpt>
      <trkpt lat="44.4596" lon="1.50798">
        <ele>112.40000152588</ele>
        <time>2021-05-29T16:44:38Z</time>
      </trkpt>
      <trkpt lat="44.45953" lon="1.50738">
        <ele>112.59999847412</ele>
        <time>2021-05-29T16:44:45Z</time>
      </trkpt>
      <trkpt lat="44.45952" lon="1.50729">
        <ele>112.40000152588</ele>
        <time>2021-05-29T16:44:46Z</time>
      </trkpt>
      <trkpt lat="44.45944" lon="1.50695">
        <ele>112.59999847412</ele>
        <time>2021-05-29T16:44:50Z</time>
      </trkpt>
      <trkpt lat="44.45941" lon="1.50658">
        <ele>112.40000152588</ele>
        <time>2021-05-29T16:44:54Z</time>
      </trkpt>
      <trkpt lat="44.45941" lon="1.50649">
        <ele>112.40000152588</ele>
        <time>2021-05-29T16:44:55Z</time>
      </trkpt>
      <trkpt lat="44.4594" lon="1.5063">
        <ele>112.40000152588</ele>
        <time>2021-05-29T16:44:57Z</time>
      </trkpt>
      <trkpt lat="44.45939" lon="1.50621">
        <ele>112.40000152588</ele>
        <time>2021-05-29T16:44:58Z</time>
      </trkpt>
      <trkpt lat="44.4593" lon="1.50551">
        <ele>112.80000305176</ele>
        <time>2021-05-29T16:45:06Z</time>
      </trkpt>
      <trkpt lat="44.45926" lon="1.5049">
        <ele>112.80000305176</ele>
        <time>2021-05-29T16:45:13Z</time>
      </trkpt>
      <trkpt lat="44.45925" lon="1.50473">
        <ele>112.80000305176</ele>
        <time>2021-05-29T16:45:15Z</time>
      </trkpt>
      <trkpt lat="44.45924" lon="1.50454">
        <ele>112.80000305176</ele>
        <time>2021-05-29T16:45:17Z</time>
      </trkpt>
      <trkpt lat="44.4592" lon="1.50396">
        <ele>112.80000305176</ele>
        <time>2021-05-29T16:45:23Z</time>
      </trkpt>
      <trkpt lat="44.45923" lon="1.5035">
        <ele>112.59999847412</ele>
        <time>2021-05-29T16:45:28Z</time>
      </trkpt>
      <trkpt lat="44.45922" lon="1.50341">
        <ele>112.59999847412</ele>
        <time>2021-05-29T16:45:29Z</time>
      </trkpt>
      <trkpt lat="44.45912" lon="1.50287">
        <ele>112.19999694824</ele>
        <time>2021-05-29T16:45:35Z</time>
      </trkpt>
      <trkpt lat="44.45904" lon="1.50246">
        <ele>112</ele>
        <time>2021-05-29T16:45:40Z</time>
      </trkpt>
      <trkpt lat="44.45903" lon="1.50236">
        <ele>112</ele>
        <time>2021-05-29T16:45:41Z</time>
      </trkpt>
      <trkpt lat="44.459" lon="1.50215">
        <ele>111.80000305176</ele>
        <time>2021-05-29T16:45:43Z</time>
      </trkpt>
      <trkpt lat="44.45895" lon="1.50198">
        <ele>111.80000305176</ele>
        <time>2021-05-29T16:45:45Z</time>
      </trkpt>
      <trkpt lat="44.45885" lon="1.50175">
        <ele>112</ele>
        <time>2021-05-29T16:45:48Z</time>
      </trkpt>
      <trkpt lat="44.45882" lon="1.50167">
        <ele>112</ele>
        <time>2021-05-29T16:45:49Z</time>
      </trkpt>
      <trkpt lat="44.45879" lon="1.50158">
        <ele>112</ele>
        <time>2021-05-29T16:45:50Z</time>
      </trkpt>
      <trkpt lat="44.45876" lon="1.5015">
        <ele>112.19999694824</ele>
        <time>2021-05-29T16:45:51Z</time>
      </trkpt>
      <trkpt lat="44.45863" lon="1.50129">
        <ele>112</ele>
        <time>2021-05-29T16:45:54Z</time>
      </trkpt>
      <trkpt lat="44.45835" lon="1.5009">
        <ele>112</ele>
        <time>2021-05-29T16:46:00Z</time>
      </trkpt>
      <trkpt lat="44.45802" lon="1.50048">
        <ele>111.80000305176</ele>
        <time>2021-05-29T16:46:07Z</time>
      </trkpt>
      <trkpt lat="44.45776" lon="1.50015">
        <ele>111.59999847412</ele>
        <time>2021-05-29T16:46:12Z</time>
      </trkpt>
      <trkpt lat="44.45756" lon="1.49976">
        <ele>111.59999847412</ele>
        <time>2021-05-29T16:46:17Z</time>
      </trkpt>
      <trkpt lat="44.45752" lon="1.4997">
        <ele>111.40000152588</ele>
        <time>2021-05-29T16:46:18Z</time>
      </trkpt>
      <trkpt lat="44.45732" lon="1.49931">
        <ele>110.80000305176</ele>
        <time>2021-05-29T16:46:23Z</time>
      </trkpt>
      <trkpt lat="44.45722" lon="1.49907">
        <ele>110.59999847412</ele>
        <time>2021-05-29T16:46:26Z</time>
      </trkpt>
      <trkpt lat="44.45714" lon="1.49883">
        <ele>110.59999847412</ele>
        <time>2021-05-29T16:46:29Z</time>
      </trkpt>
      <trkpt lat="44.45708" lon="1.49867">
        <ele>110.19999694824</ele>
        <time>2021-05-29T16:46:31Z</time>
      </trkpt>
      <trkpt lat="44.45693" lon="1.49825">
        <ele>109.80000305176</ele>
        <time>2021-05-29T16:46:36Z</time>
      </trkpt>
      <trkpt lat="44.45688" lon="1.4981">
        <ele>109.19999694824</ele>
        <time>2021-05-29T16:46:38Z</time>
      </trkpt>
      <trkpt lat="44.45682" lon="1.49786">
        <ele>108.59999847412</ele>
        <time>2021-05-29T16:46:41Z</time>
      </trkpt>
      <trkpt lat="44.45674" lon="1.49749">
        <ele>108.40000152588</ele>
        <time>2021-05-29T16:46:46Z</time>
      </trkpt>
      <trkpt lat="44.45674" lon="1.49742">
        <ele>108.40000152588</ele>
        <time>2021-05-29T16:46:47Z</time>
      </trkpt>
      <trkpt lat="44.45673" lon="1.49718">
        <ele>108.40000152588</ele>
        <time>2021-05-29T16:46:50Z</time>
      </trkpt>
      <trkpt lat="44.45673" lon="1.49709">
        <ele>108.40000152588</ele>
        <time>2021-05-29T16:46:51Z</time>
      </trkpt>
      <trkpt lat="44.45664" lon="1.49666">
        <ele>109</ele>
        <time>2021-05-29T16:46:56Z</time>
      </trkpt>
      <trkpt lat="44.45649" lon="1.49617">
        <ele>109.40000152588</ele>
        <time>2021-05-29T16:47:02Z</time>
      </trkpt>
      <trkpt lat="44.45649" lon="1.49609">
        <ele>109.40000152588</ele>
        <time>2021-05-29T16:47:03Z</time>
      </trkpt>
      <trkpt lat="44.45649" lon="1.49585">
        <ele>109.59999847412</ele>
        <time>2021-05-29T16:47:06Z</time>
      </trkpt>
      <trkpt lat="44.45648" lon="1.49563">
        <ele>110.19999694824</ele>
        <time>2021-05-29T16:47:09Z</time>
      </trkpt>
      <trkpt lat="44.45648" lon="1.49524">
        <ele>110.59999847412</ele>
        <time>2021-05-29T16:47:14Z</time>
      </trkpt>
      <trkpt lat="44.45649" lon="1.49467">
        <ele>110.80000305176</ele>
        <time>2021-05-29T16:47:21Z</time>
      </trkpt>
      <trkpt lat="44.45651" lon="1.49438">
        <ele>111</ele>
        <time>2021-05-29T16:47:25Z</time>
      </trkpt>
      <trkpt lat="44.45652" lon="1.4943">
        <ele>111.19999694824</ele>
        <time>2021-05-29T16:47:26Z</time>
      </trkpt>
      <trkpt lat="44.45654" lon="1.49414">
        <ele>111.40000152588</ele>
        <time>2021-05-29T16:47:28Z</time>
      </trkpt>
      <trkpt lat="44.45656" lon="1.49407">
        <ele>111.40000152588</ele>
        <time>2021-05-29T16:47:29Z</time>
      </trkpt>
      <trkpt lat="44.45659" lon="1.49391">
        <ele>111.40000152588</ele>
        <time>2021-05-29T16:47:31Z</time>
      </trkpt>
      <trkpt lat="44.45662" lon="1.49374">
        <ele>111.40000152588</ele>
        <time>2021-05-29T16:47:33Z</time>
      </trkpt>
      <trkpt lat="44.45665" lon="1.49348">
        <ele>111.40000152588</ele>
        <time>2021-05-29T16:47:36Z</time>
      </trkpt>
      <trkpt lat="44.45669" lon="1.49312">
        <ele>111.40000152588</ele>
        <time>2021-05-29T16:47:40Z</time>
      </trkpt>
      <trkpt lat="44.45671" lon="1.49305">
        <ele>111.40000152588</ele>
        <time>2021-05-29T16:47:41Z</time>
      </trkpt>
      <trkpt lat="44.45678" lon="1.49265">
        <ele>111.80000305176</ele>
        <time>2021-05-29T16:47:45Z</time>
      </trkpt>
      <trkpt lat="44.45682" lon="1.49247">
        <ele>112.19999694824</ele>
        <time>2021-05-29T16:47:47Z</time>
      </trkpt>
      <trkpt lat="44.45687" lon="1.49232">
        <ele>112.40000152588</ele>
        <time>2021-05-29T16:47:49Z</time>
      </trkpt>
      <trkpt lat="44.457" lon="1.49192">
        <ele>112.80000305176</ele>
        <time>2021-05-29T16:47:54Z</time>
      </trkpt>
      <trkpt lat="44.45719" lon="1.49156">
        <ele>112.80000305176</ele>
        <time>2021-05-29T16:47:59Z</time>
      </trkpt>
      <trkpt lat="44.45736" lon="1.49131">
        <ele>113</ele>
        <time>2021-05-29T16:48:03Z</time>
      </trkpt>
      <trkpt lat="44.4574" lon="1.49126">
        <ele>113</ele>
        <time>2021-05-29T16:48:04Z</time>
      </trkpt>
      <trkpt lat="44.45758" lon="1.49103">
        <ele>112.80000305176</ele>
        <time>2021-05-29T16:48:08Z</time>
      </trkpt>
      <trkpt lat="44.45767" lon="1.49092">
        <ele>112.80000305176</ele>
        <time>2021-05-29T16:48:10Z</time>
      </trkpt>
      <trkpt lat="44.45777" lon="1.49087">
        <ele>112.59999847412</ele>
        <time>2021-05-29T16:48:12Z</time>
      </trkpt>
      <trkpt lat="44.45786" lon="1.49081">
        <ele>112.59999847412</ele>
        <time>2021-05-29T16:48:14Z</time>
      </trkpt>
      <trkpt lat="44.45789" lon="1.49078">
        <ele>112.40000152588</ele>
        <time>2021-05-29T16:48:15Z</time>
      </trkpt>
      <trkpt lat="44.45792" lon="1.49071">
        <ele>112.40000152588</ele>
        <time>2021-05-29T16:48:16Z</time>
      </trkpt>
      <trkpt lat="44.45803" lon="1.49048">
        <ele>111</ele>
        <time>2021-05-29T16:48:19Z</time>
      </trkpt>
      <trkpt lat="44.45813" lon="1.49026">
        <ele>110.59999847412</ele>
        <time>2021-05-29T16:48:21Z</time>
      </trkpt>
      <trkpt lat="44.45834" lon="1.49001">
        <ele>110</ele>
        <time>2021-05-29T16:48:25Z</time>
      </trkpt>
      <trkpt lat="44.45839" lon="1.48995">
        <ele>110</ele>
        <time>2021-05-29T16:48:26Z</time>
      </trkpt>
      <trkpt lat="44.45845" lon="1.4899">
        <ele>109.80000305176</ele>
        <time>2021-05-29T16:48:27Z</time>
      </trkpt>
      <trkpt lat="44.45862" lon="1.48971">
        <ele>109.40000152588</ele>
        <time>2021-05-29T16:48:30Z</time>
      </trkpt>
      <trkpt lat="44.45867" lon="1.48965">
        <ele>109.19999694824</ele>
        <time>2021-05-29T16:48:31Z</time>
      </trkpt>
      <trkpt lat="44.45884" lon="1.4895">
        <ele>109</ele>
        <time>2021-05-29T16:48:34Z</time>
      </trkpt>
      <trkpt lat="44.45889" lon="1.48945">
        <ele>108.80000305176</ele>
        <time>2021-05-29T16:48:35Z</time>
      </trkpt>
      <trkpt lat="44.45909" lon="1.48928">
        <ele>108.59999847412</ele>
        <time>2021-05-29T16:48:39Z</time>
      </trkpt>
      <trkpt lat="44.45924" lon="1.48917">
        <ele>108.59999847412</ele>
        <time>2021-05-29T16:48:43Z</time>
      </trkpt>
      <trkpt lat="44.45935" lon="1.4891">
        <ele>108.59999847412</ele>
        <time>2021-05-29T16:48:47Z</time>
      </trkpt>
      <trkpt lat="44.4594" lon="1.48905">
        <ele>108.40000152588</ele>
        <time>2021-05-29T16:48:49Z</time>
      </trkpt>
      <trkpt lat="44.45945" lon="1.48902">
        <ele>108.40000152588</ele>
        <time>2021-05-29T16:48:50Z</time>
      </trkpt>
      <trkpt lat="44.45948" lon="1.48899">
        <ele>108.40000152588</ele>
        <time>2021-05-29T16:48:51Z</time>
      </trkpt>
      <trkpt lat="44.45969" lon="1.48886">
        <ele>108.59999847412</ele>
        <time>2021-05-29T16:48:55Z</time>
      </trkpt>
      <trkpt lat="44.45988" lon="1.48873">
        <ele>109</ele>
        <time>2021-05-29T16:48:59Z</time>
      </trkpt>
      <trkpt lat="44.45992" lon="1.48869">
        <ele>109</ele>
        <time>2021-05-29T16:49:00Z</time>
      </trkpt>
      <trkpt lat="44.46002" lon="1.48863">
        <ele>109</ele>
        <time>2021-05-29T16:49:02Z</time>
      </trkpt>
      <trkpt lat="44.46011" lon="1.48856">
        <ele>109</ele>
        <time>2021-05-29T16:49:04Z</time>
      </trkpt>
      <trkpt lat="44.4604" lon="1.48833">
        <ele>108.80000305176</ele>
        <time>2021-05-29T16:49:10Z</time>
      </trkpt>
      <trkpt lat="44.46046" lon="1.4883">
        <ele>108.80000305176</ele>
        <time>2021-05-29T16:49:11Z</time>
      </trkpt>
      <trkpt lat="44.46067" lon="1.48814">
        <ele>108.59999847412</ele>
        <time>2021-05-29T16:49:15Z</time>
      </trkpt>
      <trkpt lat="44.46077" lon="1.48803">
        <ele>108.59999847412</ele>
        <time>2021-05-29T16:49:17Z</time>
      </trkpt>
      <trkpt lat="44.46086" lon="1.48793">
        <ele>108.59999847412</ele>
        <time>2021-05-29T16:49:19Z</time>
      </trkpt>
      <trkpt lat="44.46096" lon="1.48787">
        <ele>108.59999847412</ele>
        <time>2021-05-29T16:49:21Z</time>
      </trkpt>
      <trkpt lat="44.46107" lon="1.48774">
        <ele>108.59999847412</ele>
        <time>2021-05-29T16:49:24Z</time>
      </trkpt>
      <trkpt lat="44.46116" lon="1.48762">
        <ele>108.59999847412</ele>
        <time>2021-05-29T16:49:26Z</time>
      </trkpt>
      <trkpt lat="44.46122" lon="1.48754">
        <ele>108.59999847412</ele>
        <time>2021-05-29T16:49:27Z</time>
      </trkpt>
      <trkpt lat="44.46128" lon="1.48748">
        <ele>108.59999847412</ele>
        <time>2021-05-29T16:49:28Z</time>
      </trkpt>
      <trkpt lat="44.46157" lon="1.4871">
        <ele>108.59999847412</ele>
        <time>2021-05-29T16:49:33Z</time>
      </trkpt>
      <trkpt lat="44.46162" lon="1.48702">
        <ele>108.59999847412</ele>
        <time>2021-05-29T16:49:34Z</time>
      </trkpt>
      <trkpt lat="44.46189" lon="1.48657">
        <ele>108.59999847412</ele>
        <time>2021-05-29T16:49:40Z</time>
      </trkpt>
      <trkpt lat="44.462" lon="1.48644">
        <ele>108.40000152588</ele>
        <time>2021-05-29T16:49:42Z</time>
      </trkpt>
      <trkpt lat="44.46209" lon="1.4863">
        <ele>108.40000152588</ele>
        <time>2021-05-29T16:49:44Z</time>
      </trkpt>
      <trkpt lat="44.46217" lon="1.4861">
        <ele>108.40000152588</ele>
        <time>2021-05-29T16:49:47Z</time>
      </trkpt>
      <trkpt lat="44.46104" lon="1.48506">
        <ele>119.7</ele>
      </trkpt>
      <trkpt lat="44.46058" lon="1.48368">
        <ele>129.1</ele>
      </trkpt>
      <trkpt lat="44.46011" lon="1.48327">
        <ele>131.9</ele>
      </trkpt>
      <trkpt lat="44.4598" lon="1.4828">
        <ele>128.8</ele>
      </trkpt>
      <trkpt lat="44.45972" lon="1.4825">
        <ele>135.3</ele>
      </trkpt>
      <trkpt lat="44.45954" lon="1.48215">
        <ele>127.8</ele>
      </trkpt>
      <trkpt lat="44.45819" lon="1.48175">
        <ele>127.6</ele>
      </trkpt>
      <trkpt lat="44.45776" lon="1.48208">
        <ele>145</ele>
      </trkpt>
      <trkpt lat="44.45704" lon="1.48226">
        <ele>132</ele>
      </trkpt>
      <trkpt lat="44.45596" lon="1.48209">
        <ele>131.9</ele>
      </trkpt>
      <trkpt lat="44.45503" lon="1.48242">
        <ele>135.1</ele>
      </trkpt>
      <trkpt lat="44.45418" lon="1.48184">
        <ele>144.3</ele>
      </trkpt>
      <trkpt lat="44.45357" lon="1.48173">
        <ele>137.2</ele>
      </trkpt>
      <trkpt lat="44.45127" lon="1.48017">
        <ele>153.9</ele>
      </trkpt>
      <trkpt lat="44.45023" lon="1.48026">
        <ele>144.9</ele>
      </trkpt>
      <trkpt lat="44.4487" lon="1.48069">
        <ele>148.7</ele>
      </trkpt>
      <trkpt lat="44.44782" lon="1.48145">
        <ele>162.3</ele>
      </trkpt>
      <trkpt lat="44.44633" lon="1.48041">
        <ele>155.4</ele>
      </trkpt>
      <trkpt lat="44.44477" lon="1.47983">
        <ele>169.4</ele>
      </trkpt>
      <trkpt lat="44.44376" lon="1.4804">
        <ele>169.9</ele>
      </trkpt>
      <trkpt lat="44.44243" lon="1.47978">
        <ele>174.7</ele>
      </trkpt>
      <trkpt lat="44.44101" lon="1.47984">
        <ele>170.3</ele>
      </trkpt>
      <trkpt lat="44.43955" lon="1.48069">
        <ele>175.5</ele>
      </trkpt>
      <trkpt lat="44.43737" lon="1.48078">
        <ele>192.7</ele>
      </trkpt>
      <trkpt lat="44.43573" lon="1.47807">
        <ele>206.9</ele>
      </trkpt>
      <trkpt lat="44.43541" lon="1.47698">
        <ele>233.1</ele>
      </trkpt>
      <trkpt lat="44.43432" lon="1.47518">
        <ele>241</ele>
      </trkpt>
      <trkpt lat="44.433" lon="1.47536">
        <ele>248.1</ele>
      </trkpt>
      <trkpt lat="44.43219" lon="1.47637">
        <ele>266.2</ele>
      </trkpt>
      <trkpt lat="44.43177" lon="1.47661">
        <ele>271.3</ele>
      </trkpt>
      <trkpt lat="44.43134" lon="1.47649">
        <ele>274.3</ele>
      </trkpt>
      <trkpt lat="44.43166" lon="1.47626">
        <ele>276.1</ele>
      </trkpt>
      <trkpt lat="44.43196" lon="1.47504">
        <ele>272.1</ele>
      </trkpt>
      <trkpt lat="44.43232" lon="1.47479">
        <ele>266.4</ele>
      </trkpt>
      <trkpt lat="44.43285" lon="1.47377">
        <ele>268.5</ele>
        <time>2021-05-29T16:49:49Z</time>
      </trkpt>
    </trkseg>
  </trk>
</gpx>